| time (UTC) | temp F | wind direction | speed MPH | gust MPH | rain 1hr in | rain 24hr in | rain mn in | humidity % | barometer mb |
| 20260903082650 | 68 | 213 | 0.0 | 5.0 | 0.10 | 0.51 | 0.49 | 97 | 1014.9 |
| 20260903082550 | 68 | 213 | 0.0 | 5.0 | 0.10 | 0.51 | 0.49 | 97 | 1014.9 |
| 20260903082520 | 68 | 213 | 0.0 | 5.0 | 0.10 | 0.51 | 0.49 | 97 | 1015.1 |
| 20260903082449 | 68 | 213 | 1.0 | 5.0 | 0.10 | 0.51 | 0.49 | 97 | 1015.0 |
| 20260903082349 | 68 | 217 | 1.0 | 5.0 | 0.10 | 0.51 | 0.49 | 97 | 1015.1 |
| 20260903082308 | 68 | 213 | 1.0 | 5.0 | 0.09 | 0.50 | 0.48 | 97 | 1015.4 |
| 20260903082306 | 68 | 211 | 1.0 | 5.0 | 0.09 | 0.50 | 0.49 | 97 | 1015.2 |
| 20260903082255 | 68 | 211 | 1.0 | 5.0 | 0.09 | 0.50 | 0.48 | 97 | 1015.4 |
| 20260903082047 | 68 | 213 | 1.0 | 5.0 | 0.08 | 0.49 | 0.47 | 97 | 1015.6 |
| 20260903082020 | 68 | 240 | 1.0 | 5.0 | 0.08 | 0.49 | 0.47 | 97 | 1015.8 |
| 20260903081946 | 68 | 252 | 1.0 | 5.0 | 0.07 | 0.48 | 0.47 | 97 | 1015.7 |
| 20260903081925 | 68 | 196 | 1.0 | 3.0 | 0.06 | 0.47 | 0.45 | 97 | 1016.0 |
| 20260903081846 | 68 | 250 | 1.0 | 5.0 | 0.06 | 0.47 | 0.46 | 97 | 1015.9 |
| 20260903081800 | 68 | 199 | 1.0 | 3.0 | 0.06 | 0.47 | 0.45 | 97 | 1016.1 |
| 20260903081645 | 68 | 196 | 1.0 | 3.0 | 0.06 | 0.47 | 0.45 | 97 | 1016.0 |
| 20260903081544 | 68 | 196 | 1.0 | 3.0 | 0.06 | 0.47 | 0.45 | 97 | 1016.0 |
| 20260903081520 | 68 | 195 | 1.0 | 3.0 | 0.06 | 0.47 | 0.45 | 97 | 1015.8 |
| 20260903081444 | 68 | 195 | 1.0 | 3.0 | 0.06 | 0.47 | 0.45 | 97 | 1015.7 |
| 20260903081344 | 68 | 195 | 1.0 | 3.0 | 0.05 | 0.46 | 0.44 | 97 | 1015.6 |
| 20260903081242 | 68 | 194 | 0.0 | 3.0 | 0.05 | 0.46 | 0.44 | 97 | 1015.3 |
| 20260903081142 | 68 | 194 | 0.0 | 3.0 | 0.05 | 0.46 | 0.44 | 97 | 1015.0 |
| 20260903081041 | 68 | 194 | 0.0 | 3.0 | 0.05 | 0.46 | 0.44 | 97 | 1014.8 |
| 20260903081020 | 68 | 181 | 1.0 | 3.0 | 0.05 | 0.46 | 0.44 | 97 | 1014.8 |
| 20260903080941 | 68 | 181 | 0.0 | 3.0 | 0.05 | 0.46 | 0.44 | 97 | 1014.7 |
| 20260903080841 | 68 | 169 | 0.0 | 2.0 | 0.05 | 0.46 | 0.44 | 97 | 1014.6 |
| 20260903080740 | 68 | 51 | 0.0 | 1.0 | 0.05 | 0.46 | 0.44 | 97 | 1014.7 |
| 20260903080639 | 68 | 51 | 0.0 | 2.0 | 0.05 | 0.46 | 0.44 | 97 | 1014.6 |
| 20260903080539 | 68 | 51 | 0.0 | 2.0 | 0.04 | 0.45 | 0.43 | 97 | 1014.7 |
| 20260903080520 | 68 | 51 | 0.0 | 2.0 | 0.04 | 0.45 | 0.43 | 97 | 1014.8 |
| 20260903080438 | 68 | 51 | 0.0 | 2.0 | 0.04 | 0.45 | 0.43 | 97 | 1014.7 |
| 20260903080337 | 68 | 95 | 0.0 | 2.0 | 0.04 | 0.45 | 0.43 | 97 | 1014.6 |
| 20260903080237 | 68 | 95 | 0.0 | 2.0 | 0.04 | 0.45 | 0.43 | 97 | 1014.7 |
| 20260903080137 | 68 | 95 | 0.0 | 4.0 | 0.04 | 0.45 | 0.43 | 97 | 1014.7 |
| 20260903080036 | 68 | 95 | 0.0 | 4.0 | 0.03 | 0.44 | 0.43 | 97 | 1014.8 |
| 20260903080021 | 68 | 95 | 0.0 | 4.0 | 0.04 | 0.45 | 0.43 | 97 | 1014.8 |
| 20260903075934 | 68 | 95 | 0.0 | 4.0 | 0.03 | 0.44 | 0.42 | 97 | 1014.7 |
| 20260903075848 | 68 | 95 | 0.0 | 4.0 | 0.03 | 0.44 | 0.42 | 97 | 1014.8 |
| 20260903075843 | 68 | 95 | 0.0 | 4.0 | 0.03 | 0.44 | 0.42 | 97 | 1014.7 |
| 20260903075651 | 68 | 96 | 0.0 | 4.0 | 0.03 | 0.44 | 0.42 | 97 | 1015.1 |
| 20260903075633 | 68 | 350 | 0.0 | 4.0 | 0.03 | 0.44 | 0.42 | 97 | 1015.1 |
| 20260903075533 | 68 | 292 | 0.0 | 4.0 | 0.03 | 0.44 | 0.42 | 97 | 1015.4 |
| 20260903075520 | 68 | 292 | 0.0 | 4.0 | 0.03 | 0.44 | 0.42 | 97 | 1015.6 |
| 20260903075445 | 68 | 292 | 0.0 | 4.0 | 0.02 | 0.43 | 0.41 | 97 | 1015.6 |
| 20260903075440 | 68 | 292 | 0.0 | 4.0 | 0.02 | 0.43 | 0.42 | 97 | 1015.5 |
| 20260903075246 | 68 | 293 | 0.0 | 4.0 | 0.02 | 0.43 | 0.41 | 97 | 1015.5 |
| 20260903075238 | 68 | 312 | 0.0 | 4.0 | 0.02 | 0.43 | 0.41 | 97 | 1015.5 |
| 20260903075031 | 68 | 312 | 0.0 | 4.0 | 0.02 | 0.43 | 0.41 | 97 | 1015.4 |
| 20260903075020 | 68 | 312 | 0.0 | 4.0 | 0.02 | 0.43 | 0.41 | 97 | 1015.5 |
| 20260903074930 | 68 | 309 | 0.0 | 4.0 | 0.02 | 0.43 | 0.41 | 97 | 1015.4 |
| 20260903074830 | 68 | 309 | 0.0 | 4.0 | 0.02 | 0.43 | 0.41 | 97 | 1015.4 |
| 20260903074729 | 68 | 308 | 0.0 | 4.0 | 0.02 | 0.43 | 0.41 | 97 | 1015.4 |
| 20260903074657 | 68 | 252 | 0.0 | 1.0 | 0.02 | 0.43 | 0.41 | 97 | 1015.4 |
| 20260903074650 | 68 | 252 | 0.0 | 0.0 | 0.02 | 0.43 | 0.41 | 97 | 1015.4 |
| 20260903074537 | 68 | 252 | 0.0 | 0.0 | 0.02 | 0.43 | 0.41 | 97 | 1015.3 |
| 20260903074520 | 68 | 252 | 0.0 | 0.0 | 0.02 | 0.43 | 0.41 | 97 | 1015.3 |
| 20260903074354 | 68 | 186 | 0.0 | 0.0 | 0.02 | 0.43 | 0.41 | 97 | 1015.0 |
| 20260903074240 | 68 | 186 | 0.0 | 0.0 | 0.02 | 0.43 | 0.41 | 97 | 1015.0 |
| 20260903074232 | 68 | 186 | 0.0 | 0.0 | 0.02 | 0.43 | 0.41 | 97 | 1015.0 |
| 20260903074025 | 68 | 186 | 0.0 | 0.0 | 0.02 | 0.43 | 0.41 | 97 | 1015.0 |
| 20260903074020 | 68 | 186 | 0.0 | 0.0 | 0.02 | 0.43 | 0.41 | 97 | 1015.1 |
| 20260903073926 | 68 | 186 | 0.0 | 0.0 | 0.01 | 0.42 | 0.41 | 97 | 1015.0 |
| 20260903073836 | 68 | 186 | 0.0 | 0.0 | 0.00 | 0.41 | 0.40 | 97 | 1015.0 |
| 20260903073831 | 68 | 186 | 0.0 | 0.0 | 0.01 | 0.42 | 0.40 | 97 | 1015.0 |
| 20260903073621 | 68 | 186 | 0.0 | 0.0 | 0.00 | 0.41 | 0.39 | 97 | 1015.0 |
| 20260903073604 | 68 | 186 | 0.0 | 0.0 | 0.00 | 0.41 | 0.39 | 97 | 1015.1 |
| 20260903073535 | 68 | 186 | 0.0 | 0.0 | 0.00 | 0.41 | 0.39 | 97 | 1015.0 |
| 20260903073530 | 68 | 186 | 0.0 | 0.0 | 0.00 | 0.41 | 0.39 | 97 | 1014.9 |
| 20260903073319 | 68 | 186 | 0.0 | 0.0 | 0.00 | 0.41 | 0.39 | 97 | 1014.9 |
| 20260903073219 | 68 | 186 | 0.0 | 0.0 | 0.00 | 0.41 | 0.39 | 97 | 1014.9 |
| 20260903073152 | 68 | 186 | 0.0 | 0.0 | 0.00 | 0.41 | 0.39 | 97 | 1014.8 |
| 20260903073118 | 68 | 186 | 0.0 | 0.0 | 0.00 | 0.41 | 0.39 | 97 | 1014.8 |
| 20260903073020 | 68 | 186 | 0.0 | 0.0 | 0.00 | 0.41 | 0.39 | 97 | 1014.7 |
| 20260903073018 | 68 | 186 | 0.0 | 0.0 | 0.00 | 0.41 | 0.39 | 97 | 1014.7 |
| 20260903072923 | 68 | 186 | 0.0 | 0.0 | 0.00 | 0.41 | 0.39 | 97 | 1014.4 |
| 20260903072917 | 68 | 186 | 0.0 | 0.0 | 0.00 | 0.41 | 0.39 | 97 | 1014.6 |
| 20260903072817 | 68 | 186 | 0.0 | 0.0 | 0.00 | 0.41 | 0.39 | 97 | 1014.4 |
| 20260903072805 | 68 | 186 | 0.0 | 0.0 | 0.00 | 0.41 | 0.39 | 97 | 1014.4 |
| 20260903072651 | 68 | 186 | 0.0 | 0.0 | 0.00 | 0.41 | 0.39 | 97 | 1014.4 |
| 20260903072538 | 68 | 186 | 0.0 | 0.0 | 0.00 | 0.41 | 0.39 | 97 | 1014.5 |
| 20260903072534 | 68 | 186 | 0.0 | 0.0 | 0.01 | 0.41 | 0.39 | 97 | 1014.6 |
| 20260903072529 | 68 | 186 | 0.0 | 0.0 | 0.00 | 0.41 | 0.39 | 97 | 1014.5 |
| 20260903072519 | 68 | 186 | 0.0 | 0.0 | 0.00 | 0.41 | 0.39 | 97 | 1014.6 |
| 20260903072415 | 68 | 186 | 0.0 | 0.0 | 0.00 | 0.41 | 0.39 | 97 | 1014.5 |
| 20260903072406 | 68 | 186 | 0.0 | 0.0 | 0.00 | 0.41 | 0.39 | 97 | 1014.6 |
| 20260903072145 | 68 | 186 | 0.0 | 0.0 | 0.01 | 0.41 | 0.39 | 97 | 1014.5 |
| 20260903072138 | 68 | 186 | 0.0 | 0.0 | 0.00 | 0.41 | 0.39 | 97 | 1014.5 |
| 20260903072050 | 68 | 186 | 0.0 | 0.0 | 0.00 | 0.41 | 0.39 | 97 | 1014.6 |
| 20260903071710 | 68 | 186 | 0.0 | 0.0 | 0.01 | 0.41 | 0.39 | 97 | 1014.5 |
| 20260903071646 | 68 | 186 | 0.0 | 0.0 | 0.01 | 0.41 | 0.39 | 97 | 1014.5 |
| 20260903071610 | 68 | 186 | 0.0 | 0.0 | 0.01 | 0.41 | 0.39 | 97 | 1014.5 |
| 20260903071519 | 68 | 186 | 0.0 | 0.0 | 0.01 | 0.41 | 0.39 | 97 | 1014.6 |
| 20260903071510 | 68 | 186 | 0.0 | 0.0 | 0.01 | 0.41 | 0.39 | 97 | 1014.5 |
| 20260903071409 | 68 | 186 | 0.0 | 0.0 | 0.01 | 0.41 | 0.39 | 97 | 1014.5 |
| 20260903071323 | 68 | 186 | 0.0 | 0.0 | 0.03 | 0.41 | 0.39 | 97 | 1014.4 |
| 20260903071318 | 68 | 186 | 0.0 | 0.0 | 0.02 | 0.41 | 0.39 | 97 | 1014.5 |
| 20260903071143 | 68 | 186 | 0.0 | 0.0 | 0.03 | 0.41 | 0.39 | 97 | 1014.5 |
| 20260903071108 | 68 | 186 | 0.0 | 0.0 | 0.03 | 0.41 | 0.39 | 97 | 1014.5 |
| 20260903071020 | 68 | 186 | 0.0 | 0.0 | 0.04 | 0.41 | 0.39 | 97 | 1014.5 |
| 20260903071014 | 68 | 186 | 0.0 | 0.0 | 0.04 | 0.41 | 0.39 | 97 | 1014.5 |
| 20260903070805 | 68 | 186 | 0.0 | 0.0 | 0.04 | 0.41 | 0.39 | 97 | 1014.5 |
| 20260903070705 | 68 | 186 | 0.0 | 0.0 | 0.04 | 0.41 | 0.39 | 97 | 1014.4 |
| 20260903070643 | 68 | 186 | 0.0 | 0.0 | 0.04 | 0.41 | 0.39 | 97 | 1014.4 |
| 20260903070604 | 68 | 186 | 0.0 | 0.0 | 0.04 | 0.41 | 0.39 | 97 | 1014.4 |
| 20260903070520 | 69 | 186 | 0.0 | 0.0 | 0.05 | 0.41 | 0.39 | 97 | 1014.5 |
| 20260903070503 | 69 | 186 | 0.0 | 0.0 | 0.05 | 0.41 | 0.39 | 97 | 1014.4 |
| 20260903070403 | 69 | 186 | 0.0 | 0.0 | 0.05 | 0.41 | 0.39 | 97 | 1014.4 |
| 20260903070303 | 69 | 186 | 0.0 | 0.0 | 0.05 | 0.41 | 0.39 | 97 | 1014.4 |
| 20260903070142 | 69 | 186 | 0.0 | 0.0 | 0.05 | 0.41 | 0.39 | 97 | 1014.4 |
| 20260903070019 | 69 | 186 | 0.0 | 0.0 | 0.06 | 0.41 | 0.39 | 97 | 1014.5 |
| 20260903070000 | 69 | 186 | 0.0 | 0.0 | 0.06 | 0.41 | 0.39 | 97 | 1014.4 |
| 20260903065859 | 69 | 186 | 0.0 | 0.0 | 0.06 | 0.41 | 0.39 | 97 | 1014.4 |
| 20260903065758 | 69 | 186 | 0.0 | 0.0 | 0.06 | 0.41 | 0.39 | 96 | 1014.4 |
| 20260903065640 | 69 | 186 | 0.0 | 0.0 | 0.07 | 0.41 | 0.39 | 96 | 1014.3 |
| 20260903065557 | 69 | 186 | 0.0 | 0.0 | 0.07 | 0.41 | 0.39 | 96 | 1014.4 |
| 20260903065520 | 69 | 186 | 0.0 | 0.0 | 0.07 | 0.41 | 0.39 | 96 | 1014.5 |
| 20260903065456 | 69 | 186 | 0.0 | 0.0 | 0.07 | 0.41 | 0.39 | 96 | 1014.4 |
| 20260903065356 | 69 | 186 | 0.0 | 0.0 | 0.07 | 0.41 | 0.39 | 96 | 1014.5 |
| 20260903065255 | 69 | 186 | 0.0 | 0.0 | 0.07 | 0.41 | 0.39 | 96 | 1014.5 |
| 20260903065141 | 69 | 186 | 0.0 | 0.0 | 0.08 | 0.41 | 0.39 | 96 | 1014.5 |
| 20260903065053 | 69 | 186 | 0.0 | 0.0 | 0.09 | 0.41 | 0.39 | 96 | 1014.4 |
| 20260903065035 | 69 | 186 | 0.0 | 0.0 | 0.09 | 0.41 | 0.39 | 96 | 1014.5 |
| 20260903064953 | 69 | 186 | 0.0 | 0.0 | 0.11 | 0.41 | 0.39 | 96 | 1014.4 |
| 20260903064853 | 69 | 186 | 0.0 | 0.0 | 0.11 | 0.41 | 0.39 | 96 | 1014.4 |
| 20260903064808 | 69 | 186 | 0.0 | 0.0 | 0.17 | 0.41 | 0.39 | 96 | 1014.3 |
| 20260903064803 | 69 | 186 | 0.0 | 0.0 | 0.14 | 0.41 | 0.39 | 96 | 1014.3 |
| 20260903064639 | 69 | 186 | 0.0 | 0.0 | 0.17 | 0.41 | 0.39 | 96 | 1014.3 |
| 20260903064551 | 69 | 186 | 0.0 | 0.0 | 0.22 | 0.41 | 0.39 | 96 | 1014.3 |
| 20260903064535 | 69 | 186 | 0.0 | 0.0 | 0.24 | 0.41 | 0.39 | 96 | 1014.3 |
| 20260903064451 | 69 | 186 | 0.0 | 0.0 | 0.26 | 0.41 | 0.39 | 96 | 1014.2 |
| 20260903064350 | 69 | 186 | 0.0 | 0.0 | 0.29 | 0.41 | 0.39 | 96 | 1014.2 |
| 20260903064248 | 69 | 186 | 0.0 | 0.0 | 0.31 | 0.41 | 0.39 | 96 | 1014.2 |
| 20260903064138 | 69 | 186 | 0.0 | 0.0 | 0.32 | 0.41 | 0.39 | 96 | 1014.2 |
| 20260903064046 | 69 | 186 | 0.0 | 0.0 | 0.33 | 0.41 | 0.39 | 96 | 1014.3 |
| 20260903064020 | 69 | 186 | 0.0 | 0.0 | 0.32 | 0.41 | 0.39 | 96 | 1014.4 |
| 20260903063945 | 69 | 186 | 0.0 | 0.0 | 0.33 | 0.41 | 0.39 | 96 | 1014.3 |
| 20260903063845 | 69 | 186 | 0.0 | 0.0 | 0.34 | 0.41 | 0.39 | 96 | 1014.4 |
| 20260903063744 | 69 | 186 | 0.0 | 0.0 | 0.34 | 0.41 | 0.39 | 96 | 1014.3 |
| 20260903063643 | 69 | 186 | 0.0 | 0.0 | 0.34 | 0.41 | 0.39 | 96 | 1014.3 |
| 20260903063637 | 69 | 186 | 0.0 | 0.0 | 0.35 | 0.41 | 0.39 | 96 | 1014.3 |
| 20260903063557 | 69 | 186 | 0.0 | 0.0 | 0.35 | 0.41 | 0.39 | 96 | 1014.3 |
| 20260903063552 | 69 | 186 | 0.0 | 0.0 | 0.35 | 0.41 | 0.39 | 96 | 1014.3 |
| 20260903063520 | 69 | 186 | 0.0 | 0.0 | 0.35 | 0.41 | 0.39 | 96 | 1014.4 |
| 20260903063342 | 69 | 186 | 0.0 | 0.0 | 0.35 | 0.41 | 0.39 | 96 | 1014.3 |
| 20260903063242 | 69 | 186 | 0.0 | 0.0 | 0.36 | 0.41 | 0.39 | 96 | 1014.4 |
| 20260903063136 | 69 | 186 | 0.0 | 0.0 | 0.36 | 0.41 | 0.39 | 96 | 1014.4 |
| 20260903063041 | 69 | 186 | 0.0 | 0.0 | 0.36 | 0.41 | 0.39 | 96 | 1014.4 |
| 20260903063020 | 69 | 186 | 0.0 | 0.0 | 0.36 | 0.41 | 0.39 | 96 | 1014.6 |
| 20260903062940 | 69 | 186 | 0.0 | 0.0 | 0.36 | 0.41 | 0.39 | 96 | 1014.5 |
| 20260903062840 | 69 | 186 | 0.0 | 0.0 | 0.37 | 0.41 | 0.39 | 96 | 1014.4 |
| 20260903062757 | 69 | 186 | 0.0 | 0.0 | 0.38 | 0.41 | 0.39 | 96 | 1014.3 |
| 20260903062751 | 69 | 186 | 0.0 | 0.0 | 0.37 | 0.41 | 0.39 | 96 | 1014.4 |
| 20260903062635 | 69 | 186 | 0.0 | 0.0 | 0.38 | 0.41 | 0.39 | 96 | 1014.3 |
| 20260903062538 | 69 | 186 | 0.0 | 0.0 | 0.38 | 0.41 | 0.39 | 96 | 1014.4 |
| 20260903062520 | 69 | 186 | 0.0 | 0.0 | 0.38 | 0.41 | 0.39 | 96 | 1014.5 |
| 20260903062438 | 69 | 186 | 0.0 | 0.0 | 0.38 | 0.41 | 0.39 | 96 | 1014.4 |
| 20260903062337 | 69 | 186 | 0.0 | 0.0 | 0.38 | 0.41 | 0.39 | 96 | 1014.5 |
| 20260903062237 | 69 | 186 | 0.0 | 0.0 | 0.38 | 0.41 | 0.39 | 96 | 1014.6 |
| 20260903062133 | 69 | 186 | 0.0 | 0.0 | 0.38 | 0.41 | 0.39 | 96 | 1014.6 |
| 20260903062037 | 69 | 186 | 0.0 | 0.0 | 0.38 | 0.41 | 0.39 | 96 | 1014.7 |
| 20260903062020 | 69 | 186 | 0.0 | 0.0 | 0.38 | 0.41 | 0.39 | 96 | 1014.8 |
| 20260903061937 | 69 | 186 | 0.0 | 0.0 | 0.38 | 0.40 | 0.39 | 96 | 1014.7 |
| 20260903061836 | 69 | 186 | 0.0 | 0.0 | 0.38 | 0.40 | 0.38 | 96 | 1014.8 |
| 20260903061736 | 69 | 186 | 0.0 | 0.0 | 0.38 | 0.40 | 0.38 | 96 | 1014.8 |
| 20260903061718 | 69 | 186 | 0.0 | 0.0 | 0.38 | 0.40 | 0.38 | 96 | 1014.9 |
| 20260903061705 | 69 | 186 | 0.0 | 0.0 | 0.38 | 0.40 | 0.38 | 96 | 1014.9 |
| 20260903061534 | 69 | 186 | 0.0 | 0.0 | 0.38 | 0.40 | 0.38 | 96 | 1015.1 |
| 20260903061444 | 69 | 186 | 0.0 | 0.0 | 0.38 | 0.40 | 0.38 | 96 | 1015.0 |
| 20260903061234 | 69 | 186 | 0.0 | 0.0 | 0.37 | 0.39 | 0.37 | 96 | 1015.1 |
| 20260903061135 | 69 | 186 | 0.0 | 0.0 | 0.36 | 0.38 | 0.37 | 96 | 1015.2 |
| 20260903061035 | 69 | 188 | 0.0 | 0.0 | 0.36 | 0.38 | 0.36 | 96 | 1015.3 |
| 20260903061033 | 69 | 188 | 0.0 | 0.0 | 0.36 | 0.38 | 0.36 | 96 | 1015.2 |
| 20260903061001 | 69 | 188 | 0.0 | 0.0 | 0.35 | 0.37 | 0.36 | 96 | 1015.2 |
| 20260903060832 | 69 | 187 | 0.0 | 0.0 | 0.35 | 0.37 | 0.35 | 96 | 1015.1 |
| 20260903060746 | 69 | 201 | 0.0 | 0.0 | 0.35 | 0.37 | 0.35 | 96 | 1015.1 |
| 20260903060736 | 69 | 263 | 0.0 | 0.0 | 0.35 | 0.37 | 0.35 | 96 | 1015.1 |
| 20260903060530 | 69 | 263 | 0.0 | 0.0 | 0.34 | 0.36 | 0.34 | 96 | 1015.2 |
| 20260903060521 | 69 | 263 | 0.0 | 0.0 | 0.34 | 0.36 | 0.34 | 96 | 1015.2 |
| 20260903060430 | 69 | 263 | 0.0 | 0.0 | 0.34 | 0.36 | 0.34 | 96 | 1015.1 |
| 20260903060330 | 69 | 263 | 0.0 | 0.0 | 0.34 | 0.36 | 0.34 | 96 | 1014.9 |
| 20260903060229 | 69 | 88 | 0.0 | 0.0 | 0.34 | 0.36 | 0.34 | 96 | 1014.8 |
| 20260903060128 | 69 | 144 | 0.0 | 0.0 | 0.34 | 0.36 | 0.34 | 96 | 1014.6 |
| 20260903060028 | 69 | 117 | 0.0 | 0.0 | 0.33 | 0.35 | 0.33 | 96 | 1014.5 |
| 20260903060020 | 69 | 117 | 0.0 | 0.0 | 0.33 | 0.35 | 0.33 | 96 | 1014.4 |
| 20260903055926 | 69 | 100 | 0.0 | 0.0 | 0.33 | 0.35 | 0.33 | 96 | 1014.3 |
| 20260903055825 | 69 | 132 | 0.0 | 0.0 | 0.33 | 0.35 | 0.33 | 96 | 1014.2 |
| 20260903055725 | 69 | 109 | 0.0 | 0.0 | 0.33 | 0.35 | 0.33 | 96 | 1014.0 |
| 20260903055631 | 69 | 96 | 0.0 | 0.0 | 0.32 | 0.34 | 0.33 | 96 | 1014.0 |
| 20260903055624 | 69 | 109 | 0.0 | 0.0 | 0.32 | 0.34 | 0.33 | 96 | 1014.0 |
| 20260903055524 | 69 | 103 | 0.0 | 0.0 | 0.32 | 0.34 | 0.32 | 96 | 1013.9 |
| 20260903055520 | 69 | 109 | 0.0 | 0.0 | 0.32 | 0.34 | 0.32 | 96 | 1014.2 |
| 20260903055437 | 69 | 165 | 0.0 | 0.0 | 0.32 | 0.34 | 0.32 | 96 | 1014.2 |
| 20260903055432 | 69 | 84 | 0.0 | 0.0 | 0.32 | 0.34 | 0.32 | 96 | 1014.1 |
| 20260903055249 | 69 | 107 | 0.0 | 0.0 | 0.32 | 0.34 | 0.32 | 96 | 1014.2 |
| 20260903055137 | 69 | 101 | 0.0 | 0.0 | 0.31 | 0.33 | 0.31 | 96 | 1014.2 |
| 20260903055130 | 69 | 92 | 0.0 | 0.0 | 0.31 | 0.33 | 0.31 | 96 | 1014.2 |
| 20260903055020 | 69 | 115 | 0.0 | 0.0 | 0.30 | 0.32 | 0.30 | 96 | 1014.5 |
| 20260903054921 | 69 | 134 | 0.0 | 0.0 | 0.28 | 0.30 | 0.29 | 96 | 1014.4 |
| 20260903054820 | 69 | 114 | 0.0 | 0.0 | 0.25 | 0.27 | 0.27 | 96 | 1014.6 |
| 20260903054720 | 69 | 101 | 0.0 | 0.0 | 0.22 | 0.24 | 0.24 | 96 | 1014.9 |
| 20260903054622 | 69 | 112 | 0.0 | 0.0 | 0.17 | 0.19 | 0.21 | 96 | 1015.4 |
| 20260903054535 | 69 | 209 | 0.0 | 0.0 | 0.15 | 0.17 | 0.15 | 96 | 1016.5 |
| 20260903054530 | 69 | 173 | 0.0 | 0.0 | 0.17 | 0.19 | 0.17 | 96 | 1015.9 |
| 20260903054320 | 69 | 220 | 0.0 | 0.0 | 0.10 | 0.12 | 0.10 | 96 | 1016.5 |
| 20260903054220 | 69 | 229 | 0.0 | 0.0 | 0.08 | 0.10 | 0.08 | 96 | 1016.7 |
| 20260903054125 | 69 | 230 | 0.0 | 0.0 | 0.07 | 0.09 | 0.07 | 96 | 1016.8 |
| 20260903054119 | 69 | 231 | 0.0 | 0.0 | 0.07 | 0.09 | 0.07 | 96 | 1016.8 |
| 20260903054020 | 69 | 255 | 0.0 | 0.0 | 0.07 | 0.09 | 0.07 | 96 | 1016.7 |
| 20260903054018 | 69 | 232 | 0.0 | 0.0 | 0.06 | 0.08 | 0.07 | 96 | 1016.7 |
| 20260903053918 | 69 | 274 | 0.0 | 0.0 | 0.06 | 0.08 | 0.06 | 96 | 1016.6 |
| 20260903053818 | 69 | 278 | 0.0 | 0.0 | 0.05 | 0.07 | 0.06 | 96 | 1016.4 |
| 20260903053716 | 69 | 323 | 0.0 | 0.0 | 0.05 | 0.07 | 0.05 | 96 | 1016.2 |
| 20260903053634 | 69 | 309 | 0.0 | 0.0 | 0.04 | 0.06 | 0.04 | 96 | 1015.9 |
| 20260903053625 | 69 | 309 | 0.0 | 0.0 | 0.04 | 0.06 | 0.05 | 96 | 1016.0 |
| 20260903053520 | 69 | 309 | 0.0 | 0.0 | 0.04 | 0.06 | 0.04 | 96 | 1015.9 |
| 20260903053415 | 69 | 309 | 0.0 | 0.0 | 0.04 | 0.06 | 0.04 | 95 | 1015.8 |
| 20260903053347 | 69 | 79 | 0.0 | 0.0 | 0.03 | 0.05 | 0.03 | 96 | 1015.7 |
| 20260903053343 | 69 | 79 | 0.0 | 0.0 | 0.03 | 0.05 | 0.03 | 96 | 1015.7 |
| 20260903053337 | 69 | 309 | 0.0 | 0.0 | 0.03 | 0.05 | 0.04 | 95 | 1015.7 |
| 20260903053219 | 70 | 79 | 0.0 | 0.0 | 0.03 | 0.05 | 0.03 | 96 | 1015.7 |
| 20260903053020 | 70 | 11 | 0.0 | 0.0 | 0.03 | 0.05 | 0.03 | 96 | 1015.9 |
| 20260903053013 | 70 | 11 | 0.0 | 0.0 | 0.03 | 0.05 | 0.03 | 96 | 1015.7 |
| 20260903052913 | 70 | 12 | 0.0 | 0.0 | 0.02 | 0.04 | 0.03 | 96 | 1015.8 |
| 20260903052811 | 70 | 35 | 0.0 | 0.0 | 0.02 | 0.04 | 0.02 | 96 | 1015.8 |
| 20260903052711 | 70 | 35 | 0.0 | 0.0 | 0.02 | 0.04 | 0.02 | 96 | 1015.9 |
| 20260903052623 | 70 | 37 | 0.0 | 0.0 | 0.01 | 0.03 | 0.02 | 96 | 1015.9 |
| 20260903052611 | 70 | 96 | 0.0 | 0.0 | 0.01 | 0.03 | 0.02 | 96 | 1015.9 |
| 20260903052520 | 70 | 22 | 0.0 | 0.0 | 0.01 | 0.03 | 0.01 | 96 | 1016.0 |
| 20260903052510 | 70 | 22 | 0.0 | 0.0 | 0.01 | 0.03 | 0.01 | 96 | 1015.9 |
| 20260903052410 | 70 | 355 | 0.0 | 0.0 | 0.01 | 0.03 | 0.01 | 96 | 1015.9 |
| 20260903052309 | 70 | 67 | 0.0 | 0.0 | 0.01 | 0.03 | 0.01 | 96 | 1016.0 |
| 20260903052208 | 70 | 102 | 0.0 | 0.0 | 0.01 | 0.03 | 0.01 | 96 | 1016.1 |
| 20260903052107 | 70 | 102 | 0.0 | 0.0 | 0.01 | 0.03 | 0.01 | 96 | 1016.1 |
| 20260903052021 | 70 | 102 | 0.0 | 0.0 | 0.00 | 0.02 | 0.00 | 96 | 1016.1 |
| 20260903052016 | 70 | 102 | 0.0 | 0.0 | 0.01 | 0.03 | 0.01 | 96 | 1016.1 |
| 20260903051807 | 70 | 102 | 0.0 | 0.0 | 0.00 | 0.02 | 0.00 | 96 | 1016.0 |
| 20260903051707 | 70 | 102 | 0.0 | 0.0 | 0.00 | 0.02 | 0.00 | 96 | 1016.0 |
| 20260903051606 | 70 | 102 | 0.0 | 0.0 | 0.00 | 0.02 | 0.00 | 96 | 1016.0 |
| 20260903051520 | 70 | 102 | 0.0 | 0.0 | 0.00 | 0.02 | 0.00 | 96 | 1016.1 |
| 20260903051506 | 70 | 102 | 0.0 | 0.0 | 0.00 | 0.02 | 0.00 | 96 | 1016.0 |
| 20260903051405 | 70 | 102 | 0.0 | 0.0 | 0.00 | 0.02 | 0.00 | 95 | 1016.0 |
| 20260903051305 | 70 | 102 | 0.0 | 0.0 | 0.00 | 0.02 | 0.00 | 95 | 1016.0 |
| 20260903051223 | 70 | 102 | 0.0 | 0.0 | 0.00 | 0.02 | 0.00 | 95 | 1015.9 |
| 20260903051219 | 70 | 102 | 0.0 | 0.0 | 0.00 | 0.02 | 0.00 | 95 | 1016.0 |
| 20260903051210 | 70 | 102 | 0.0 | 0.0 | 0.00 | 0.02 | 0.00 | 95 | 1016.0 |
| 20260903051020 | 70 | 102 | 0.0 | 0.0 | 0.00 | 0.02 | 0.00 | 95 | 1016.1 |
| 20260903051004 | 70 | 102 | 0.0 | 0.0 | 0.00 | 0.02 | 0.00 | 95 | 1016.0 |
| 20260903050903 | 70 | 102 | 0.0 | 0.0 | 0.00 | 0.02 | 0.00 | 95 | 1015.9 |
| 20260903050802 | 70 | 102 | 0.0 | 0.0 | 0.00 | 0.02 | 0.00 | 95 | 1015.9 |
| 20260903050702 | 70 | 102 | 0.0 | 0.0 | 0.00 | 0.02 | 0.00 | 95 | 1015.9 |
| 20260903050620 | 70 | 102 | 0.0 | 0.0 | 0.00 | 0.02 | 0.00 | 95 | 1015.9 |
| 20260903050601 | 70 | 102 | 0.0 | 0.0 | 0.00 | 0.02 | 0.00 | 95 | 1015.9 |
| 20260903050520 | 70 | 102 | 0.0 | 0.0 | 0.00 | 0.02 | 0.00 | 95 | 1015.9 |
| 20260903050513 | 70 | 102 | 0.0 | 0.0 | 0.00 | 0.02 | 0.00 | 96 | 1015.8 |
| 20260903050509 | 70 | 102 | 0.0 | 0.0 | 0.00 | 0.02 | 0.00 | 96 | 1015.8 |
| 20260903050300 | 70 | 102 | 0.0 | 0.0 | 0.00 | 0.02 | 0.00 | 96 | 1015.8 |
| 20260903050159 | 70 | 102 | 0.0 | 0.0 | 0.00 | 0.02 | 0.00 | 96 | 1015.7 |
| 20260903050118 | 70 | 102 | 0.0 | 0.0 | 0.00 | 0.02 | 0.00 | 96 | 1015.7 |
| 20260903050100 | 70 | 102 | 0.0 | 0.0 | 0.00 | 0.02 | 0.00 | 96 | 1015.8 |
| 20260903050020 | 70 | 102 | 0.0 | 0.0 | 0.00 | 0.02 | 0.00 | 95 | 1015.9 |
| 20260903045958 | 70 | 102 | 0.0 | 0.0 | 0.00 | 0.02 | 0.00 | 95 | 1015.8 |
| 20260903045924 | 70 | 102 | 0.0 | 0.0 | 0.00 | 0.02 | 0.00 | 95 | 1015.9 |
| 20260903045859 | 70 | 102 | 0.0 | 0.0 | 0.00 | 0.02 | 0.00 | 95 | 1015.8 |
| 20260903045826 | 70 | 102 | 0.0 | 0.0 | 0.00 | 0.02 | 0.00 | 95 | 1015.9 |
| 20260903045820 | 70 | 102 | 0.0 | 0.0 | 0.00 | 0.02 | 0.00 | 95 | 1015.9 |
| 20260903045811 | 70 | 102 | 0.0 | 0.0 | 0.00 | 0.02 | 0.00 | 95 | 1015.9 |
| 20260903045520 | 70 | 102 | 0.0 | 0.0 | 0.00 | 0.02 | 0.00 | 96 | 1016.0 |
| 20260903045455 | 70 | 102 | 0.0 | 0.0 | 0.00 | 0.02 | 0.00 | 96 | 1015.9 |
| 20260903045355 | 70 | 102 | 0.0 | 0.0 | 0.00 | 0.02 | 0.00 | 96 | 1015.9 |
| 20260903045256 | 70 | 102 | 0.0 | 0.0 | 0.00 | 0.02 | 0.00 | 96 | 1015.9 |
| 20260903045154 | 70 | 102 | 0.0 | 0.0 | 0.00 | 0.02 | 0.00 | 95 | 1015.8 |
| 20260903045117 | 70 | 102 | 0.0 | 0.0 | 0.00 | 0.02 | 0.00 | 96 | 1015.8 |
| 20260903045054 | 70 | 102 | 0.0 | 0.0 | 0.00 | 0.02 | 0.00 | 96 | 1015.7 |
| 20260903045020 | 70 | 102 | 0.0 | 0.0 | 0.00 | 0.02 | 0.00 | 95 | 1015.8 |
| 20260903045012 | 70 | 102 | 0.0 | 0.0 | 0.00 | 0.02 | 0.00 | 95 | 1015.7 |
| 20260903045008 | 70 | 102 | 0.0 | 0.0 | 0.00 | 0.02 | 0.00 | 95 | 1015.7 |
| 20260903044752 | 70 | 102 | 0.0 | 0.0 | 0.00 | 0.02 | 0.00 | 95 | 1015.7 |
| 20260903044723 | 70 | 102 | 0.0 | 0.0 | 0.00 | 0.02 | 0.00 | 95 | 1015.7 |
| 20260903044719 | 70 | 102 | 0.0 | 0.0 | 0.00 | 0.02 | 0.00 | 96 | 1015.7 |
| 20260903044705 | 70 | 102 | 0.0 | 0.0 | 0.00 | 0.02 | 0.00 | 95 | 1015.7 |
| 20260903044520 | 70 | 102 | 0.0 | 0.0 | 0.00 | 0.02 | 0.00 | 96 | 1015.8 |
| 20260903044349 | 70 | 102 | 0.0 | 0.0 | 0.00 | 0.02 | 0.00 | 96 | 1015.7 |
| 20260903044249 | 70 | 102 | 0.0 | 0.0 | 0.00 | 0.02 | 0.00 | 96 | 1015.6 |
| 20260903044148 | 70 | 102 | 0.0 | 0.0 | 0.00 | 0.02 | 0.00 | 96 | 1015.6 |
| 20260903044117 | 70 | 102 | 0.0 | 0.0 | 0.00 | 0.02 | 0.00 | 96 | 1015.6 |
| 20260903044100 | 70 | 102 | 0.0 | 0.0 | 0.00 | 0.02 | 0.00 | 95 | 1015.5 |
| 20260903044056 | 70 | 102 | 0.0 | 0.0 | 0.00 | 0.02 | 0.00 | 95 | 1015.5 |
| 20260903044020 | 70 | 102 | 0.0 | 0.0 | 0.00 | 0.02 | 0.00 | 95 | 1015.6 |
| 20260903043847 | 70 | 102 | 0.0 | 0.0 | 0.00 | 0.02 | 0.00 | 95 | 1015.5 |
| 20260903043835 | 70 | 102 | 0.0 | 0.0 | 0.00 | 0.02 | 0.00 | 95 | 1015.3 |
| 20260903043746 | 70 | 102 | 0.0 | 0.0 | 0.00 | 0.02 | 0.00 | 95 | 1015.4 |
| 20260903043722 | 70 | 102 | 0.0 | 0.0 | 0.00 | 0.02 | 0.00 | 95 | 1015.3 |
| 20260903043545 | 70 | 102 | 0.0 | 0.0 | 0.00 | 0.02 | 0.00 | 95 | 1015.3 |
| 20260903043520 | 70 | 102 | 0.0 | 0.0 | 0.00 | 0.02 | 0.00 | 95 | 1015.3 |
| 20260903043444 | 70 | 102 | 0.0 | 0.0 | 0.00 | 0.02 | 0.00 | 95 | 1015.2 |
| 20260903043344 | 70 | 102 | 0.0 | 0.0 | 0.00 | 0.02 | 0.00 | 95 | 1015.2 |
| 20260903043244 | 70 | 102 | 0.0 | 0.0 | 0.00 | 0.02 | 0.00 | 95 | 1015.3 |
| 20260903043114 | 70 | 102 | 0.0 | 0.0 | 0.00 | 0.02 | 0.00 | 95 | 1015.2 |
| 20260903043043 | 70 | 102 | 0.0 | 0.0 | 0.00 | 0.02 | 0.00 | 95 | 1015.2 |
| 20260903043020 | 70 | 102 | 0.0 | 0.0 | 0.00 | 0.02 | 0.00 | 95 | 1015.4 |
| 20260903043008 | 70 | 102 | 0.0 | 0.0 | 0.00 | 0.02 | 0.00 | 95 | 1015.3 |
| 20260903042855 | 70 | 117 | 0.0 | 0.0 | 0.00 | 0.02 | 0.00 | 95 | 1015.3 |
| 20260903042850 | 70 | 102 | 0.0 | 0.0 | 0.00 | 0.02 | 0.00 | 95 | 1015.3 |
| 20260903042720 | 70 | 109 | 0.0 | 0.0 | 0.00 | 0.02 | 0.00 | 95 | 1015.3 |
| 20260903042540 | 70 | 104 | 0.0 | 0.0 | 0.00 | 0.02 | 0.00 | 95 | 1015.4 |
| 20260903042520 | 70 | 104 | 0.0 | 0.0 | 0.00 | 0.02 | 0.00 | 95 | 1015.5 |
| 20260903042439 | 70 | 104 | 0.0 | 0.0 | 0.00 | 0.02 | 0.00 | 95 | 1015.4 |
| 20260903042339 | 70 | 104 | 0.0 | 0.0 | 0.00 | 0.02 | 0.00 | 95 | 1015.5 |
| 20260903042238 | 70 | 104 | 0.0 | 0.0 | 0.00 | 0.02 | 0.00 | 95 | 1015.6 |
| 20260903042111 | 70 | 104 | 0.0 | 0.0 | 0.00 | 0.02 | 0.00 | 95 | 1015.6 |
| 20260903042104 | 70 | 104 | 0.0 | 0.0 | 0.00 | 0.02 | 0.00 | 95 | 1015.5 |
| 20260903042058 | 70 | 104 | 0.0 | 0.0 | 0.00 | 0.02 | 0.00 | 95 | 1015.5 |
| 20260903042054 | 70 | 104 | 0.0 | 0.0 | 0.00 | 0.02 | 0.00 | 95 | 1015.6 |
| 20260903042020 | 70 | 104 | 0.0 | 0.0 | 0.00 | 0.02 | 0.00 | 95 | 1015.6 |
| 20260903041735 | 70 | 104 | 0.0 | 0.0 | 0.00 | 0.02 | 0.00 | 95 | 1015.5 |
| 20260903041611 | 70 | 104 | 0.0 | 0.0 | 0.00 | 0.02 | 0.00 | 95 | 1015.5 |
| 20260903041535 | 70 | 104 | 0.0 | 0.0 | 0.00 | 0.02 | 0.00 | 95 | 1015.5 |
| 20260903041520 | 70 | 104 | 0.0 | 0.0 | 0.00 | 0.02 | 0.00 | 95 | 1015.6 |
| 20260903041434 | 70 | 104 | 0.0 | 0.0 | 0.00 | 0.02 | 0.00 | 95 | 1015.5 |
| 20260903041334 | 70 | 104 | 0.0 | 0.0 | 0.00 | 0.02 | 0.00 | 95 | 1015.4 |
| 20260903041234 | 70 | 104 | 0.0 | 0.0 | 0.00 | 0.02 | 0.00 | 95 | 1015.5 |
| 20260903041152 | 70 | 104 | 0.0 | 0.0 | 0.00 | 0.02 | 0.00 | 95 | 1015.5 |
| 20260903041041 | 70 | 104 | 0.0 | 0.0 | 0.00 | 0.02 | 0.00 | 95 | 1015.4 |
| 20260903041020 | 70 | 104 | 0.0 | 0.0 | 0.00 | 0.02 | 0.00 | 95 | 1015.5 |
| 20260903040831 | 70 | 104 | 0.0 | 0.0 | 0.00 | 0.02 | 0.00 | 95 | 1015.4 |
| 20260903040730 | 70 | 104 | 0.0 | 0.0 | 0.00 | 0.02 | 0.00 | 95 | 1015.4 |
| 20260903040630 | 70 | 104 | 0.0 | 0.0 | 0.00 | 0.02 | 0.00 | 95 | 1015.5 |
| 20260903040611 | 70 | 103 | 0.0 | 0.0 | 0.00 | 0.02 | 0.00 | 95 | 1015.5 |
| 20260903040550 | 70 | 84 | 0.0 | 0.0 | 0.00 | 0.02 | 0.00 | 95 | 1015.6 |
| 20260903040529 | 70 | 91 | 0.0 | 0.0 | 0.00 | 0.02 | 0.00 | 95 | 1015.5 |
| 20260903040429 | 70 | 84 | 0.0 | 0.0 | 0.00 | 0.02 | 0.00 | 95 | 1015.5 |
| 20260903040328 | 70 | 84 | 0.0 | 0.0 | 0.00 | 0.02 | 0.00 | 95 | 1015.5 |
| 20260903040228 | 70 | 84 | 0.0 | 0.0 | 0.00 | 0.02 | 0.00 | 95 | 1015.6 |
| 20260903040111 | 70 | 84 | 0.0 | 0.0 | 0.00 | 0.02 | 0.00 | 95 | 1015.6 |
| 20260903040027 | 70 | 83 | 0.0 | 0.0 | 0.00 | 0.02 | 0.00 | 95 | 1015.6 |
| 20260903040020 | 70 | 83 | 0.0 | 0.0 | 0.00 | 0.02 | 0.00 | 95 | 1015.6 |
| 20260903035927 | 70 | 83 | 0.0 | 0.0 | 0.00 | 0.02 | 0.02 | 95 | 1015.5 |
| 20260903035824 | 70 | 83 | 0.0 | 0.0 | 0.00 | 0.02 | 0.02 | 95 | 1015.6 |
| 20260903035724 | 70 | 83 | 0.0 | 0.0 | 0.00 | 0.02 | 0.02 | 95 | 1015.5 |
| 20260903035610 | 70 | 84 | 0.0 | 0.0 | 0.00 | 0.02 | 0.02 | 95 | 1015.5 |
| 20260903035522 | 70 | 84 | 0.0 | 0.0 | 0.00 | 0.02 | 0.02 | 95 | 1015.7 |
| 20260903035520 | 70 | 84 | 0.0 | 0.0 | 0.00 | 0.02 | 0.02 | 95 | 1015.9 |
| 20260903035422 | 70 | 84 | 0.0 | 0.0 | 0.00 | 0.02 | 0.02 | 95 | 1015.8 |
| 20260903035354 | 70 | 84 | 0.0 | 0.0 | 0.00 | 0.02 | 0.02 | 95 | 1015.9 |
| 20260903035322 | 70 | 84 | 0.0 | 0.0 | 0.00 | 0.02 | 0.02 | 95 | 1015.8 |
| 20260903035249 | 70 | 84 | 0.0 | 0.0 | 0.00 | 0.02 | 0.02 | 95 | 1016.0 |
| 20260903035244 | 70 | 84 | 0.0 | 0.0 | 0.00 | 0.02 | 0.02 | 95 | 1015.9 |
| 20260903035235 | 70 | 84 | 0.0 | 0.0 | 0.00 | 0.02 | 0.02 | 95 | 1015.9 |
| 20260903035020 | 70 | 84 | 0.0 | 0.0 | 0.00 | 0.02 | 0.02 | 95 | 1016.1 |
| 20260903034920 | 70 | 84 | 0.0 | 0.0 | 0.00 | 0.02 | 0.02 | 95 | 1016.0 |
| 20260903034820 | 70 | 84 | 0.0 | 0.0 | 0.00 | 0.02 | 0.02 | 95 | 1016.0 |
| 20260903034719 | 70 | 84 | 0.0 | 0.0 | 0.00 | 0.02 | 0.02 | 95 | 1016.1 |
| 20260903034609 | 70 | 84 | 0.0 | 0.0 | 0.00 | 0.02 | 0.02 | 95 | 1016.0 |
| 20260903034541 | 70 | 84 | 0.0 | 0.0 | 0.00 | 0.02 | 0.02 | 95 | 1016.0 |
| 20260903034520 | 70 | 84 | 0.0 | 0.0 | 0.00 | 0.02 | 0.02 | 95 | 1016.2 |
| 20260903034428 | 70 | 84 | 0.0 | 0.0 | 0.00 | 0.02 | 0.02 | 95 | 1016.1 |
| 20260903034217 | 70 | 84 | 0.0 | 0.0 | 0.00 | 0.02 | 0.02 | 95 | 1016.1 |
| 20260903034135 | 70 | 84 | 0.0 | 0.0 | 0.00 | 0.02 | 0.02 | 95 | 1016.1 |
| 20260903034123 | 70 | 84 | 0.0 | 0.0 | 0.00 | 0.02 | 0.02 | 95 | 1016.0 |
| 20260903034020 | 70 | 84 | 0.0 | 0.0 | 0.00 | 0.02 | 0.02 | 95 | 1016.1 |
| 20260903033916 | 70 | 84 | 0.0 | 0.0 | 0.00 | 0.02 | 0.02 | 95 | 1016.0 |
| 20260903033815 | 70 | 84 | 0.0 | 0.0 | 0.00 | 0.02 | 0.02 | 95 | 1016.0 |
| 20260903033715 | 70 | 84 | 0.0 | 0.0 | 0.00 | 0.02 | 0.02 | 95 | 1015.9 |
| 20260903033607 | 70 | 84 | 0.0 | 0.0 | 0.00 | 0.02 | 0.02 | 95 | 1016.0 |
| 20260903033520 | 70 | 84 | 0.0 | 0.0 | 0.00 | 0.02 | 0.02 | 95 | 1016.1 |
| 20260903033514 | 70 | 84 | 0.0 | 0.0 | 0.00 | 0.02 | 0.02 | 95 | 1016.0 |
| 20260903033413 | 70 | 84 | 0.0 | 0.0 | 0.00 | 0.02 | 0.02 | 95 | 1016.0 |
| 20260903033313 | 70 | 84 | 0.0 | 0.0 | 0.00 | 0.02 | 0.02 | 95 | 1016.0 |
| 20260903033212 | 70 | 84 | 0.0 | 0.0 | 0.00 | 0.02 | 0.02 | 95 | 1015.9 |
| 20260903033108 | 70 | 84 | 0.0 | 0.0 | 0.00 | 0.02 | 0.02 | 95 | 1015.9 |
| 20260903033020 | 70 | 72 | 0.0 | 0.0 | 0.00 | 0.02 | 0.02 | 95 | 1015.9 |
| 20260903033011 | 70 | 72 | 0.0 | 0.0 | 0.00 | 0.02 | 0.02 | 95 | 1015.9 |
| 20260903032910 | 70 | 72 | 0.0 | 0.0 | 0.00 | 0.02 | 0.02 | 95 | 1015.8 |
| 20260903032810 | 70 | 72 | 0.0 | 0.0 | 0.00 | 0.02 | 0.02 | 95 | 1015.8 |
| 20260903032709 | 70 | 69 | 0.0 | 0.0 | 0.00 | 0.02 | 0.02 | 95 | 1015.9 |
| 20260903032610 | 70 | 70 | 0.0 | 0.0 | 0.00 | 0.02 | 0.02 | 95 | 1015.8 |
| 20260903032520 | 70 | 65 | 0.0 | 0.0 | 0.00 | 0.02 | 0.02 | 95 | 1016.0 |
| 20260903032508 | 70 | 65 | 0.0 | 0.0 | 0.00 | 0.02 | 0.02 | 95 | 1015.9 |
| 20260903032420 | 70 | 112 | 0.0 | 0.0 | 0.00 | 0.02 | 0.02 | 95 | 1015.8 |
| 20260903032416 | 70 | 88 | 0.0 | 0.0 | 0.00 | 0.02 | 0.02 | 95 | 1015.9 |
| 20260903032206 | 70 | 112 | 0.0 | 0.0 | 0.00 | 0.02 | 0.02 | 95 | 1015.7 |
| 20260903032106 | 70 | 112 | 0.0 | 0.0 | 0.00 | 0.02 | 0.02 | 95 | 1015.7 |
| 20260903032020 | 70 | 112 | 0.0 | 0.0 | 0.00 | 0.02 | 0.02 | 95 | 1015.8 |
| 20260903032005 | 70 | 112 | 0.0 | 0.0 | 0.00 | 0.02 | 0.02 | 95 | 1015.7 |
| 20260903031918 | 70 | 112 | 0.0 | 0.0 | 0.00 | 0.02 | 0.02 | 95 | 1015.7 |
| 20260903031914 | 70 | 112 | 0.0 | 0.0 | 0.00 | 0.02 | 0.02 | 95 | 1015.6 |
| 20260903031704 | 70 | 40 | 0.0 | 0.0 | 0.00 | 0.02 | 0.02 | 95 | 1015.7 |
| 20260903031604 | 70 | 40 | 0.0 | 0.0 | 0.00 | 0.02 | 0.02 | 95 | 1015.7 |
| 20260903031530 | 70 | 40 | 0.0 | 0.0 | 0.00 | 0.02 | 0.02 | 95 | 1015.6 |
| 20260903031525 | 70 | 40 | 0.0 | 0.0 | 0.00 | 0.02 | 0.02 | 95 | 1015.6 |
| 20260903031520 | 70 | 40 | 0.0 | 0.0 | 0.00 | 0.02 | 0.02 | 95 | 1015.8 |
| 20260903031202 | 70 | 40 | 0.0 | 0.0 | 0.00 | 0.02 | 0.02 | 95 | 1015.6 |
| 20260903031107 | 70 | 40 | 0.0 | 0.0 | 0.00 | 0.02 | 0.02 | 95 | 1015.5 |
| 20260903031101 | 70 | 40 | 0.0 | 0.0 | 0.00 | 0.02 | 0.02 | 95 | 1015.5 |
| 20260903031021 | 70 | 69 | 0.0 | 0.0 | 0.00 | 0.02 | 0.02 | 95 | 1015.6 |
| 20260903031001 | 70 | 78 | 0.0 | 0.0 | 0.00 | 0.02 | 0.02 | 95 | 1015.5 |
| 20260903030913 | 70 | 119 | 0.0 | 0.0 | 0.00 | 0.02 | 0.02 | 95 | 1015.5 |
| 20260903030909 | 70 | 119 | 0.0 | 0.0 | 0.00 | 0.02 | 0.02 | 95 | 1015.5 |
| 20260903030700 | 70 | 119 | 0.0 | 0.0 | 0.00 | 0.02 | 0.02 | 95 | 1015.5 |
| 20260903030605 | 70 | 94 | 0.0 | 0.0 | 0.00 | 0.02 | 0.02 | 95 | 1015.4 |
| 20260903030559 | 70 | 94 | 0.0 | 0.0 | 0.00 | 0.02 | 0.02 | 95 | 1015.4 |
| 20260903030520 | 70 | 94 | 0.0 | 0.0 | 0.00 | 0.02 | 0.02 | 95 | 1015.5 |
| 20260903030511 | 70 | 107 | 0.0 | 0.0 | 0.00 | 0.02 | 0.02 | 95 | 1015.4 |
| 20260903030507 | 70 | 94 | 0.0 | 0.0 | 0.00 | 0.02 | 0.02 | 95 | 1015.4 |
| 20260903030256 | 70 | 107 | 0.0 | 0.0 | 0.00 | 0.02 | 0.02 | 95 | 1015.4 |
| 20260903030156 | 70 | 107 | 0.0 | 0.0 | 0.00 | 0.02 | 0.02 | 95 | 1015.4 |
| 20260903030105 | 70 | 107 | 0.0 | 0.0 | 0.00 | 0.02 | 0.02 | 95 | 1015.4 |
| 20260903030055 | 70 | 107 | 0.0 | 0.0 | 0.00 | 0.02 | 0.02 | 95 | 1015.4 |
| 20260903030020 | 70 | 96 | 0.0 | 0.0 | 0.00 | 0.02 | 0.02 | 95 | 1015.5 |
| 20260903025955 | 70 | 96 | 0.0 | 0.0 | 0.00 | 0.02 | 0.02 | 95 | 1015.4 |
| 20260903025853 | 70 | 137 | 0.0 | 0.0 | 0.00 | 0.02 | 0.02 | 95 | 1015.4 |
| 20260903025752 | 70 | 126 | 0.0 | 0.0 | 0.00 | 0.02 | 0.02 | 95 | 1015.4 |
| 20260903025651 | 70 | 141 | 0.0 | 0.0 | 0.00 | 0.02 | 0.02 | 95 | 1015.4 |
| 20260903025604 | 70 | 141 | 0.0 | 0.0 | 0.00 | 0.02 | 0.02 | 95 | 1015.4 |
| 20260903025550 | 70 | 141 | 0.0 | 0.0 | 0.00 | 0.02 | 0.02 | 95 | 1015.4 |
| 20260903025520 | 70 | 141 | 0.0 | 0.0 | 0.00 | 0.02 | 0.02 | 95 | 1015.5 |
| 20260903025449 | 70 | 141 | 0.0 | 0.0 | 0.00 | 0.02 | 0.02 | 95 | 1015.4 |
| 20260903025347 | 70 | 141 | 0.0 | 0.0 | 0.00 | 0.02 | 0.02 | 95 | 1015.5 |
| 20260903025323 | 70 | 163 | 0.0 | 0.0 | 0.00 | 0.02 | 0.02 | 95 | 1015.6 |
| 20260903025247 | 70 | 141 | 0.0 | 0.0 | 0.00 | 0.02 | 0.02 | 95 | 1015.5 |
| 20260903025212 | 70 | 148 | 0.0 | 0.0 | 0.00 | 0.02 | 0.02 | 95 | 1015.5 |
| 20260903025046 | 70 | 163 | 0.0 | 0.0 | 0.00 | 0.02 | 0.02 | 95 | 1015.6 |
| 20260903025020 | 70 | 163 | 0.0 | 0.0 | 0.00 | 0.02 | 0.02 | 95 | 1015.6 |
| 20260903024958 | 70 | 163 | 0.0 | 0.0 | 0.00 | 0.02 | 0.02 | 95 | 1015.5 |
| 20260903024954 | 70 | 163 | 0.0 | 0.0 | 0.00 | 0.02 | 0.02 | 95 | 1015.5 |
| 20260903024823 | 70 | 96 | 0.0 | 0.0 | 0.00 | 0.02 | 0.02 | 95 | 1015.5 |
| 20260903024745 | 70 | 163 | 0.0 | 0.0 | 0.00 | 0.02 | 0.02 | 95 | 1015.6 |
| 20260903024710 | 70 | 163 | 0.0 | 0.0 | 0.00 | 0.02 | 0.02 | 95 | 1015.5 |
| 20260903024545 | 70 | 96 | 0.0 | 0.0 | 0.00 | 0.02 | 0.02 | 95 | 1015.5 |
| 20260903024521 | 70 | 96 | 0.0 | 0.0 | 0.00 | 0.02 | 0.02 | 95 | 1015.7 |
| 20260903024444 | 70 | 96 | 0.0 | 0.0 | 0.00 | 0.02 | 0.02 | 95 | 1015.6 |
| 20260903024356 | 70 | 106 | 0.0 | 0.0 | 0.00 | 0.02 | 0.02 | 95 | 1015.6 |
| 20260903024352 | 70 | 96 | 0.0 | 0.0 | 0.00 | 0.02 | 0.02 | 95 | 1015.5 |
| 20260903024141 | 70 | 106 | 0.0 | 0.0 | 0.00 | 0.02 | 0.02 | 95 | 1015.6 |
| 20260903024040 | 70 | 106 | 0.0 | 0.0 | 0.00 | 0.02 | 0.02 | 95 | 1015.6 |
| 20260903024020 | 70 | 106 | 0.0 | 0.0 | 0.00 | 0.02 | 0.02 | 95 | 1015.7 |
| 20260903023941 | 70 | 106 | 0.0 | 0.0 | 0.00 | 0.02 | 0.02 | 95 | 1015.6 |
| 20260903023928 | 70 | 106 | 0.0 | 0.0 | 0.00 | 0.02 | 0.02 | 95 | 1015.6 |
| 20260903023739 | 70 | 96 | 0.0 | 0.0 | 0.00 | 0.02 | 0.02 | 95 | 1015.6 |
| 20260903023710 | 70 | 96 | 0.0 | 0.0 | 0.00 | 0.02 | 0.02 | 95 | 1015.6 |
| 20260903023537 | 70 | 96 | 0.0 | 0.0 | 0.00 | 0.02 | 0.02 | 95 | 1015.7 |
| 20260903023520 | 70 | 96 | 0.0 | 0.0 | 0.00 | 0.02 | 0.02 | 95 | 1015.8 |
| 20260903023437 | 70 | 95 | 0.0 | 0.0 | 0.00 | 0.02 | 0.02 | 95 | 1015.7 |
| 20260903023336 | 70 | 95 | 0.0 | 0.0 | 0.00 | 0.02 | 0.02 | 95 | 1015.7 |
| 20260903023236 | 70 | 95 | 0.0 | 0.0 | 0.00 | 0.02 | 0.02 | 95 | 1015.7 |
| 20260903023136 | 70 | 95 | 0.0 | 0.0 | 0.00 | 0.02 | 0.02 | 95 | 1015.8 |
| 20260903023035 | 70 | 95 | 0.0 | 0.0 | 0.00 | 0.02 | 0.02 | 95 | 1015.8 |
| 20260903023020 | 70 | 95 | 0.0 | 0.0 | 0.00 | 0.02 | 0.02 | 95 | 1015.9 |
| 20260903022938 | 70 | 95 | 0.0 | 0.0 | 0.00 | 0.02 | 0.02 | 95 | 1015.8 |
| 20260903022929 | 70 | 104 | 0.0 | 0.0 | 0.00 | 0.02 | 0.02 | 95 | 1015.8 |
| 20260903022734 | 70 | 104 | 0.0 | 0.0 | 0.00 | 0.02 | 0.02 | 95 | 1015.9 |
| 20260903022708 | 70 | 104 | 0.0 | 0.0 | 0.00 | 0.02 | 0.02 | 95 | 1015.8 |
| 20260903022533 | 70 | 75 | 0.0 | 0.0 | 0.00 | 0.02 | 0.02 | 95 | 1015.8 |
| 20260903022520 | 70 | 62 | 0.0 | 0.0 | 0.00 | 0.02 | 0.02 | 95 | 1015.8 |
| 20260903022430 | 70 | 63 | 0.0 | 0.0 | 0.00 | 0.02 | 0.02 | 95 | 1015.7 |
| 20260903022330 | 70 | 98 | 0.0 | 0.0 | 0.00 | 0.02 | 0.02 | 95 | 1015.6 |
| 20260903022230 | 70 | 93 | 0.0 | 0.0 | 0.00 | 0.02 | 0.02 | 95 | 1015.6 |
| 20260903022129 | 70 | 98 | 0.0 | 0.0 | 0.00 | 0.02 | 0.02 | 95 | 1015.6 |
| 20260903022059 | 70 | 94 | 0.0 | 0.0 | 0.00 | 0.02 | 0.02 | 95 | 1015.6 |
| 20260903022030 | 70 | 86 | 0.0 | 0.0 | 0.00 | 0.02 | 0.02 | 95 | 1015.6 |
| 20260903022021 | 70 | 88 | 0.0 | 0.0 | 0.00 | 0.02 | 0.02 | 95 | 1015.7 |
| 20260903021944 | 70 | 75 | 0.0 | 0.0 | 0.00 | 0.02 | 0.02 | 95 | 1015.6 |
| 20260903021938 | 70 | 75 | 0.0 | 0.0 | 0.00 | 0.02 | 0.02 | 95 | 1015.6 |
| 20260903021818 | 70 | 84 | 0.0 | 0.0 | 0.00 | 0.02 | 0.02 | 95 | 1015.4 |
| 20260903021729 | 70 | 76 | 0.0 | 0.0 | 0.00 | 0.02 | 0.02 | 95 | 1015.6 |
| 20260903021705 | 70 | 111 | 0.0 | 0.0 | 0.00 | 0.02 | 0.02 | 95 | 1015.5 |
| 20260903021528 | 70 | 95 | 0.0 | 0.0 | 0.00 | 0.02 | 0.02 | 95 | 1015.4 |
| 20260903021520 | 70 | 95 | 0.0 | 0.0 | 0.00 | 0.02 | 0.02 | 95 | 1015.6 |
| 20260903021427 | 70 | 90 | 0.0 | 0.0 | 0.00 | 0.02 | 0.02 | 95 | 1015.5 |
| 20260903021327 | 70 | 94 | 0.0 | 0.0 | 0.00 | 0.02 | 0.02 | 95 | 1015.5 |
| 20260903021226 | 70 | 103 | 0.0 | 0.0 | 0.00 | 0.02 | 0.02 | 95 | 1015.7 |
| 20260903021140 | 70 | 103 | 0.0 | 0.0 | 0.00 | 0.02 | 0.02 | 95 | 1015.8 |
| 20260903021132 | 70 | 103 | 0.0 | 0.0 | 0.00 | 0.02 | 0.02 | 95 | 1015.9 |
| 20260903021020 | 70 | 103 | 0.0 | 0.0 | 0.00 | 0.02 | 0.02 | 95 | 1016.0 |
| 20260903020925 | 70 | 103 | 0.0 | 0.0 | 0.00 | 0.02 | 0.02 | 95 | 1015.9 |
| 20260903020825 | 70 | 103 | 0.0 | 0.0 | 0.00 | 0.02 | 0.02 | 95 | 1015.9 |
| 20260903020723 | 70 | 103 | 0.0 | 0.0 | 0.00 | 0.02 | 0.02 | 95 | 1015.8 |
| 20260903020621 | 70 | 103 | 0.0 | 0.0 | 0.00 | 0.02 | 0.02 | 95 | 1015.7 |
| 20260903020556 | 70 | 103 | 0.0 | 0.0 | 0.00 | 0.02 | 0.02 | 95 | 1015.6 |
| 20260903020521 | 70 | 114 | 0.0 | 0.0 | 0.00 | 0.02 | 0.02 | 95 | 1015.6 |
| 20260903020420 | 70 | 115 | 0.0 | 0.0 | 0.00 | 0.02 | 0.02 | 95 | 1015.6 |
| 20260903020320 | 70 | 48 | 0.0 | 0.0 | 0.00 | 0.02 | 0.02 | 95 | 1015.5 |
| 20260903020219 | 70 | 120 | 0.0 | 0.0 | 0.00 | 0.02 | 0.02 | 95 | 1015.5 |
| 20260903020119 | 70 | 101 | 0.0 | 0.0 | 0.00 | 0.02 | 0.02 | 95 | 1015.4 |
| 20260903020056 | 70 | 120 | 0.0 | 0.0 | 0.00 | 0.02 | 0.02 | 95 | 1015.4 |
| 20260903020020 | 70 | 115 | 0.0 | 0.0 | 0.00 | 0.02 | 0.02 | 95 | 1015.5 |
| 20260903015916 | 70 | 103 | 0.0 | 0.0 | 0.00 | 0.02 | 0.02 | 95 | 1015.4 |
| 20260903015830 | 70 | 103 | 0.0 | 0.0 | 0.00 | 0.02 | 0.02 | 95 | 1015.4 |
| 20260903015825 | 70 | 103 | 0.0 | 0.0 | 0.00 | 0.02 | 0.02 | 95 | 1015.4 |
| 20260903015615 | 70 | 103 | 0.0 | 0.0 | 0.00 | 0.02 | 0.02 | 95 | 1015.4 |
| 20260903015555 | 70 | 103 | 0.0 | 0.0 | 0.00 | 0.02 | 0.02 | 95 | 1015.4 |
| 20260903015520 | 70 | 103 | 0.0 | 0.0 | 0.00 | 0.02 | 0.02 | 94 | 1015.5 |
| 20260903015514 | 70 | 103 | 0.0 | 0.0 | 0.00 | 0.02 | 0.02 | 94 | 1015.4 |
| 20260903015412 | 70 | 103 | 0.0 | 0.0 | 0.00 | 0.02 | 0.02 | 94 | 1015.4 |
| 20260903015312 | 70 | 103 | 0.0 | 0.0 | 0.00 | 0.02 | 0.02 | 95 | 1015.4 |
| 20260903015223 | 70 | 103 | 0.0 | 0.0 | 0.00 | 0.02 | 0.02 | 94 | 1015.4 |
| 20260903015219 | 70 | 103 | 0.0 | 0.0 | 0.00 | 0.02 | 0.02 | 94 | 1015.4 |
| 20260903015053 | 70 | 103 | 0.0 | 0.0 | 0.00 | 0.02 | 0.02 | 95 | 1015.4 |
| 20260903015020 | 70 | 103 | 0.0 | 0.0 | 0.00 | 0.02 | 0.02 | 94 | 1015.5 |
| 20260903015009 | 70 | 103 | 0.0 | 0.0 | 0.00 | 0.02 | 0.02 | 94 | 1015.4 |
| 20260903014909 | 70 | 103 | 0.0 | 0.0 | 0.00 | 0.02 | 0.02 | 95 | 1015.4 |
| 20260903014821 | 70 | 99 | 0.0 | 0.0 | 0.00 | 0.02 | 0.02 | 95 | 1015.2 |
| 20260903014817 | 70 | 113 | 0.0 | 0.0 | 0.00 | 0.02 | 0.02 | 94 | 1015.3 |
| 20260903014608 | 70 | 207 | 0.0 | 0.0 | 0.00 | 0.02 | 0.02 | 94 | 1015.1 |
| 20260903014555 | 70 | 207 | 0.0 | 0.0 | 0.00 | 0.02 | 0.02 | 95 | 1015.1 |
| 20260903014520 | 70 | 82 | 0.0 | 0.0 | 0.00 | 0.02 | 0.02 | 94 | 1015.3 |
| 20260903014507 | 70 | 82 | 0.0 | 0.0 | 0.00 | 0.02 | 0.02 | 94 | 1015.2 |
| 20260903014419 | 70 | 108 | 0.0 | 0.0 | 0.00 | 0.02 | 0.02 | 95 | 1015.2 |
| 20260903014415 | 70 | 108 | 0.0 | 0.0 | 0.00 | 0.02 | 0.02 | 95 | 1015.2 |
| 20260903014207 | 70 | 108 | 0.0 | 0.0 | 0.00 | 0.02 | 0.02 | 95 | 1015.2 |
| 20260903014106 | 70 | 108 | 0.0 | 0.0 | 0.00 | 0.02 | 0.02 | 95 | 1015.3 |
| 20260903014053 | 70 | 108 | 0.0 | 0.0 | 0.00 | 0.02 | 0.02 | 95 | 1015.3 |
| 20260903014020 | 70 | 114 | 0.0 | 0.0 | 0.00 | 0.02 | 0.02 | 95 | 1015.4 |
| 20260903014006 | 70 | 110 | 0.0 | 0.0 | 0.00 | 0.02 | 0.02 | 95 | 1015.3 |
| 20260903013905 | 70 | 100 | 0.0 | 0.0 | 0.00 | 0.02 | 0.02 | 95 | 1015.3 |
| 20260903013805 | 70 | 105 | 0.0 | 0.0 | 0.00 | 0.02 | 0.02 | 95 | 1015.4 |
| 20260903013718 | 70 | 134 | 0.0 | 0.0 | 0.00 | 0.02 | 0.02 | 95 | 1015.4 |
| 20260903013712 | 70 | 103 | 0.0 | 0.0 | 0.00 | 0.02 | 0.02 | 95 | 1015.4 |
| 20260903013553 | 70 | 134 | 0.0 | 0.0 | 0.00 | 0.02 | 0.02 | 95 | 1015.4 |
| 20260903013520 | 70 | 104 | 0.0 | 0.0 | 0.00 | 0.02 | 0.02 | 95 | 1015.5 |
| 20260903013504 | 70 | 104 | 0.0 | 0.0 | 0.00 | 0.02 | 0.02 | 95 | 1015.4 |
| 20260903013402 | 70 | 69 | 0.0 | 0.0 | 0.00 | 0.02 | 0.02 | 95 | 1015.4 |
| 20260903013301 | 70 | 69 | 0.0 | 0.0 | 0.00 | 0.02 | 0.02 | 95 | 1015.3 |
| 20260903013201 | 70 | 120 | 0.0 | 0.0 | 0.00 | 0.02 | 0.02 | 95 | 1015.3 |
| 20260903013101 | 70 | 121 | 0.0 | 0.0 | 0.00 | 0.02 | 0.02 | 95 | 1015.3 |
| 20260903013052 | 70 | 114 | 0.0 | 0.0 | 0.00 | 0.02 | 0.02 | 95 | 1015.3 |
| 20260903013020 | 70 | 51 | 0.0 | 0.0 | 0.00 | 0.02 | 0.02 | 95 | 1015.3 |
| 20260903013000 | 70 | 51 | 0.0 | 0.0 | 0.00 | 0.02 | 0.02 | 95 | 1015.2 |
| 20260903012900 | 70 | 110 | 0.0 | 0.0 | 0.00 | 0.02 | 0.02 | 95 | 1015.2 |
| 20260903012759 | 70 | 123 | 0.0 | 0.0 | 0.00 | 0.02 | 0.02 | 95 | 1015.3 |
| 20260903012658 | 70 | 109 | 0.0 | 0.0 | 0.00 | 0.02 | 0.02 | 94 | 1015.3 |
| 20260903012551 | 70 | 104 | 0.0 | 0.0 | 0.00 | 0.02 | 0.02 | 94 | 1015.3 |
| 20260903012540 | 70 | 112 | 0.0 | 0.0 | 0.00 | 0.02 | 0.02 | 94 | 1015.4 |
| 20260903012535 | 70 | 107 | 0.0 | 0.0 | 0.00 | 0.02 | 0.02 | 94 | 1015.4 |
| 20260903012530 | 70 | 110 | 0.0 | 0.0 | 0.00 | 0.02 | 0.02 | 94 | 1015.3 |
| 20260903012525 | 70 | 109 | 0.0 | 0.0 | 0.00 | 0.02 | 0.02 | 94 | 1015.4 |
| 20260903012520 | 70 | 108 | 0.0 | 0.0 | 0.00 | 0.02 | 0.02 | 94 | 1015.5 |
| 20260903012049 | 70 | 103 | 0.0 | 0.0 | 0.00 | 0.02 | 0.02 | 94 | 1015.3 |
| 20260903012020 | 70 | 103 | 0.0 | 0.0 | 0.00 | 0.02 | 0.02 | 94 | 1015.5 |
| 20260903011957 | 70 | 103 | 0.0 | 0.0 | 0.00 | 0.02 | 0.02 | 94 | 1015.4 |
| 20260903011856 | 70 | 102 | 0.0 | 0.0 | 0.00 | 0.02 | 0.02 | 94 | 1015.4 |
| 20260903011756 | 70 | 103 | 0.0 | 0.0 | 0.00 | 0.02 | 0.02 | 94 | 1015.4 |
| 20260903011656 | 70 | 99 | 0.0 | 0.0 | 0.00 | 0.02 | 0.02 | 94 | 1015.4 |
| 20260903011615 | 70 | 107 | 0.0 | 0.0 | 0.00 | 0.02 | 0.02 | 94 | 1015.5 |
| 20260903011603 | 70 | 100 | 0.0 | 0.0 | 0.00 | 0.02 | 0.02 | 94 | 1015.5 |
| 20260903011535 | 70 | 107 | 0.0 | 0.0 | 0.00 | 0.02 | 0.02 | 94 | 1015.6 |
| 20260903011355 | 70 | 105 | 0.0 | 0.0 | 0.00 | 0.02 | 0.02 | 94 | 1015.5 |
| 20260903011317 | 70 | 103 | 0.0 | 0.0 | 0.00 | 0.02 | 0.02 | 94 | 1015.5 |
| 20260903011312 | 70 | 103 | 0.0 | 0.0 | 0.00 | 0.02 | 0.02 | 94 | 1015.6 |
| 20260903011303 | 70 | 102 | 0.0 | 0.0 | 0.00 | 0.02 | 0.02 | 94 | 1015.5 |
| 20260903011020 | 70 | 103 | 0.0 | 0.0 | 0.00 | 0.02 | 0.02 | 94 | 1015.7 |
| 20260903010952 | 70 | 103 | 0.0 | 0.0 | 0.00 | 0.02 | 0.02 | 94 | 1015.6 |
| 20260903010851 | 70 | 76 | 0.0 | 0.0 | 0.00 | 0.02 | 0.02 | 94 | 1015.6 |
| 20260903010750 | 70 | 76 | 0.0 | 0.0 | 0.00 | 0.02 | 0.02 | 94 | 1015.6 |
| 20260903010707 | 70 | 108 | 0.0 | 0.0 | 0.00 | 0.02 | 0.02 | 94 | 1015.7 |
| 20260903010701 | 70 | 76 | 0.0 | 0.0 | 0.00 | 0.02 | 0.02 | 94 | 1015.7 |
| 20260903010545 | 70 | 108 | 0.0 | 0.0 | 0.00 | 0.02 | 0.02 | 94 | 1015.7 |
| 20260903010520 | 70 | 124 | 0.0 | 0.0 | 0.00 | 0.02 | 0.02 | 94 | 1015.9 |
| 20260903010449 | 70 | 124 | 0.0 | 0.0 | 0.00 | 0.02 | 0.02 | 94 | 1015.8 |
| 20260903010349 | 70 | 124 | 0.0 | 0.0 | 0.00 | 0.02 | 0.02 | 94 | 1015.9 |
| 20260903010249 | 70 | 124 | 0.0 | 0.0 | 0.00 | 0.02 | 0.02 | 94 | 1015.8 |
| 20260903010147 | 70 | 124 | 0.0 | 0.0 | 0.00 | 0.02 | 0.02 | 94 | 1015.8 |
| 20260903010107 | 70 | 110 | 0.0 | 0.0 | 0.00 | 0.02 | 0.02 | 94 | 1015.9 |
| 20260903010054 | 70 | 124 | 0.0 | 0.0 | 0.00 | 0.02 | 0.02 | 94 | 1015.8 |
| 20260903010035 | 70 | 128 | 0.0 | 0.0 | 0.00 | 0.02 | 0.02 | 94 | 1016.0 |
| 20260903005845 | 70 | 92 | 0.0 | 0.0 | 0.00 | 0.02 | 0.02 | 94 | 1015.8 |
| 20260903005745 | 70 | 140 | 0.0 | 0.0 | 0.00 | 0.02 | 0.02 | 94 | 1015.8 |
| 20260903005645 | 70 | 64 | 0.0 | 0.0 | 0.00 | 0.02 | 0.02 | 94 | 1015.9 |
| 20260903005546 | 70 | 64 | 0.0 | 0.0 | 0.00 | 0.02 | 0.02 | 94 | 1015.9 |
| 20260903005521 | 70 | 64 | 0.0 | 0.0 | 0.00 | 0.02 | 0.02 | 94 | 1015.9 |
| 20260903005444 | 70 | 60 | 0.0 | 0.0 | 0.00 | 0.02 | 0.02 | 94 | 1015.8 |
| 20260903005342 | 70 | 64 | 0.0 | 0.0 | 0.00 | 0.02 | 0.02 | 94 | 1015.7 |
| 20260903005240 | 70 | 106 | 0.0 | 0.0 | 0.00 | 0.02 | 0.02 | 94 | 1015.7 |
| 20260903005140 | 70 | 82 | 0.0 | 0.0 | 0.00 | 0.02 | 0.02 | 94 | 1015.7 |
| 20260903005050 | 70 | 78 | 0.0 | 0.0 | 0.00 | 0.02 | 0.02 | 94 | 1015.8 |
| 20260903005040 | 70 | 78 | 0.0 | 0.0 | 0.00 | 0.02 | 0.02 | 94 | 1015.7 |
| 20260903004939 | 71 | 78 | 0.0 | 0.0 | 0.00 | 0.02 | 0.02 | 94 | 1015.7 |
| 20260903004839 | 71 | 78 | 0.0 | 0.0 | 0.00 | 0.02 | 0.02 | 94 | 1015.7 |
| 20260903004738 | 71 | 78 | 0.0 | 0.0 | 0.00 | 0.02 | 0.02 | 94 | 1015.7 |
| 20260903004638 | 71 | 80 | 0.0 | 0.0 | 0.00 | 0.02 | 0.02 | 94 | 1015.8 |
| 20260903004557 | 71 | 80 | 0.0 | 0.0 | 0.00 | 0.02 | 0.02 | 94 | 1015.8 |
| 20260903004546 | 71 | 80 | 0.0 | 0.0 | 0.00 | 0.02 | 0.02 | 94 | 1015.8 |
| 20260903004520 | 71 | 80 | 0.0 | 0.0 | 0.00 | 0.02 | 0.02 | 94 | 1015.9 |
| 20260903004404 | 71 | 79 | 0.0 | 0.0 | 0.00 | 0.02 | 0.02 | 94 | 1015.9 |
| 20260903004359 | 71 | 90 | 0.0 | 0.0 | 0.00 | 0.02 | 0.02 | 94 | 1015.8 |
| 20260903004354 | 71 | 79 | 0.0 | 0.0 | 0.00 | 0.02 | 0.02 | 94 | 1015.9 |
| 20260903004035 | 71 | 90 | 0.0 | 0.0 | 0.00 | 0.02 | 0.02 | 94 | 1015.8 |
| 20260903004020 | 71 | 90 | 0.0 | 0.0 | 0.00 | 0.02 | 0.02 | 94 | 1015.8 |
| 20260903003935 | 71 | 90 | 0.0 | 0.0 | 0.00 | 0.02 | 0.02 | 94 | 1015.7 |
| 20260903003834 | 71 | 90 | 0.0 | 0.0 | 0.00 | 0.02 | 0.02 | 94 | 1015.7 |
| 20260903003733 | 71 | 90 | 0.0 | 0.0 | 0.00 | 0.02 | 0.02 | 94 | 1015.7 |
| 20260903003632 | 71 | 90 | 0.0 | 0.0 | 0.00 | 0.02 | 0.02 | 94 | 1015.7 |
| 20260903003535 | 71 | 80 | 0.0 | 0.0 | 0.00 | 0.02 | 0.02 | 94 | 1015.9 |
| 20260903003532 | 71 | 90 | 0.0 | 0.0 | 0.00 | 0.02 | 0.02 | 94 | 1015.8 |
| 20260903003432 | 71 | 80 | 0.0 | 0.0 | 0.00 | 0.02 | 0.02 | 94 | 1015.8 |
| 20260903003331 | 71 | 80 | 0.0 | 0.0 | 0.00 | 0.02 | 0.02 | 94 | 1015.8 |
| 20260903003232 | 71 | 80 | 0.0 | 0.0 | 0.00 | 0.02 | 0.02 | 94 | 1015.7 |
| 20260903003132 | 71 | 80 | 0.0 | 0.0 | 0.00 | 0.02 | 0.02 | 94 | 1015.7 |
| 20260903003031 | 71 | 87 | 0.0 | 0.0 | 0.00 | 0.02 | 0.02 | 94 | 1015.6 |
| 20260903003020 | 71 | 88 | 0.0 | 0.0 | 0.00 | 0.02 | 0.02 | 94 | 1015.7 |
| 20260903002932 | 71 | 89 | 0.0 | 0.0 | 0.00 | 0.02 | 0.02 | 94 | 1015.6 |
| 20260903002830 | 71 | 95 | 0.0 | 0.0 | 0.00 | 0.02 | 0.02 | 94 | 1015.5 |
| 20260903002818 | 71 | 69 | 0.0 | 0.0 | 0.00 | 0.03 | 0.02 | 94 | 1015.4 |
| 20260903002729 | 71 | 80 | 0.0 | 0.0 | 0.00 | 0.02 | 0.02 | 94 | 1015.5 |
| 20260903002706 | 71 | 84 | 0.0 | 0.0 | 0.00 | 0.03 | 0.02 | 94 | 1015.5 |
| 20260903002552 | 71 | 69 | 0.0 | 0.0 | 0.00 | 0.03 | 0.02 | 94 | 1015.4 |
| 20260903002520 | 71 | 70 | 0.0 | 0.0 | 0.00 | 0.03 | 0.02 | 94 | 1015.6 |
| 20260903002438 | 71 | 70 | 0.0 | 0.0 | 0.00 | 0.03 | 0.02 | 94 | 1015.5 |
| 20260903002242 | 71 | 76 | 0.0 | 0.0 | 0.00 | 0.08 | 0.02 | 94 | 1015.5 |
| 20260903002236 | 71 | 67 | 0.0 | 0.0 | 0.00 | 0.06 | 0.02 | 94 | 1015.5 |
| 20260903002027 | 71 | 76 | 0.0 | 0.0 | 0.00 | 0.10 | 0.02 | 94 | 1015.5 |
| 20260903002020 | 71 | 76 | 0.0 | 0.0 | 0.00 | 0.09 | 0.02 | 94 | 1015.5 |
| 20260903001926 | 71 | 76 | 0.0 | 0.0 | 0.00 | 0.12 | 0.02 | 94 | 1015.4 |
| 20260903001826 | 71 | 76 | 0.0 | 0.0 | 0.00 | 0.14 | 0.02 | 94 | 1015.4 |
| 20260903001726 | 71 | 94 | 0.0 | 0.0 | 0.00 | 0.16 | 0.02 | 94 | 1015.4 |
| 20260903001623 | 71 | 96 | 0.0 | 0.0 | 0.00 | 0.17 | 0.02 | 94 | 1015.4 |
| 20260903001535 | 71 | 96 | 0.0 | 0.0 | 0.00 | 0.17 | 0.02 | 94 | 1015.4 |
| 20260903001524 | 71 | 96 | 0.0 | 0.0 | 0.00 | 0.18 | 0.02 | 94 | 1015.4 |
| 20260903001520 | 71 | 96 | 0.0 | 0.0 | 0.00 | 0.17 | 0.02 | 94 | 1015.4 |
| 20260903001423 | 71 | 96 | 0.0 | 0.0 | 0.00 | 0.20 | 0.02 | 94 | 1015.3 |
| 20260903001322 | 71 | 96 | 0.0 | 0.0 | 0.00 | 0.20 | 0.02 | 94 | 1015.4 |
| 20260903001222 | 71 | 96 | 0.0 | 0.0 | 0.00 | 0.21 | 0.02 | 94 | 1015.3 |
| 20260903001119 | 71 | 96 | 0.0 | 0.0 | 0.00 | 0.22 | 0.02 | 94 | 1015.3 |
| 20260903001020 | 71 | 96 | 0.0 | 0.0 | 0.00 | 0.22 | 0.02 | 94 | 1015.4 |
| 20260903000919 | 71 | 84 | 0.0 | 0.0 | 0.00 | 0.24 | 0.02 | 94 | 1015.3 |
| 20260903000817 | 71 | 80 | 0.0 | 0.0 | 0.00 | 0.25 | 0.02 | 94 | 1015.3 |
| 20260903000717 | 71 | 80 | 0.0 | 0.0 | 0.00 | 0.26 | 0.02 | 94 | 1015.3 |
| 20260903000617 | 71 | 76 | 0.0 | 0.0 | 0.00 | 0.26 | 0.02 | 94 | 1015.4 |
| 20260903000520 | 71 | 76 | 0.0 | 0.0 | 0.00 | 0.26 | 0.02 | 94 | 1015.4 |
| 20260903000516 | 71 | 76 | 0.0 | 0.0 | 0.00 | 0.26 | 0.02 | 94 | 1015.3 |
| 20260903000417 | 71 | 76 | 0.0 | 0.0 | 0.00 | 0.27 | 0.02 | 94 | 1015.3 |
| 20260903000317 | 71 | 73 | 0.0 | 0.0 | 0.00 | 0.27 | 0.02 | 94 | 1015.3 |
| 20260903000215 | 71 | 90 | 0.0 | 0.0 | 0.00 | 0.27 | 0.02 | 94 | 1015.3 |
| 20260903000115 | 71 | 91 | 0.0 | 0.0 | 0.00 | 0.28 | 0.02 | 94 | 1015.3 |
| 20260903000035 | 71 | 91 | 0.0 | 0.0 | 0.00 | 0.28 | 0.02 | 94 | 1015.4 |
| 20260903000023 | 71 | 91 | 0.0 | 0.0 | 0.00 | 0.28 | 0.02 | 94 | 1015.3 |
| 20260902235843 | 71 | 91 | 0.0 | 0.0 | 0.00 | 0.28 | 0.02 | 94 | 1015.2 |
| 20260902235739 | 71 | 91 | 0.0 | 0.0 | 0.00 | 0.28 | 0.02 | 94 | 1015.2 |
| 20260902235733 | 71 | 91 | 0.0 | 0.0 | 0.00 | 0.28 | 0.02 | 94 | 1015.3 |
| 20260902235724 | 71 | 91 | 0.0 | 0.0 | 0.00 | 0.28 | 0.02 | 94 | 1015.3 |
| 20260902235550 | 71 | 91 | 0.0 | 0.0 | 0.00 | 0.28 | 0.02 | 94 | 1015.3 |
| 20260902235409 | 71 | 91 | 0.0 | 0.0 | 0.00 | 0.28 | 0.02 | 94 | 1015.2 |
| 20260902235309 | 71 | 92 | 0.0 | 0.0 | 0.00 | 0.28 | 0.02 | 94 | 1015.2 |
| 20260902235209 | 71 | 91 | 0.0 | 0.0 | 0.00 | 0.28 | 0.02 | 94 | 1015.2 |
| 20260902235106 | 71 | 91 | 0.0 | 0.0 | 0.00 | 0.28 | 0.02 | 94 | 1015.2 |
| 20260902235035 | 71 | 95 | 0.0 | 0.0 | 0.00 | 0.28 | 0.02 | 94 | 1015.2 |
| 20260902235027 | 71 | 95 | 0.0 | 0.0 | 0.00 | 0.28 | 0.02 | 94 | 1015.2 |
| 20260902235006 | 71 | 95 | 0.0 | 0.0 | 0.00 | 0.28 | 0.02 | 94 | 1015.1 |
| 20260902234905 | 71 | 95 | 0.0 | 0.0 | 0.00 | 0.28 | 0.02 | 94 | 1015.1 |
| 20260902234805 | 71 | 94 | 0.0 | 0.0 | 0.00 | 0.28 | 0.02 | 94 | 1015.0 |
| 20260902234705 | 71 | 103 | 0.0 | 0.0 | 0.00 | 0.28 | 0.02 | 94 | 1015.0 |
| 20260902234604 | 71 | 104 | 0.0 | 0.0 | 0.00 | 0.28 | 0.02 | 94 | 1015.0 |
| 20260902234535 | 71 | 104 | 0.0 | 0.0 | 0.00 | 0.28 | 0.02 | 94 | 1015.1 |
| 20260902234505 | 71 | 104 | 0.0 | 0.0 | 0.00 | 0.28 | 0.02 | 94 | 1015.0 |
| 20260902234404 | 71 | 104 | 0.0 | 0.0 | 0.00 | 0.28 | 0.02 | 94 | 1015.0 |
| 20260902234303 | 71 | 104 | 0.0 | 0.0 | 0.00 | 0.28 | 0.02 | 94 | 1015.0 |
| 20260902234203 | 71 | 104 | 0.0 | 0.0 | 0.00 | 0.28 | 0.02 | 94 | 1015.1 |
| 20260902234103 | 71 | 104 | 0.0 | 0.0 | 0.00 | 0.28 | 0.02 | 94 | 1015.1 |
| 20260902234035 | 71 | 104 | 0.0 | 0.0 | 0.00 | 0.28 | 0.02 | 94 | 1015.2 |
| 20260902234026 | 71 | 104 | 0.0 | 0.0 | 0.00 | 0.28 | 0.02 | 94 | 1015.1 |
| 20260902234003 | 71 | 104 | 0.0 | 0.0 | 0.00 | 0.28 | 0.02 | 94 | 1015.1 |
| 20260902233929 | 71 | 104 | 0.0 | 0.0 | 0.00 | 0.28 | 0.02 | 94 | 1015.2 |
| 20260902233925 | 71 | 104 | 0.0 | 0.0 | 0.00 | 0.28 | 0.02 | 94 | 1015.2 |
| 20260902233920 | 71 | 104 | 0.0 | 0.0 | 0.00 | 0.28 | 0.02 | 94 | 1015.2 |
| 20260902233601 | 71 | 104 | 0.0 | 0.0 | 0.00 | 0.28 | 0.02 | 94 | 1015.2 |
| 20260902233535 | 71 | 104 | 0.0 | 0.0 | 0.00 | 0.28 | 0.02 | 94 | 1015.3 |
| 20260902233524 | 71 | 104 | 0.0 | 0.0 | 0.00 | 0.28 | 0.02 | 94 | 1015.2 |
| 20260902233501 | 71 | 104 | 0.0 | 0.0 | 0.00 | 0.28 | 0.02 | 94 | 1015.2 |
| 20260902233406 | 71 | 104 | 0.0 | 0.0 | 0.00 | 0.28 | 0.02 | 94 | 1015.2 |
| 20260902233400 | 71 | 104 | 0.0 | 0.0 | 0.00 | 0.28 | 0.02 | 94 | 1015.2 |
| 20260902233311 | 71 | 104 | 0.0 | 0.0 | 0.00 | 0.28 | 0.02 | 94 | 1015.2 |
| 20260902233305 | 71 | 104 | 0.0 | 0.0 | 0.00 | 0.28 | 0.02 | 94 | 1015.3 |
| 20260902233256 | 71 | 104 | 0.0 | 0.0 | 0.00 | 0.28 | 0.02 | 94 | 1015.2 |
| 20260902233248 | 71 | 104 | 0.0 | 0.0 | 0.00 | 0.28 | 0.02 | 94 | 1015.2 |
| 20260902233020 | 71 | 104 | 0.0 | 0.0 | 0.00 | 0.28 | 0.02 | 94 | 1015.3 |
| 20260902232920 | 71 | 76 | 0.0 | 0.0 | 0.00 | 0.28 | 0.02 | 94 | 1015.2 |
| 20260902232915 | 71 | 104 | 0.0 | 0.0 | 0.00 | 0.28 | 0.02 | 94 | 1015.3 |
| 20260902232616 | 71 | 103 | 0.0 | 0.0 | 0.00 | 0.28 | 0.02 | 94 | 1015.3 |
| 20260902232611 | 71 | 102 | 0.0 | 0.0 | 0.00 | 0.28 | 0.02 | 94 | 1015.2 |
| 20260902232602 | 71 | 103 | 0.0 | 0.0 | 0.00 | 0.28 | 0.02 | 94 | 1015.2 |
| 20260902232521 | 71 | 103 | 0.0 | 0.0 | 0.00 | 0.28 | 0.02 | 94 | 1015.4 |
| 20260902232355 | 71 | 105 | 0.0 | 0.0 | 0.00 | 0.28 | 0.02 | 94 | 1015.3 |
| 20260902232255 | 71 | 105 | 0.0 | 0.0 | 0.00 | 0.28 | 0.02 | 94 | 1015.3 |
| 20260902232155 | 71 | 105 | 0.0 | 0.0 | 0.00 | 0.28 | 0.02 | 94 | 1015.3 |
| 20260902232054 | 71 | 104 | 0.0 | 0.0 | 0.00 | 0.28 | 0.02 | 94 | 1015.3 |
| 20260902232020 | 71 | 104 | 0.0 | 0.0 | 0.00 | 0.28 | 0.02 | 94 | 1015.3 |
| 20260902231954 | 71 | 104 | 0.0 | 0.0 | 0.00 | 0.28 | 0.02 | 94 | 1015.2 |
| 20260902231853 | 71 | 104 | 0.0 | 0.0 | 0.00 | 0.28 | 0.02 | 94 | 1015.3 |
| 20260902231753 | 71 | 115 | 0.0 | 0.0 | 0.00 | 0.28 | 0.02 | 94 | 1015.2 |
| 20260902231653 | 71 | 118 | 0.0 | 0.0 | 0.00 | 0.28 | 0.02 | 94 | 1015.2 |
| 20260902231552 | 71 | 118 | 0.0 | 0.0 | 0.00 | 0.28 | 0.02 | 94 | 1015.2 |
| 20260902231520 | 71 | 122 | 0.0 | 0.0 | 0.00 | 0.28 | 0.02 | 94 | 1015.4 |
| 20260902231518 | 71 | 118 | 0.0 | 0.0 | 0.00 | 0.28 | 0.02 | 94 | 1015.2 |
| 20260902231452 | 71 | 132 | 0.0 | 0.0 | 0.00 | 0.28 | 0.02 | 94 | 1015.3 |
| 20260902231351 | 71 | 132 | 0.0 | 0.0 | 0.00 | 0.28 | 0.02 | 94 | 1015.3 |
| 20260902231305 | 71 | 113 | 0.0 | 0.0 | 0.00 | 0.28 | 0.02 | 94 | 1015.3 |
| 20260902231300 | 71 | 132 | 0.0 | 0.0 | 0.00 | 0.28 | 0.02 | 94 | 1015.3 |
| 20260902231109 | 71 | 74 | 0.0 | 0.0 | 0.00 | 0.28 | 0.02 | 94 | 1015.3 |
| 20260902231104 | 71 | 110 | 0.0 | 0.0 | 0.00 | 0.28 | 0.02 | 94 | 1015.3 |
| 20260902231056 | 71 | 74 | 0.0 | 0.0 | 0.00 | 0.28 | 0.02 | 94 | 1015.3 |
| 20260902231035 | 71 | 74 | 0.0 | 0.0 | 0.00 | 0.28 | 0.02 | 94 | 1015.4 |
| 20260902230849 | 71 | 66 | 0.0 | 0.0 | 0.00 | 0.28 | 0.02 | 94 | 1015.3 |
| 20260902230803 | 71 | 80 | 0.0 | 0.0 | 0.00 | 0.28 | 0.02 | 94 | 1015.3 |
| 20260902230757 | 71 | 79 | 0.0 | 0.0 | 0.00 | 0.28 | 0.02 | 94 | 1015.3 |
| 20260902230548 | 71 | 80 | 0.0 | 0.0 | 0.00 | 0.28 | 0.02 | 94 | 1015.3 |
| 20260902230520 | 71 | 80 | 0.0 | 0.0 | 0.00 | 0.28 | 0.02 | 94 | 1015.4 |
| 20260902230517 | 71 | 80 | 0.0 | 0.0 | 0.00 | 0.28 | 0.02 | 94 | 1015.3 |
| 20260902230447 | 71 | 80 | 0.0 | 0.0 | 0.00 | 0.28 | 0.02 | 94 | 1015.3 |
| 20260902230347 | 71 | 79 | 0.0 | 0.0 | 0.00 | 0.28 | 0.02 | 95 | 1015.2 |
| 20260902230247 | 71 | 82 | 0.0 | 0.0 | 0.00 | 0.28 | 0.02 | 95 | 1015.3 |
| 20260902230146 | 71 | 83 | 0.0 | 0.0 | 0.00 | 0.28 | 0.02 | 95 | 1015.2 |
| 20260902230046 | 71 | 83 | 0.0 | 0.0 | 0.00 | 0.28 | 0.02 | 94 | 1015.2 |
| 20260902230021 | 71 | 83 | 0.0 | 0.0 | 0.00 | 0.28 | 0.02 | 95 | 1015.2 |
| 20260902230014 | 71 | 83 | 0.0 | 0.0 | 0.00 | 0.28 | 0.02 | 95 | 1015.2 |
| 20260902225946 | 71 | 83 | 0.0 | 0.0 | 0.00 | 0.28 | 0.02 | 95 | 1015.1 |
| 20260902225845 | 71 | 83 | 0.0 | 0.0 | 0.00 | 0.28 | 0.02 | 95 | 1015.2 |
| 20260902225747 | 71 | 83 | 0.0 | 0.0 | 0.00 | 0.28 | 0.02 | 95 | 1015.2 |
| 20260902225657 | 71 | 103 | 0.0 | 0.0 | 0.00 | 0.28 | 0.02 | 95 | 1015.3 |
| 20260902225653 | 71 | 82 | 0.0 | 0.0 | 0.00 | 0.28 | 0.02 | 95 | 1015.2 |
| 20260902225520 | 71 | 105 | 0.0 | 0.0 | 0.00 | 0.28 | 0.02 | 95 | 1015.4 |
| 20260902225517 | 71 | 105 | 0.0 | 0.0 | 0.00 | 0.28 | 0.02 | 95 | 1015.3 |
| 20260902225511 | 71 | 105 | 0.0 | 0.0 | 0.00 | 0.28 | 0.02 | 95 | 1015.3 |
| 20260902225506 | 71 | 96 | 0.0 | 0.0 | 0.00 | 0.28 | 0.02 | 95 | 1015.3 |
| 20260902225502 | 71 | 105 | 0.0 | 0.0 | 0.00 | 0.28 | 0.02 | 95 | 1015.3 |
| 20260902225211 | 71 | 96 | 0.0 | 0.0 | 0.00 | 0.28 | 0.02 | 95 | 1015.3 |
| 20260902225049 | 71 | 96 | 0.0 | 0.0 | 0.00 | 0.28 | 0.02 | 95 | 1015.3 |
| 20260902225020 | 71 | 96 | 0.0 | 0.0 | 0.00 | 0.28 | 0.02 | 95 | 1015.4 |
| 20260902224842 | 71 | 93 | 0.0 | 0.0 | 0.00 | 0.28 | 0.02 | 95 | 1015.3 |
| 20260902224807 | 71 | 158 | 0.0 | 0.0 | 0.00 | 0.28 | 0.02 | 95 | 1015.4 |
| 20260902224803 | 71 | 158 | 0.0 | 0.0 | 0.00 | 0.28 | 0.02 | 95 | 1015.3 |
| 20260902224759 | 71 | 158 | 0.0 | 0.0 | 0.00 | 0.28 | 0.02 | 95 | 1015.3 |
| 20260902224535 | 71 | 107 | 0.0 | 0.0 | 0.00 | 0.28 | 0.02 | 95 | 1015.4 |
| 20260902224511 | 71 | 107 | 0.0 | 0.0 | 0.00 | 0.28 | 0.02 | 95 | 1015.3 |
| 20260902224440 | 71 | 107 | 0.0 | 0.0 | 0.00 | 0.28 | 0.02 | 95 | 1015.3 |
| 20260902224340 | 71 | 103 | 0.0 | 0.0 | 0.00 | 0.28 | 0.02 | 95 | 1015.3 |
| 20260902224252 | 71 | 92 | 0.0 | 0.0 | 0.00 | 0.28 | 0.02 | 95 | 1015.3 |
| 20260902224248 | 71 | 113 | 0.0 | 0.0 | 0.00 | 0.28 | 0.02 | 95 | 1015.3 |
| 20260902224039 | 71 | 101 | 0.0 | 0.0 | 0.00 | 0.28 | 0.02 | 95 | 1015.3 |
| 20260902224020 | 71 | 95 | 0.0 | 0.0 | 0.00 | 0.28 | 0.02 | 95 | 1015.5 |
| 20260902224009 | 71 | 94 | 0.0 | 0.0 | 0.00 | 0.28 | 0.02 | 95 | 1015.3 |
| 20260902223938 | 71 | 119 | 0.0 | 0.0 | 0.00 | 0.28 | 0.02 | 95 | 1015.4 |
| 20260902223838 | 71 | 125 | 0.0 | 0.0 | 0.00 | 0.28 | 0.02 | 95 | 1015.4 |
| 20260902223749 | 71 | 125 | 0.0 | 0.0 | 0.00 | 0.28 | 0.02 | 95 | 1015.4 |
| 20260902223745 | 71 | 125 | 0.0 | 0.0 | 0.00 | 0.28 | 0.02 | 95 | 1015.4 |
| 20260902223520 | 71 | 107 | 0.0 | 0.0 | 0.00 | 0.28 | 0.02 | 95 | 1015.5 |
| 20260902223510 | 71 | 107 | 0.0 | 0.0 | 0.00 | 0.28 | 0.02 | 95 | 1015.4 |
| 20260902223435 | 71 | 107 | 0.0 | 0.0 | 0.00 | 0.28 | 0.02 | 95 | 1015.4 |
| 20260902223336 | 71 | 107 | 0.0 | 0.0 | 0.00 | 0.28 | 0.02 | 95 | 1015.4 |
| 20260902223235 | 71 | 107 | 0.0 | 0.0 | 0.00 | 0.28 | 0.02 | 95 | 1015.5 |
| 20260902223208 | 71 | 107 | 0.0 | 0.0 | 0.00 | 0.28 | 0.02 | 95 | 1015.6 |
| 20260902223204 | 71 | 107 | 0.0 | 0.0 | 0.00 | 0.28 | 0.02 | 95 | 1015.6 |
| 20260902223159 | 71 | 107 | 0.0 | 0.0 | 0.00 | 0.28 | 0.02 | 95 | 1015.5 |
| 20260902223042 | 71 | 107 | 0.0 | 0.0 | 0.00 | 0.28 | 0.02 | 95 | 1015.6 |
| 20260902223020 | 71 | 107 | 0.0 | 0.0 | 0.00 | 0.28 | 0.02 | 95 | 1015.7 |
| 20260902222835 | 71 | 107 | 0.0 | 0.0 | 0.00 | 0.28 | 0.02 | 95 | 1015.6 |
| 20260902222733 | 71 | 93 | 0.0 | 0.0 | 0.00 | 0.28 | 0.02 | 95 | 1015.6 |
| 20260902222633 | 71 | 115 | 0.0 | 0.0 | 0.00 | 0.28 | 0.02 | 95 | 1015.6 |
| 20260902222533 | 71 | 126 | 0.0 | 0.0 | 0.00 | 0.28 | 0.02 | 95 | 1015.6 |
| 20260902222520 | 71 | 109 | 0.0 | 0.0 | 0.00 | 0.28 | 0.02 | 95 | 1015.8 |
| 20260902222508 | 71 | 109 | 0.0 | 0.0 | 0.00 | 0.28 | 0.02 | 95 | 1015.6 |
| 20260902222458 | 71 | 71 | 0.0 | 0.0 | 0.00 | 0.28 | 0.02 | 95 | 1015.7 |
| 20260902222454 | 71 | 70 | 0.0 | 0.0 | 0.00 | 0.28 | 0.02 | 95 | 1015.6 |
| 20260902222449 | 71 | 82 | 0.0 | 0.0 | 0.00 | 0.28 | 0.02 | 95 | 1015.7 |
| 20260902222131 | 71 | 99 | 0.0 | 0.0 | 0.00 | 0.28 | 0.02 | 95 | 1015.6 |
| 20260902222049 | 71 | 67 | 0.0 | 0.0 | 0.00 | 0.28 | 0.02 | 95 | 1015.6 |
| 20260902222045 | 71 | 96 | 0.0 | 0.0 | 0.00 | 0.28 | 0.02 | 95 | 1015.6 |
| 20260902222037 | 71 | 90 | 0.0 | 0.0 | 0.00 | 0.28 | 0.02 | 95 | 1015.6 |
| 20260902222020 | 71 | 90 | 0.0 | 0.0 | 0.00 | 0.28 | 0.02 | 95 | 1015.7 |
| 20260902221830 | 71 | 83 | 0.0 | 0.0 | 0.00 | 0.28 | 0.02 | 95 | 1015.6 |
| 20260902221730 | 71 | 93 | 0.0 | 0.0 | 0.00 | 0.28 | 0.02 | 95 | 1015.6 |
| 20260902221654 | 71 | 101 | 0.0 | 0.0 | 0.00 | 0.28 | 0.02 | 94 | 1015.6 |
| 20260902221541 | 71 | 101 | 0.0 | 0.0 | 0.00 | 0.28 | 0.02 | 94 | 1015.5 |
| 20260902221533 | 71 | 101 | 0.0 | 0.0 | 0.00 | 0.28 | 0.02 | 94 | 1015.6 |
| 20260902221520 | 71 | 101 | 0.0 | 0.0 | 0.00 | 0.28 | 0.02 | 94 | 1015.7 |
| 20260902221326 | 71 | 86 | 0.0 | 0.0 | 0.00 | 0.28 | 0.02 | 95 | 1015.6 |
| 20260902221226 | 71 | 103 | 0.0 | 0.0 | 0.00 | 0.28 | 0.02 | 95 | 1015.6 |
| 20260902221124 | 71 | 77 | 0.0 | 0.0 | 0.00 | 0.28 | 0.02 | 95 | 1015.6 |
| 20260902221043 | 71 | 140 | 0.0 | 0.0 | 0.00 | 0.28 | 0.02 | 95 | 1015.7 |
| 20260902221039 | 71 | 94 | 0.0 | 0.0 | 0.00 | 0.28 | 0.02 | 95 | 1015.7 |
| 20260902221031 | 71 | 125 | 0.0 | 0.0 | 0.00 | 0.28 | 0.02 | 95 | 1015.7 |
| 20260902221021 | 71 | 125 | 0.0 | 0.0 | 0.00 | 0.28 | 0.02 | 95 | 1015.8 |
| 20260902220822 | 71 | 98 | 0.0 | 0.0 | 0.00 | 0.28 | 0.02 | 95 | 1015.7 |
| 20260902220722 | 71 | 71 | 0.0 | 0.0 | 0.00 | 0.28 | 0.02 | 95 | 1015.9 |
| 20260902220623 | 71 | 71 | 0.0 | 0.0 | 0.00 | 0.28 | 0.02 | 95 | 1015.9 |
| 20260902220541 | 71 | 71 | 0.0 | 0.0 | 0.00 | 0.28 | 0.02 | 94 | 1016.0 |
| 20260902220520 | 71 | 71 | 0.0 | 0.0 | 0.00 | 0.28 | 0.02 | 94 | 1016.1 |
| 20260902220430 | 71 | 71 | 0.0 | 0.0 | 0.00 | 0.28 | 0.02 | 94 | 1016.0 |
| 20260902220235 | 71 | 84 | 0.0 | 0.0 | 0.00 | 0.28 | 0.02 | 95 | 1016.0 |
| 20260902220231 | 71 | 96 | 0.0 | 0.0 | 0.00 | 0.28 | 0.02 | 94 | 1016.0 |
| 20260902220021 | 71 | 71 | 0.0 | 0.0 | 0.00 | 0.28 | 0.02 | 95 | 1016.0 |
| 20260902220007 | 71 | 115 | 0.0 | 0.0 | 0.00 | 0.28 | 0.02 | 95 | 1016.0 |
| 20260902215920 | 71 | 115 | 0.0 | 0.0 | 0.00 | 0.28 | 0.02 | 95 | 1016.0 |
| 20260902215818 | 71 | 115 | 0.0 | 0.0 | 0.00 | 0.28 | 0.02 | 95 | 1015.9 |
| 20260902215718 | 71 | 115 | 0.0 | 0.0 | 0.00 | 0.28 | 0.02 | 95 | 1016.0 |
| 20260902215617 | 71 | 115 | 0.0 | 0.0 | 0.00 | 0.28 | 0.02 | 95 | 1016.0 |
| 20260902215520 | 71 | 113 | 0.0 | 0.0 | 0.00 | 0.28 | 0.02 | 94 | 1016.1 |
| 20260902215506 | 71 | 113 | 0.0 | 0.0 | 0.00 | 0.28 | 0.02 | 94 | 1016.0 |
| 20260902215416 | 71 | 113 | 0.0 | 0.0 | 0.00 | 0.28 | 0.02 | 94 | 1016.0 |
| 20260902215314 | 71 | 113 | 0.0 | 0.0 | 0.00 | 0.28 | 0.02 | 94 | 1016.1 |
| 20260902215213 | 71 | 113 | 0.0 | 0.0 | 0.00 | 0.28 | 0.02 | 94 | 1016.1 |
| 20260902215112 | 71 | 113 | 0.0 | 0.0 | 0.00 | 0.28 | 0.02 | 94 | 1016.1 |
| 20260902215020 | 71 | 118 | 0.0 | 0.0 | 0.00 | 0.28 | 0.02 | 94 | 1016.2 |
| 20260902215006 | 71 | 118 | 0.0 | 0.0 | 0.00 | 0.28 | 0.02 | 94 | 1016.1 |
| 20260902214911 | 71 | 118 | 0.0 | 0.0 | 0.00 | 0.28 | 0.02 | 94 | 1016.1 |
| 20260902214810 | 71 | 118 | 0.0 | 0.0 | 0.00 | 0.28 | 0.02 | 94 | 1016.1 |
| 20260902214710 | 71 | 118 | 0.0 | 0.0 | 0.00 | 0.28 | 0.02 | 94 | 1016.1 |
| 20260902214609 | 71 | 118 | 0.0 | 0.0 | 0.00 | 0.28 | 0.02 | 94 | 1016.1 |
| 20260902214520 | 72 | 109 | 0.0 | 0.0 | 0.00 | 0.28 | 0.02 | 95 | 1016.1 |
| 20260902214509 | 71 | 109 | 0.0 | 0.0 | 0.00 | 0.28 | 0.02 | 95 | 1016.0 |
| 20260902214408 | 71 | 109 | 0.0 | 0.0 | 0.00 | 0.28 | 0.02 | 95 | 1016.0 |
| 20260902214307 | 72 | 81 | 0.0 | 0.0 | 0.00 | 0.28 | 0.02 | 95 | 1016.0 |
| 20260902214207 | 72 | 67 | 0.0 | 0.0 | 0.00 | 0.28 | 0.02 | 95 | 1016.0 |
| 20260902214107 | 72 | 67 | 0.0 | 0.0 | 0.00 | 0.28 | 0.02 | 95 | 1015.9 |
| 20260902214020 | 72 | 48 | 0.0 | 0.0 | 0.00 | 0.28 | 0.02 | 95 | 1016.1 |
| 20260902214008 | 72 | 48 | 0.0 | 0.0 | 0.00 | 0.28 | 0.02 | 95 | 1016.0 |
| 20260902213907 | 72 | 72 | 0.0 | 0.0 | 0.00 | 0.28 | 0.02 | 95 | 1015.9 |
| 20260902213823 | 72 | 58 | 0.0 | 0.0 | 0.00 | 0.28 | 0.02 | 95 | 1015.8 |
| 20260902213818 | 72 | 139 | 0.0 | 0.0 | 0.00 | 0.28 | 0.02 | 95 | 1015.9 |
| 20260902213814 | 72 | 59 | 0.0 | 0.0 | 0.00 | 0.28 | 0.02 | 95 | 1015.8 |
| 20260902213619 | 72 | 139 | 0.0 | 0.0 | 0.00 | 0.28 | 0.02 | 95 | 1015.9 |
| 20260902213520 | 72 | 139 | 0.0 | 0.0 | 0.00 | 0.28 | 0.02 | 95 | 1016.0 |
| 20260902213505 | 72 | 139 | 0.0 | 0.0 | 0.00 | 0.28 | 0.02 | 95 | 1015.9 |
| 20260902213404 | 71 | 148 | 0.0 | 0.0 | 0.00 | 0.28 | 0.02 | 95 | 1015.9 |
| 20260902213304 | 72 | 149 | 0.0 | 0.0 | 0.00 | 0.28 | 0.02 | 95 | 1015.9 |
| 20260902213235 | 72 | 149 | 0.0 | 0.0 | 0.00 | 0.28 | 0.02 | 95 | 1015.8 |
| 20260902213231 | 71 | 149 | 0.0 | 0.0 | 0.00 | 0.28 | 0.02 | 95 | 1015.8 |
| 20260902213225 | 72 | 148 | 0.0 | 0.0 | 0.00 | 0.28 | 0.02 | 95 | 1015.9 |
| 20260902213107 | 71 | 149 | 0.0 | 0.0 | 0.00 | 0.28 | 0.02 | 95 | 1015.8 |
| 20260902213020 | 72 | 148 | 0.0 | 0.0 | 0.00 | 0.28 | 0.02 | 95 | 1015.9 |
| 20260902212901 | 71 | 149 | 0.0 | 0.0 | 0.00 | 0.28 | 0.02 | 95 | 1015.7 |
| 20260902212800 | 71 | 149 | 0.0 | 0.0 | 0.00 | 0.28 | 0.02 | 95 | 1015.6 |
| 20260902212659 | 72 | 149 | 0.0 | 0.0 | 0.00 | 0.28 | 0.02 | 95 | 1015.5 |
| 20260902212558 | 71 | 132 | 0.0 | 0.0 | 0.00 | 0.28 | 0.02 | 95 | 1015.4 |
| 20260902212520 | 72 | 132 | 0.0 | 0.0 | 0.00 | 0.28 | 0.02 | 95 | 1015.5 |
| 20260902212504 | 72 | 133 | 0.0 | 0.0 | 0.00 | 0.28 | 0.02 | 95 | 1015.4 |
| 20260902212458 | 72 | 123 | 0.0 | 0.0 | 0.00 | 0.28 | 0.02 | 95 | 1015.4 |
| 20260902212358 | 72 | 103 | 0.0 | 0.0 | 0.00 | 0.28 | 0.02 | 95 | 1015.4 |
| 20260902212257 | 72 | 103 | 0.0 | 0.0 | 0.00 | 0.28 | 0.02 | 95 | 1015.5 |
| 20260902212156 | 72 | 103 | 0.0 | 0.0 | 0.00 | 0.28 | 0.02 | 95 | 1015.5 |
| 20260902212056 | 72 | 101 | 0.0 | 0.0 | 0.00 | 0.28 | 0.02 | 95 | 1015.5 |
| 20260902212020 | 72 | 101 | 0.0 | 0.0 | 0.00 | 0.28 | 0.02 | 95 | 1015.6 |
| 20260902212003 | 72 | 101 | 0.0 | 0.0 | 0.00 | 0.28 | 0.02 | 95 | 1015.5 |
| 20260902211955 | 72 | 101 | 0.0 | 0.0 | 0.00 | 0.28 | 0.02 | 95 | 1015.5 |
| 20260902211855 | 72 | 92 | 0.0 | 0.0 | 0.00 | 0.28 | 0.02 | 95 | 1015.5 |
| 20260902211755 | 72 | 117 | 0.0 | 0.0 | 0.00 | 0.28 | 0.02 | 95 | 1015.5 |
| 20260902211655 | 72 | 118 | 0.0 | 0.0 | 0.00 | 0.28 | 0.02 | 95 | 1015.5 |
| 20260902211555 | 72 | 98 | 0.0 | 0.0 | 0.00 | 0.28 | 0.02 | 95 | 1015.5 |
| 20260902211520 | 72 | 98 | 0.0 | 0.0 | 0.00 | 0.28 | 0.02 | 95 | 1015.5 |
| 20260902211503 | 72 | 98 | 0.0 | 0.0 | 0.00 | 0.28 | 0.02 | 95 | 1015.4 |
| 20260902211454 | 71 | 98 | 0.0 | 0.0 | 0.00 | 0.28 | 0.02 | 95 | 1015.4 |
| 20260902211353 | 71 | 98 | 0.0 | 0.0 | 0.00 | 0.28 | 0.02 | 95 | 1015.4 |
| 20260902211253 | 71 | 98 | 0.0 | 0.0 | 0.00 | 0.28 | 0.02 | 95 | 1015.4 |
| 20260902211151 | 71 | 98 | 0.0 | 0.0 | 0.00 | 0.28 | 0.02 | 95 | 1015.3 |
| 20260902211049 | 71 | 81 | 0.0 | 0.0 | 0.00 | 0.28 | 0.02 | 95 | 1015.3 |
| 20260902211020 | 71 | 81 | 0.0 | 0.0 | 0.00 | 0.28 | 0.02 | 95 | 1015.4 |
| 20260902211003 | 71 | 81 | 0.0 | 0.0 | 0.00 | 0.28 | 0.02 | 95 | 1015.3 |
| 20260902210953 | 71 | 79 | 0.0 | 0.0 | 0.00 | 0.28 | 0.02 | 95 | 1015.1 |
| 20260902210948 | 71 | 81 | 0.0 | 0.0 | 0.00 | 0.28 | 0.02 | 95 | 1015.3 |
| 20260902210941 | 71 | 64 | 0.0 | 0.0 | 0.00 | 0.28 | 0.02 | 95 | 1015.1 |
| 20260902210935 | 71 | 81 | 0.0 | 0.0 | 0.00 | 0.28 | 0.02 | 95 | 1015.2 |
| 20260902210821 | 71 | 81 | 0.0 | 0.0 | 0.00 | 0.28 | 0.02 | 95 | 1015.2 |
| 20260902210703 | 71 | 96 | 0.0 | 0.0 | 0.00 | 0.28 | 0.02 | 95 | 1015.1 |
| 20260902210520 | 71 | 64 | 0.0 | 0.0 | 0.00 | 0.28 | 0.02 | 95 | 1015.2 |
| 20260902210348 | 71 | 44 | 0.0 | 0.0 | 0.00 | 0.28 | 0.02 | 95 | 1015.2 |
| 20260902210247 | 71 | 63 | 0.0 | 0.0 | 0.00 | 0.28 | 0.02 | 95 | 1015.2 |
| 20260902210146 | 71 | 104 | 0.0 | 0.0 | 0.00 | 0.28 | 0.02 | 95 | 1015.3 |
| 20260902210046 | 71 | 89 | 0.0 | 0.0 | 0.00 | 0.28 | 0.02 | 95 | 1015.2 |
| 20260902210026 | 71 | 101 | 0.0 | 0.0 | 0.00 | 0.28 | 0.02 | 95 | 1015.3 |
| 20260902210021 | 71 | 104 | 0.0 | 0.0 | 0.00 | 0.28 | 0.02 | 95 | 1015.2 |
| 20260902210015 | 71 | 104 | 0.0 | 0.0 | 0.00 | 0.28 | 0.02 | 95 | 1015.2 |
| 20260902205902 | 71 | 90 | 0.0 | 0.0 | 0.00 | 0.28 | 0.02 | 95 | 1015.4 |
| 20260902205858 | 71 | 109 | 0.0 | 0.0 | 0.00 | 0.28 | 0.02 | 95 | 1015.2 |
| 20260902205849 | 71 | 98 | 0.0 | 0.0 | 0.00 | 0.28 | 0.02 | 95 | 1015.2 |
| 20260902205626 | 71 | 101 | 0.0 | 0.0 | 0.00 | 0.28 | 0.02 | 95 | 1015.3 |
| 20260902205520 | 71 | 71 | 0.0 | 0.0 | 0.00 | 0.28 | 0.02 | 95 | 1015.5 |
| 20260902205512 | 71 | 90 | 0.0 | 0.0 | 0.00 | 0.28 | 0.02 | 95 | 1015.4 |
| 20260902205249 | 71 | 92 | 0.0 | 0.0 | 0.00 | 0.28 | 0.02 | 95 | 1015.4 |
| 20260902205108 | 71 | 96 | 0.0 | 0.0 | 0.00 | 0.28 | 0.02 | 95 | 1015.3 |
| 20260902205035 | 71 | 65 | 0.0 | 0.0 | 0.00 | 0.28 | 0.02 | 95 | 1015.3 |
| 20260902204940 | 71 | 65 | 0.0 | 0.0 | 0.00 | 0.28 | 0.02 | 95 | 1015.2 |
| 20260902204840 | 71 | 80 | 0.0 | 0.0 | 0.00 | 0.28 | 0.02 | 95 | 1015.2 |
| 20260902204738 | 71 | 85 | 0.0 | 0.0 | 0.00 | 0.28 | 0.02 | 95 | 1015.1 |
| 20260902204638 | 71 | 69 | 0.0 | 0.0 | 0.00 | 0.28 | 0.02 | 95 | 1015.1 |
| 20260902204538 | 71 | 81 | 0.0 | 0.0 | 0.00 | 0.28 | 0.02 | 95 | 1015.2 |
| 20260902204521 | 71 | 81 | 0.0 | 0.0 | 0.00 | 0.28 | 0.02 | 95 | 1015.3 |
| 20260902204500 | 71 | 81 | 0.0 | 0.0 | 0.00 | 0.28 | 0.02 | 95 | 1015.2 |
| 20260902204436 | 71 | 81 | 0.0 | 0.0 | 0.00 | 0.28 | 0.02 | 95 | 1015.2 |
| 20260902204336 | 71 | 82 | 0.0 | 0.0 | 0.00 | 0.28 | 0.02 | 95 | 1015.3 |
| 20260902204248 | 71 | 76 | 0.0 | 0.0 | 0.00 | 0.28 | 0.02 | 95 | 1015.3 |
| 20260902204244 | 71 | 89 | 0.0 | 0.0 | 0.00 | 0.28 | 0.02 | 95 | 1015.3 |
| 20260902204034 | 71 | 76 | 0.0 | 0.0 | 0.00 | 0.28 | 0.02 | 95 | 1015.4 |
| 20260902204020 | 71 | 76 | 0.0 | 0.0 | 0.00 | 0.28 | 0.02 | 95 | 1015.5 |
| 20260902203958 | 71 | 76 | 0.0 | 0.0 | 0.00 | 0.28 | 0.02 | 95 | 1015.4 |
| 20260902203934 | 71 | 76 | 0.0 | 0.0 | 0.00 | 0.28 | 0.02 | 95 | 1015.4 |
| 20260902203847 | 71 | 69 | 0.0 | 0.0 | 0.00 | 0.28 | 0.02 | 95 | 1015.5 |
| 20260902203843 | 71 | 76 | 0.0 | 0.0 | 0.00 | 0.28 | 0.02 | 95 | 1015.4 |
| 20260902203634 | 71 | 69 | 0.0 | 0.0 | 0.00 | 0.28 | 0.02 | 95 | 1015.5 |
| 20260902203605 | 71 | 69 | 0.0 | 0.0 | 0.00 | 0.28 | 0.02 | 95 | 1015.6 |
| 20260902203548 | 71 | 69 | 0.0 | 0.0 | 0.00 | 0.28 | 0.02 | 95 | 1015.5 |
| 20260902203538 | 71 | 69 | 0.0 | 0.0 | 0.00 | 0.28 | 0.02 | 95 | 1015.5 |
| 20260902203332 | 71 | 78 | 0.0 | 0.0 | 0.00 | 0.28 | 0.02 | 95 | 1015.6 |
| 20260902203232 | 71 | 67 | 0.0 | 0.0 | 0.00 | 0.28 | 0.02 | 95 | 1015.6 |
| 20260902203210 | 71 | 81 | 0.0 | 0.0 | 0.00 | 0.28 | 0.02 | 95 | 1015.5 |
| 20260902203132 | 71 | 62 | 0.0 | 0.0 | 0.00 | 0.28 | 0.02 | 95 | 1015.5 |
| 20260902203103 | 71 | 80 | 0.0 | 0.0 | 0.00 | 0.28 | 0.02 | 95 | 1015.5 |
| 20260902203020 | 71 | 80 | 0.0 | 0.0 | 0.00 | 0.28 | 0.02 | 95 | 1015.6 |
| 20260902202930 | 71 | 49 | 0.0 | 0.0 | 0.00 | 0.28 | 0.02 | 95 | 1015.5 |
| 20260902202830 | 71 | 49 | 0.0 | 0.0 | 0.00 | 0.28 | 0.02 | 95 | 1015.5 |
| 20260902202730 | 71 | 49 | 0.0 | 0.0 | 0.00 | 0.28 | 0.02 | 95 | 1015.4 |
| 20260902202628 | 71 | 47 | 0.0 | 0.0 | 0.00 | 0.28 | 0.02 | 95 | 1015.5 |
| 20260902202528 | 71 | 47 | 0.0 | 0.0 | 0.00 | 0.28 | 0.02 | 95 | 1015.5 |
| 20260902202521 | 71 | 47 | 0.0 | 0.0 | 0.00 | 0.28 | 0.02 | 95 | 1015.5 |
| 20260902202440 | 71 | 47 | 0.0 | 0.0 | 0.00 | 0.28 | 0.02 | 95 | 1015.5 |
| 20260902202436 | 71 | 47 | 0.0 | 0.0 | 0.00 | 0.28 | 0.02 | 95 | 1015.4 |
| 20260902202227 | 71 | 47 | 0.0 | 0.0 | 0.00 | 0.28 | 0.02 | 95 | 1015.5 |
| 20260902202126 | 71 | 47 | 0.0 | 0.0 | 0.00 | 0.28 | 0.02 | 95 | 1015.5 |
| 20260902202026 | 71 | 69 | 0.0 | 0.0 | 0.00 | 0.28 | 0.02 | 95 | 1015.5 |
| 20260902202020 | 71 | 69 | 0.0 | 0.0 | 0.00 | 0.28 | 0.02 | 95 | 1015.7 |
| 20260902201925 | 71 | 69 | 0.0 | 0.0 | 0.00 | 0.28 | 0.02 | 95 | 1015.6 |
| 20260902201825 | 71 | 69 | 0.0 | 0.0 | 0.00 | 0.28 | 0.02 | 95 | 1015.6 |
| 20260902201725 | 71 | 69 | 0.0 | 0.0 | 0.00 | 0.28 | 0.02 | 95 | 1015.6 |
| 20260902201624 | 71 | 61 | 0.0 | 0.0 | 0.00 | 0.28 | 0.02 | 95 | 1015.6 |
| 20260902201538 | 71 | 59 | 0.0 | 0.0 | 0.00 | 0.28 | 0.02 | 95 | 1015.6 |
| 20260902201530 | 71 | 67 | 0.0 | 0.0 | 0.00 | 0.28 | 0.02 | 95 | 1015.6 |
| 20260902201520 | 71 | 67 | 0.0 | 0.0 | 0.00 | 0.28 | 0.02 | 95 | 1015.7 |
| 20260902201322 | 71 | 67 | 0.0 | 0.0 | 0.00 | 0.28 | 0.02 | 95 | 1015.6 |
| 20260902201221 | 71 | 67 | 0.0 | 0.0 | 0.00 | 0.28 | 0.02 | 95 | 1015.6 |
| 20260902201153 | 71 | 66 | 0.0 | 0.0 | 0.00 | 0.28 | 0.02 | 95 | 1015.5 |
| 20260902201149 | 71 | 60 | 0.0 | 0.0 | 0.00 | 0.28 | 0.02 | 95 | 1015.4 |
| 20260902201144 | 71 | 66 | 0.0 | 0.0 | 0.00 | 0.28 | 0.02 | 95 | 1015.5 |
| 20260902201027 | 71 | 66 | 0.0 | 0.0 | 0.00 | 0.28 | 0.02 | 95 | 1015.4 |
| 20260902201020 | 71 | 66 | 0.0 | 0.0 | 0.00 | 0.28 | 0.02 | 95 | 1015.5 |
| 20260902200820 | 71 | 84 | 0.0 | 0.0 | 0.00 | 0.28 | 0.02 | 95 | 1015.4 |
| 20260902200801 | 71 | 110 | 0.0 | 0.0 | 0.00 | 0.28 | 0.02 | 95 | 1015.4 |
| 20260902200754 | 71 | 90 | 0.0 | 0.0 | 0.00 | 0.28 | 0.02 | 95 | 1015.4 |
| 20260902200641 | 71 | 57 | 0.0 | 0.0 | 0.00 | 0.28 | 0.02 | 95 | 1015.4 |
| 20260902200632 | 71 | 93 | 0.0 | 0.0 | 0.00 | 0.28 | 0.02 | 95 | 1015.4 |
| 20260902200520 | 71 | 110 | 0.0 | 0.0 | 0.00 | 0.28 | 0.02 | 95 | 1015.5 |
| 20260902200317 | 71 | 97 | 0.0 | 0.0 | 0.00 | 0.28 | 0.02 | 95 | 1015.4 |
| 20260902200217 | 71 | 82 | 0.0 | 0.0 | 0.00 | 0.28 | 0.02 | 95 | 1015.4 |
| 20260902200116 | 71 | 76 | 0.0 | 0.0 | 0.00 | 0.28 | 0.02 | 95 | 1015.5 |
| 20260902200035 | 71 | 78 | 0.0 | 0.0 | 0.00 | 0.28 | 0.02 | 95 | 1015.5 |
| 20260902200016 | 71 | 78 | 0.0 | 0.0 | 0.00 | 0.28 | 0.02 | 95 | 1015.5 |
| 20260902195946 | 71 | 78 | 0.0 | 0.0 | 0.00 | 0.28 | 0.02 | 95 | 1015.4 |
| 20260902195913 | 71 | 86 | 0.0 | 0.0 | 0.00 | 0.28 | 0.02 | 95 | 1015.4 |
| 20260902195814 | 71 | 119 | 0.0 | 0.0 | 0.00 | 0.28 | 0.02 | 95 | 1015.4 |
| 20260902195712 | 71 | 119 | 0.0 | 0.0 | 0.00 | 0.28 | 0.02 | 95 | 1015.4 |
| 20260902195612 | 71 | 119 | 0.0 | 0.0 | 0.00 | 0.28 | 0.02 | 95 | 1015.4 |
| 20260902195520 | 71 | 105 | 0.0 | 0.0 | 0.00 | 0.28 | 0.02 | 95 | 1015.5 |
| 20260902195512 | 71 | 105 | 0.0 | 0.0 | 0.00 | 0.28 | 0.02 | 95 | 1015.4 |
| 20260902195446 | 71 | 105 | 0.0 | 0.0 | 0.00 | 0.28 | 0.02 | 95 | 1015.4 |
| 20260902195439 | 71 | 105 | 0.0 | 0.0 | 0.00 | 0.28 | 0.02 | 95 | 1015.4 |
| 20260902195434 | 71 | 75 | 0.0 | 0.0 | 0.00 | 0.28 | 0.02 | 95 | 1015.3 |
| 20260902195429 | 71 | 105 | 0.0 | 0.0 | 0.00 | 0.28 | 0.02 | 95 | 1015.4 |
| 20260902195111 | 71 | 104 | 0.0 | 0.0 | 0.00 | 0.28 | 0.02 | 95 | 1015.3 |
| 20260902195020 | 71 | 104 | 0.0 | 0.0 | 0.00 | 0.28 | 0.02 | 95 | 1015.4 |
| 20260902195009 | 71 | 104 | 0.0 | 0.0 | 0.00 | 0.28 | 0.02 | 95 | 1015.2 |
| 20260902194944 | 71 | 104 | 0.0 | 0.0 | 0.00 | 0.28 | 0.02 | 95 | 1015.3 |
| 20260902194910 | 71 | 101 | 0.0 | 0.0 | 0.00 | 0.28 | 0.02 | 95 | 1015.3 |
| 20260902194810 | 71 | 84 | 0.0 | 0.0 | 0.00 | 0.28 | 0.02 | 95 | 1015.3 |
| 20260902194709 | 71 | 102 | 0.0 | 0.0 | 0.00 | 0.28 | 0.02 | 95 | 1015.4 |
| 20260902194609 | 71 | 65 | 0.0 | 0.0 | 0.00 | 0.28 | 0.02 | 95 | 1015.4 |
| 20260902194520 | 71 | 65 | 0.0 | 0.0 | 0.00 | 0.28 | 0.02 | 95 | 1015.5 |
| 20260902194508 | 71 | 65 | 0.0 | 0.0 | 0.00 | 0.28 | 0.02 | 95 | 1015.4 |
| 20260902194442 | 71 | 92 | 0.0 | 0.0 | 0.00 | 0.28 | 0.02 | 95 | 1015.4 |
| 20260902194421 | 71 | 104 | 0.0 | 0.0 | 0.00 | 0.28 | 0.02 | 95 | 1015.5 |
| 20260902194416 | 71 | 65 | 0.0 | 0.0 | 0.00 | 0.28 | 0.02 | 95 | 1015.4 |
| 20260902194207 | 71 | 113 | 0.0 | 0.0 | 0.00 | 0.28 | 0.02 | 95 | 1015.5 |
| 20260902194106 | 71 | 80 | 0.0 | 0.0 | 0.00 | 0.28 | 0.02 | 95 | 1015.5 |
| 20260902194020 | 71 | 66 | 0.0 | 0.0 | 0.00 | 0.28 | 0.02 | 95 | 1015.5 |
| 20260902194012 | 71 | 66 | 0.0 | 0.0 | 0.00 | 0.28 | 0.02 | 95 | 1015.5 |
| 20260902193818 | 71 | 78 | 0.0 | 0.0 | 0.00 | 0.28 | 0.02 | 95 | 1015.4 |
| 20260902193814 | 71 | 65 | 0.0 | 0.0 | 0.00 | 0.28 | 0.02 | 95 | 1015.4 |
| 20260902193603 | 71 | 80 | 0.0 | 0.0 | 0.00 | 0.28 | 0.02 | 95 | 1015.5 |
| 20260902193535 | 71 | 76 | 0.0 | 0.0 | 0.00 | 0.28 | 0.02 | 95 | 1015.5 |
| 20260902193530 | 71 | 83 | 0.0 | 0.0 | 0.00 | 0.28 | 0.02 | 95 | 1015.5 |
| 20260902193525 | 71 | 80 | 0.0 | 0.0 | 0.00 | 0.28 | 0.02 | 95 | 1015.5 |
| 20260902193520 | 71 | 80 | 0.0 | 0.0 | 0.00 | 0.28 | 0.02 | 95 | 1015.6 |
| 20260902193517 | 71 | 80 | 0.0 | 0.0 | 0.00 | 0.28 | 0.02 | 95 | 1015.5 |
| 20260902193201 | 71 | 77 | 0.0 | 0.0 | 0.00 | 0.28 | 0.02 | 95 | 1015.5 |
| 20260902193101 | 71 | 69 | 0.0 | 0.0 | 0.00 | 0.28 | 0.02 | 95 | 1015.5 |
| 20260902193035 | 71 | 111 | 0.0 | 0.0 | 0.00 | 0.28 | 0.02 | 95 | 1015.6 |
| 20260902193000 | 71 | 92 | 0.0 | 0.0 | 0.00 | 0.28 | 0.02 | 95 | 1015.5 |
| 20260902192940 | 71 | 65 | 0.0 | 0.0 | 0.00 | 0.28 | 0.02 | 95 | 1015.5 |
| 20260902192900 | 71 | 64 | 0.0 | 0.0 | 0.00 | 0.28 | 0.02 | 95 | 1015.5 |
| 20260902192800 | 71 | 64 | 0.0 | 0.0 | 0.00 | 0.28 | 0.02 | 95 | 1015.5 |
| 20260902192658 | 71 | 49 | 0.0 | 0.0 | 0.00 | 0.28 | 0.02 | 95 | 1015.6 |
| 20260902192558 | 71 | 82 | 0.0 | 0.0 | 0.00 | 0.28 | 0.02 | 95 | 1015.5 |
| 20260902192520 | 71 | 115 | 0.0 | 0.0 | 0.00 | 0.28 | 0.02 | 95 | 1015.7 |
| 20260902192457 | 71 | 114 | 0.0 | 0.0 | 0.00 | 0.28 | 0.02 | 95 | 1015.6 |
| 20260902192440 | 71 | 105 | 0.0 | 0.0 | 0.00 | 0.28 | 0.02 | 95 | 1015.6 |
| 20260902192357 | 71 | 80 | 0.0 | 0.0 | 0.00 | 0.28 | 0.02 | 95 | 1015.5 |
| 20260902192257 | 71 | 83 | 0.0 | 0.0 | 0.00 | 0.28 | 0.02 | 95 | 1015.6 |
| 20260902192208 | 71 | 76 | 0.0 | 0.0 | 0.00 | 0.28 | 0.02 | 95 | 1015.6 |
| 20260902192204 | 71 | 88 | 0.0 | 0.0 | 0.00 | 0.28 | 0.02 | 95 | 1015.6 |
| 20260902192020 | 71 | 62 | 0.0 | 0.0 | 0.00 | 0.28 | 0.02 | 95 | 1015.7 |
| 20260902191956 | 71 | 62 | 0.0 | 0.0 | 0.00 | 0.28 | 0.02 | 95 | 1015.6 |
| 20260902191939 | 71 | 98 | 0.0 | 0.0 | 0.00 | 0.28 | 0.02 | 95 | 1015.6 |
| 20260902191855 | 71 | 107 | 0.0 | 0.0 | 0.00 | 0.28 | 0.02 | 95 | 1015.6 |
| 20260902191755 | 71 | 107 | 0.0 | 0.0 | 0.00 | 0.28 | 0.02 | 95 | 1015.6 |
| 20260902191653 | 71 | 97 | 0.0 | 0.0 | 0.00 | 0.28 | 0.02 | 95 | 1015.6 |
| 20260902191553 | 71 | 85 | 0.0 | 0.0 | 0.00 | 0.28 | 0.02 | 95 | 1015.6 |
| 20260902191520 | 71 | 75 | 0.0 | 0.0 | 0.00 | 0.28 | 0.02 | 95 | 1015.8 |
| 20260902191453 | 71 | 71 | 0.0 | 0.0 | 0.00 | 0.28 | 0.02 | 95 | 1015.7 |
| 20260902191439 | 71 | 98 | 0.0 | 0.0 | 0.00 | 0.28 | 0.02 | 95 | 1015.7 |
| 20260902191414 | 71 | 101 | 0.0 | 0.0 | 0.00 | 0.28 | 0.02 | 95 | 1015.6 |
| 20260902191300 | 71 | 85 | 0.0 | 0.0 | 0.00 | 0.28 | 0.02 | 95 | 1015.7 |
| 20260902191049 | 71 | 71 | 0.0 | 0.0 | 0.00 | 0.28 | 0.02 | 95 | 1015.6 |
| 20260902191020 | 71 | 60 | 0.0 | 0.0 | 0.00 | 0.28 | 0.02 | 95 | 1015.7 |
| 20260902190939 | 71 | 60 | 0.0 | 0.0 | 0.00 | 0.28 | 0.02 | 95 | 1015.6 |
| 20260902190902 | 71 | 81 | 0.0 | 0.0 | 0.00 | 0.28 | 0.02 | 95 | 1015.8 |
| 20260902190857 | 71 | 94 | 0.0 | 0.0 | 0.00 | 0.28 | 0.02 | 95 | 1015.7 |
| 20260902190648 | 71 | 87 | 0.0 | 0.0 | 0.00 | 0.28 | 0.02 | 95 | 1015.8 |
| 20260902190548 | 71 | 87 | 0.0 | 0.0 | 0.00 | 0.28 | 0.02 | 95 | 1015.9 |
| 20260902190520 | 71 | 87 | 0.0 | 0.0 | 0.00 | 0.28 | 0.02 | 95 | 1016.0 |
| 20260902190438 | 71 | 87 | 0.0 | 0.0 | 0.00 | 0.28 | 0.02 | 95 | 1015.9 |
| 20260902190347 | 71 | 82 | 0.0 | 0.0 | 0.00 | 0.28 | 0.02 | 95 | 1015.9 |
| 20260902190259 | 71 | 83 | 0.0 | 0.0 | 0.00 | 0.28 | 0.02 | 95 | 1015.9 |
| 20260902190255 | 71 | 74 | 0.0 | 0.0 | 0.00 | 0.28 | 0.02 | 95 | 1015.9 |
| 20260902190100 | 71 | 102 | 0.0 | 0.0 | 0.00 | 0.28 | 0.02 | 95 | 1015.9 |
| 20260902190055 | 71 | 102 | 0.0 | 0.0 | 0.00 | 0.28 | 0.02 | 95 | 1015.8 |
| 20260902190020 | 71 | 102 | 0.0 | 0.0 | 0.00 | 0.28 | 0.02 | 95 | 1016.0 |
| 20260902185939 | 71 | 102 | 0.0 | 0.0 | 0.00 | 0.28 | 0.02 | 95 | 1015.9 |
| 20260902185900 | 71 | 102 | 0.0 | 0.0 | 0.00 | 0.28 | 0.02 | 95 | 1016.0 |
| 20260902185855 | 71 | 102 | 0.0 | 0.0 | 0.00 | 0.28 | 0.02 | 95 | 1015.9 |
| 20260902185646 | 71 | 102 | 0.0 | 0.0 | 0.00 | 0.28 | 0.02 | 95 | 1016.0 |
| 20260902185558 | 71 | 103 | 0.0 | 0.0 | 0.00 | 0.28 | 0.02 | 95 | 1016.2 |
| 20260902185554 | 71 | 102 | 0.0 | 0.0 | 0.00 | 0.28 | 0.02 | 95 | 1016.1 |
| 20260902185520 | 71 | 102 | 0.0 | 0.0 | 0.00 | 0.28 | 0.02 | 95 | 1016.3 |
| 20260902185438 | 71 | 103 | 0.0 | 0.0 | 0.00 | 0.28 | 0.02 | 95 | 1016.2 |
| 20260902185344 | 71 | 103 | 0.0 | 0.0 | 0.00 | 0.28 | 0.02 | 95 | 1016.3 |
| 20260902185311 | 71 | 108 | 0.0 | 0.0 | 0.00 | 0.28 | 0.02 | 95 | 1016.3 |
| 20260902185307 | 71 | 108 | 0.0 | 0.0 | 0.00 | 0.28 | 0.02 | 95 | 1016.4 |
| 20260902185301 | 71 | 108 | 0.0 | 0.0 | 0.00 | 0.28 | 0.02 | 95 | 1016.3 |
| 20260902185035 | 71 | 108 | 0.0 | 0.0 | 0.00 | 0.28 | 0.02 | 95 | 1016.5 |
| 20260902184938 | 71 | 108 | 0.0 | 0.0 | 0.00 | 0.28 | 0.02 | 95 | 1016.4 |
| 20260902184842 | 71 | 108 | 0.0 | 0.0 | 0.00 | 0.28 | 0.02 | 95 | 1016.3 |
| 20260902184740 | 71 | 108 | 0.0 | 0.0 | 0.00 | 0.28 | 0.02 | 95 | 1016.3 |
| 20260902184726 | 71 | 108 | 0.0 | 0.0 | 0.00 | 0.28 | 0.02 | 95 | 1016.3 |
| 20260902184722 | 71 | 108 | 0.0 | 0.0 | 0.00 | 0.28 | 0.02 | 95 | 1016.3 |
| 20260902184718 | 71 | 108 | 0.0 | 0.0 | 0.00 | 0.28 | 0.02 | 95 | 1016.3 |
| 20260902184713 | 71 | 108 | 0.0 | 0.0 | 0.00 | 0.28 | 0.02 | 95 | 1016.3 |
| 20260902184520 | 71 | 108 | 0.0 | 0.0 | 0.00 | 0.28 | 0.02 | 95 | 1016.4 |
| 20260902184447 | 71 | 108 | 0.0 | 0.0 | 0.00 | 0.28 | 0.02 | 95 | 1016.3 |
| 20260902184239 | 71 | 108 | 0.0 | 0.0 | 0.00 | 0.28 | 0.02 | 95 | 1016.3 |
| 20260902184139 | 71 | 108 | 0.0 | 0.0 | 0.00 | 0.28 | 0.02 | 95 | 1016.3 |
| 20260902184037 | 71 | 108 | 0.0 | 0.0 | 0.00 | 0.28 | 0.02 | 95 | 1016.4 |
| 20260902184021 | 71 | 108 | 0.0 | 0.0 | 0.00 | 0.28 | 0.02 | 95 | 1016.5 |
| 20260902183956 | 71 | 84 | 0.0 | 0.0 | 0.00 | 0.28 | 0.02 | 95 | 1016.4 |
| 20260902183947 | 71 | 108 | 0.0 | 0.0 | 0.00 | 0.28 | 0.02 | 95 | 1016.4 |
| 20260902183749 | 71 | 83 | 0.0 | 0.0 | 0.00 | 0.28 | 0.02 | 94 | 1016.4 |
| 20260902183745 | 71 | 84 | 0.0 | 0.0 | 0.00 | 0.28 | 0.02 | 94 | 1016.4 |
| 20260902183535 | 71 | 92 | 0.0 | 0.0 | 0.01 | 0.28 | 0.02 | 94 | 1016.6 |
| 20260902183433 | 71 | 92 | 0.0 | 0.0 | 0.01 | 0.28 | 0.02 | 94 | 1016.5 |
| 20260902183333 | 71 | 92 | 0.0 | 0.0 | 0.01 | 0.28 | 0.02 | 94 | 1016.4 |
| 20260902183233 | 71 | 92 | 0.0 | 0.0 | 0.01 | 0.28 | 0.02 | 94 | 1016.4 |
| 20260902183133 | 71 | 92 | 0.0 | 0.0 | 0.01 | 0.28 | 0.02 | 94 | 1016.5 |
| 20260902183031 | 71 | 92 | 0.0 | 0.0 | 0.01 | 0.28 | 0.02 | 94 | 1016.5 |
| 20260902183020 | 71 | 92 | 0.0 | 0.0 | 0.01 | 0.28 | 0.02 | 94 | 1016.6 |
| 20260902182932 | 71 | 92 | 0.0 | 0.0 | 0.01 | 0.28 | 0.02 | 94 | 1016.5 |
| 20260902182830 | 71 | 92 | 0.0 | 0.0 | 0.01 | 0.28 | 0.02 | 94 | 1016.4 |
| 20260902182742 | 71 | 97 | 0.0 | 0.0 | 0.01 | 0.28 | 0.02 | 94 | 1016.5 |
| 20260902182738 | 71 | 97 | 0.0 | 0.0 | 0.01 | 0.28 | 0.02 | 94 | 1016.5 |
| 20260902182528 | 71 | 97 | 0.0 | 0.0 | 0.01 | 0.28 | 0.02 | 94 | 1016.5 |
| 20260902182521 | 71 | 97 | 0.0 | 0.0 | 0.01 | 0.28 | 0.02 | 94 | 1016.6 |
| 20260902182428 | 71 | 97 | 0.0 | 0.0 | 0.01 | 0.28 | 0.02 | 94 | 1016.5 |
| 20260902182327 | 71 | 97 | 0.0 | 0.0 | 0.01 | 0.28 | 0.02 | 94 | 1016.5 |
| 20260902182226 | 71 | 97 | 0.0 | 0.0 | 0.01 | 0.28 | 0.02 | 94 | 1016.5 |
| 20260902182126 | 71 | 97 | 0.0 | 0.0 | 0.01 | 0.28 | 0.02 | 94 | 1016.5 |
| 20260902182026 | 71 | 97 | 0.0 | 0.0 | 0.01 | 0.28 | 0.02 | 94 | 1016.6 |
| 20260902182020 | 71 | 97 | 0.0 | 0.0 | 0.01 | 0.28 | 0.02 | 94 | 1016.7 |
| 20260902181925 | 71 | 97 | 0.0 | 0.0 | 0.01 | 0.28 | 0.02 | 94 | 1016.6 |
| 20260902181839 | 71 | 97 | 0.0 | 0.0 | 0.01 | 0.28 | 0.02 | 94 | 1016.7 |
| 20260902181834 | 71 | 97 | 0.0 | 0.0 | 0.01 | 0.28 | 0.02 | 94 | 1016.6 |
| 20260902181625 | 71 | 97 | 0.0 | 0.0 | 0.01 | 0.28 | 0.02 | 94 | 1016.7 |
| 20260902181539 | 71 | 97 | 0.0 | 0.0 | 0.01 | 0.28 | 0.02 | 94 | 1016.8 |
| 20260902181530 | 71 | 97 | 0.0 | 0.0 | 0.01 | 0.28 | 0.02 | 94 | 1016.8 |
| 20260902181520 | 71 | 97 | 0.0 | 0.0 | 0.01 | 0.28 | 0.02 | 94 | 1016.9 |
| 20260902181337 | 71 | 97 | 0.0 | 0.0 | 0.01 | 0.28 | 0.02 | 94 | 1016.8 |
| 20260902181333 | 71 | 97 | 0.0 | 0.0 | 0.01 | 0.28 | 0.02 | 94 | 1016.8 |
| 20260902181122 | 71 | 97 | 0.0 | 0.0 | 0.01 | 0.28 | 0.02 | 94 | 1016.8 |
| 20260902181050 | 71 | 97 | 0.0 | 0.0 | 0.01 | 0.28 | 0.02 | 94 | 1016.9 |
| 20260902181036 | 71 | 97 | 0.0 | 0.0 | 0.01 | 0.28 | 0.02 | 94 | 1016.8 |
| 20260902181027 | 71 | 97 | 0.0 | 0.0 | 0.01 | 0.28 | 0.02 | 94 | 1016.8 |
| 20260902180822 | 71 | 97 | 0.0 | 0.0 | 0.01 | 0.28 | 0.02 | 94 | 1016.8 |
| 20260902180748 | 71 | 97 | 0.0 | 0.0 | 0.01 | 0.28 | 0.02 | 94 | 1016.8 |
| 20260902180744 | 71 | 97 | 0.0 | 0.0 | 0.01 | 0.28 | 0.02 | 94 | 1016.8 |
| 20260902180738 | 71 | 97 | 0.0 | 0.0 | 0.01 | 0.28 | 0.02 | 94 | 1016.8 |
| 20260902180520 | 71 | 97 | 0.0 | 0.0 | 0.01 | 0.28 | 0.02 | 94 | 1017.0 |
| 20260902180419 | 71 | 97 | 0.0 | 0.0 | 0.01 | 0.28 | 0.02 | 94 | 1016.9 |
| 20260902180319 | 71 | 97 | 0.0 | 0.0 | 0.01 | 0.28 | 0.02 | 94 | 1016.9 |
| 20260902180220 | 71 | 97 | 0.0 | 0.0 | 0.01 | 0.28 | 0.02 | 94 | 1016.9 |
| 20260902180119 | 71 | 97 | 0.0 | 0.0 | 0.01 | 0.28 | 0.02 | 94 | 1017.0 |
| 20260902180020 | 71 | 97 | 0.0 | 0.0 | 0.01 | 0.28 | 0.02 | 94 | 1017.0 |
| 20260902175918 | 71 | 97 | 0.0 | 0.0 | 0.01 | 0.28 | 0.02 | 94 | 1016.9 |
| 20260902175816 | 71 | 97 | 0.0 | 0.0 | 0.01 | 0.28 | 0.02 | 94 | 1016.9 |
| 20260902175716 | 71 | 97 | 0.0 | 0.0 | 0.01 | 0.28 | 0.02 | 94 | 1017.0 |
| 20260902175616 | 71 | 97 | 0.0 | 2.0 | 0.01 | 0.28 | 0.02 | 94 | 1017.0 |
| 20260902175520 | 71 | 97 | 0.0 | 2.0 | 0.01 | 0.28 | 0.02 | 94 | 1017.0 |
| 20260902175515 | 71 | 97 | 0.0 | 2.0 | 0.01 | 0.28 | 0.02 | 94 | 1016.9 |
| 20260902175415 | 71 | 97 | 0.0 | 2.0 | 0.01 | 0.28 | 0.02 | 94 | 1016.9 |
| 20260902175315 | 71 | 97 | 0.0 | 2.0 | 0.01 | 0.28 | 0.02 | 94 | 1016.8 |
| 20260902175213 | 71 | 97 | 0.0 | 2.0 | 0.01 | 0.28 | 0.02 | 94 | 1016.8 |
| 20260902175113 | 71 | 97 | 0.0 | 2.0 | 0.01 | 0.28 | 0.02 | 93 | 1016.8 |
| 20260902175020 | 71 | 97 | 0.0 | 2.0 | 0.01 | 0.28 | 0.02 | 93 | 1016.8 |
| 20260902175012 | 71 | 97 | 0.0 | 2.0 | 0.01 | 0.28 | 0.02 | 93 | 1016.8 |
| 20260902174927 | 71 | 97 | 0.0 | 3.0 | 0.01 | 0.28 | 0.02 | 93 | 1016.7 |
| 20260902174912 | 71 | 97 | 0.0 | 4.0 | 0.01 | 0.28 | 0.02 | 93 | 1016.7 |
| 20260902174812 | 71 | 97 | 0.0 | 4.0 | 0.01 | 0.28 | 0.02 | 93 | 1016.7 |
| 20260902174711 | 71 | 97 | 1.0 | 5.0 | 0.01 | 0.28 | 0.02 | 93 | 1016.7 |
| 20260902174611 | 71 | 97 | 1.0 | 5.0 | 0.01 | 0.28 | 0.02 | 93 | 1016.7 |
| 20260902174520 | 71 | 97 | 0.0 | 6.0 | 0.01 | 0.28 | 0.02 | 93 | 1016.8 |
| 20260902174513 | 71 | 97 | 1.0 | 6.0 | 0.01 | 0.28 | 0.02 | 93 | 1016.7 |
| 20260902174424 | 71 | 97 | 1.0 | 6.0 | 0.01 | 0.28 | 0.02 | 93 | 1016.7 |
| 20260902174410 | 71 | 97 | 1.0 | 7.0 | 0.01 | 0.28 | 0.02 | 93 | 1016.7 |
| 20260902174309 | 71 | 97 | 1.0 | 8.0 | 0.01 | 0.28 | 0.02 | 93 | 1016.7 |
| 20260902174223 | 71 | 97 | 2.0 | 8.0 | 0.01 | 0.28 | 0.02 | 93 | 1016.6 |
| 20260902174218 | 71 | 97 | 1.0 | 8.0 | 0.01 | 0.28 | 0.02 | 93 | 1016.6 |
| 20260902174102 | 71 | 64 | 2.0 | 8.0 | 0.01 | 0.28 | 0.02 | 93 | 1016.5 |
| 20260902174058 | 71 | 87 | 2.0 | 8.0 | 0.01 | 0.28 | 0.02 | 93 | 1016.4 |
| 20260902174051 | 71 | 97 | 2.0 | 8.0 | 0.01 | 0.28 | 0.02 | 93 | 1016.5 |
| 20260902174044 | 71 | 96 | 2.0 | 8.0 | 0.01 | 0.28 | 0.02 | 93 | 1016.5 |
| 20260902174035 | 71 | 97 | 0.0 | 8.0 | 0.01 | 0.28 | 0.02 | 93 | 1016.6 |
| 20260902173823 | 71 | 137 | 2.0 | 8.0 | 0.01 | 0.28 | 0.02 | 93 | 1016.4 |
| 20260902173520 | 71 | 107 | 0.0 | 8.0 | 0.00 | 0.27 | 0.01 | 93 | 1016.4 |
| 20260902173505 | 71 | 106 | 2.0 | 8.0 | 0.00 | 0.27 | 0.01 | 93 | 1016.3 |
| 20260902173423 | 71 | 102 | 2.0 | 8.0 | 0.00 | 0.27 | 0.01 | 93 | 1016.3 |
| 20260902173404 | 71 | 102 | 2.0 | 4.0 | 0.00 | 0.27 | 0.01 | 93 | 1016.2 |
| 20260902173304 | 71 | 115 | 2.0 | 4.0 | 0.00 | 0.27 | 0.01 | 93 | 1016.2 |
| 20260902173203 | 71 | 107 | 2.0 | 4.0 | 0.00 | 0.27 | 0.01 | 92 | 1016.2 |
| 20260902173139 | 71 | 105 | 2.0 | 6.0 | 0.00 | 0.27 | 0.01 | 92 | 1016.4 |
| 20260902173103 | 71 | 107 | 2.0 | 4.0 | 0.00 | 0.27 | 0.01 | 93 | 1016.3 |
| 20260902173029 | 71 | 107 | 2.0 | 6.0 | 0.00 | 0.27 | 0.01 | 92 | 1016.4 |
| 20260902173020 | 71 | 107 | 3.0 | 6.0 | 0.00 | 0.27 | 0.01 | 92 | 1016.5 |
| 20260902172901 | 71 | 105 | 2.0 | 6.0 | 0.00 | 0.27 | 0.01 | 92 | 1016.5 |
| 20260902172802 | 71 | 105 | 2.0 | 6.0 | 0.00 | 0.27 | 0.01 | 92 | 1016.5 |
| 20260902172753 | 71 | 100 | 2.0 | 6.0 | 0.00 | 0.27 | 0.01 | 92 | 1016.6 |
| 20260902172601 | 71 | 100 | 2.0 | 6.0 | 0.00 | 0.27 | 0.01 | 92 | 1016.6 |
| 20260902172535 | 71 | 101 | 2.0 | 6.0 | 0.00 | 0.27 | 0.01 | 92 | 1016.7 |
| 20260902172528 | 71 | 101 | 2.0 | 6.0 | 0.00 | 0.27 | 0.01 | 92 | 1016.6 |
| 20260902172401 | 71 | 107 | 2.0 | 6.0 | 0.00 | 0.27 | 0.01 | 92 | 1016.6 |
| 20260902172300 | 71 | 108 | 2.0 | 6.0 | 0.00 | 0.27 | 0.01 | 92 | 1016.7 |
| 20260902172159 | 71 | 107 | 2.0 | 6.0 | 0.00 | 0.27 | 0.01 | 92 | 1016.7 |
| 20260902172059 | 71 | 110 | 2.0 | 4.0 | 0.00 | 0.27 | 0.01 | 92 | 1016.8 |
| 20260902172020 | 71 | 108 | 2.0 | 4.0 | 0.00 | 0.27 | 0.01 | 92 | 1016.9 |
| 20260902171958 | 71 | 108 | 2.0 | 4.0 | 0.00 | 0.27 | 0.01 | 92 | 1016.8 |
| 20260902171918 | 71 | 119 | 2.0 | 5.0 | 0.00 | 0.27 | 0.01 | 92 | 1016.8 |
| 20260902171858 | 71 | 119 | 2.0 | 5.0 | 0.00 | 0.27 | 0.01 | 92 | 1016.9 |
| 20260902171758 | 71 | 111 | 2.0 | 5.0 | 0.00 | 0.27 | 0.01 | 92 | 1016.9 |
| 20260902171657 | 71 | 111 | 2.0 | 5.0 | 0.00 | 0.27 | 0.01 | 92 | 1017.0 |
| 20260902171639 | 71 | 111 | 2.0 | 5.0 | 0.00 | 0.27 | 0.01 | 92 | 1017.0 |
| 20260902171557 | 71 | 111 | 2.0 | 5.0 | 0.00 | 0.27 | 0.01 | 92 | 1017.0 |
| 20260902171526 | 71 | 111 | 2.0 | 5.0 | 0.00 | 0.27 | 0.01 | 92 | 1017.0 |
| 20260902171520 | 72 | 111 | 2.0 | 4.0 | 0.00 | 0.27 | 0.01 | 92 | 1017.1 |
| 20260902171355 | 71 | 115 | 2.0 | 5.0 | 0.00 | 0.27 | 0.01 | 92 | 1017.0 |
| 20260902171255 | 71 | 161 | 2.0 | 5.0 | 0.00 | 0.27 | 0.01 | 92 | 1017.1 |
| 20260902171209 | 71 | 162 | 2.0 | 5.0 | 0.00 | 0.27 | 0.01 | 92 | 1017.1 |
| 20260902171204 | 71 | 162 | 2.0 | 5.0 | 0.00 | 0.27 | 0.01 | 92 | 1017.1 |
| 20260902171020 | 72 | 168 | 4.0 | 4.0 | 0.00 | 0.27 | 0.01 | 91 | 1017.3 |
| 20260902170955 | 72 | 169 | 2.0 | 5.0 | 0.00 | 0.27 | 0.01 | 91 | 1017.2 |
| 20260902170919 | 72 | 116 | 2.0 | 4.0 | 0.00 | 0.27 | 0.01 | 91 | 1017.2 |
| 20260902170855 | 72 | 116 | 2.0 | 4.0 | 0.00 | 0.27 | 0.01 | 91 | 1017.2 |
| 20260902170809 | 72 | 116 | 2.0 | 4.0 | 0.00 | 0.27 | 0.01 | 91 | 1017.2 |
| 20260902170805 | 72 | 116 | 2.0 | 4.0 | 0.00 | 0.27 | 0.01 | 91 | 1017.2 |
| 20260902170555 | 72 | 116 | 2.0 | 4.0 | 0.00 | 0.27 | 0.01 | 91 | 1017.3 |
| 20260902170520 | 72 | 116 | 2.0 | 4.0 | 0.00 | 0.27 | 0.01 | 91 | 1017.4 |
| 20260902170454 | 72 | 116 | 2.0 | 4.0 | 0.00 | 0.27 | 0.01 | 91 | 1017.3 |
| 20260902170416 | 72 | 117 | 2.0 | 4.0 | 0.00 | 0.27 | 0.01 | 91 | 1017.3 |
| 20260902170355 | 72 | 116 | 2.0 | 4.0 | 0.00 | 0.27 | 0.01 | 91 | 1017.3 |
| 20260902170251 | 72 | 117 | 2.0 | 4.0 | 0.00 | 0.27 | 0.01 | 91 | 1017.3 |
| 20260902170151 | 72 | 103 | 2.0 | 4.0 | 0.00 | 0.27 | 0.01 | 92 | 1017.3 |
| 20260902170051 | 72 | 102 | 2.0 | 4.0 | 0.00 | 0.27 | 0.01 | 92 | 1017.3 |
| 20260902170020 | 72 | 102 | 0.0 | 4.0 | 0.00 | 0.27 | 0.01 | 92 | 1017.4 |
| 20260902165950 | 72 | 102 | 2.0 | 4.0 | 0.00 | 0.27 | 0.01 | 92 | 1017.3 |
| 20260902165916 | 72 | 102 | 2.0 | 4.0 | 0.00 | 0.27 | 0.01 | 92 | 1017.3 |
| 20260902165851 | 72 | 102 | 2.0 | 4.0 | 0.00 | 0.27 | 0.01 | 91 | 1017.3 |
| 20260902165750 | 72 | 102 | 2.0 | 4.0 | 0.00 | 0.27 | 0.01 | 91 | 1017.2 |
| 20260902165650 | 72 | 101 | 2.0 | 4.0 | 0.00 | 0.27 | 0.01 | 91 | 1017.2 |
| 20260902165549 | 72 | 101 | 2.0 | 4.0 | 0.00 | 0.27 | 0.01 | 91 | 1017.2 |
| 20260902165520 | 72 | 101 | 1.0 | 4.0 | 0.00 | 0.27 | 0.01 | 91 | 1017.3 |
| 20260902165507 | 72 | 101 | 2.0 | 4.0 | 0.00 | 0.27 | 0.01 | 91 | 1017.2 |
| 20260902165356 | 72 | 101 | 2.0 | 4.0 | 0.00 | 0.27 | 0.01 | 91 | 1017.2 |
| 20260902165146 | 72 | 88 | 2.0 | 4.0 | 0.00 | 0.27 | 0.01 | 91 | 1017.3 |
| 20260902165046 | 72 | 88 | 2.0 | 4.0 | 0.00 | 0.27 | 0.01 | 92 | 1017.2 |
| 20260902165020 | 72 | 87 | 3.0 | 4.0 | 0.00 | 0.27 | 0.01 | 92 | 1017.3 |
| 20260902164944 | 72 | 84 | 2.0 | 4.0 | 0.00 | 0.27 | 0.01 | 92 | 1017.2 |
| 20260902164916 | 72 | 112 | 2.0 | 4.0 | 0.00 | 0.27 | 0.01 | 92 | 1017.2 |
| 20260902164844 | 72 | 112 | 2.0 | 4.0 | 0.00 | 0.27 | 0.01 | 92 | 1017.2 |
| 20260902164744 | 72 | 92 | 2.0 | 4.0 | 0.00 | 0.27 | 0.01 | 92 | 1017.2 |
| 20260902164644 | 72 | 92 | 2.0 | 4.0 | 0.00 | 0.27 | 0.01 | 92 | 1017.2 |
| 20260902164637 | 72 | 92 | 2.0 | 4.0 | 0.00 | 0.27 | 0.01 | 91 | 1017.2 |
| 20260902164631 | 72 | 92 | 2.0 | 4.0 | 0.00 | 0.27 | 0.01 | 91 | 1017.2 |
| 20260902164521 | 72 | 92 | 0.0 | 4.0 | 0.00 | 0.27 | 0.01 | 91 | 1017.3 |
| 20260902164355 | 72 | 83 | 3.0 | 7.0 | 0.00 | 0.27 | 0.01 | 91 | 1017.1 |
| 20260902164351 | 72 | 93 | 2.0 | 5.0 | 0.00 | 0.27 | 0.01 | 91 | 1017.2 |
| 20260902164204 | 72 | 63 | 2.0 | 7.0 | 0.00 | 0.27 | 0.01 | 91 | 1017.1 |
| 20260902164142 | 72 | 81 | 3.0 | 7.0 | 0.00 | 0.27 | 0.01 | 91 | 1017.1 |
| 20260902164109 | 72 | 63 | 2.0 | 7.0 | 0.00 | 0.27 | 0.01 | 91 | 1017.1 |
| 20260902164104 | 72 | 61 | 2.0 | 7.0 | 0.00 | 0.27 | 0.01 | 91 | 1017.1 |
| 20260902164055 | 72 | 46 | 2.0 | 7.0 | 0.00 | 0.27 | 0.01 | 91 | 1017.1 |
| 20260902164020 | 72 | 46 | 1.0 | 7.0 | 0.00 | 0.27 | 0.01 | 91 | 1017.2 |
| 20260902163815 | 72 | 69 | 2.0 | 7.0 | 0.00 | 0.27 | 0.01 | 92 | 1016.9 |
| 20260902163809 | 72 | 71 | 2.0 | 7.0 | 0.00 | 0.27 | 0.01 | 91 | 1017.0 |
| 20260902163547 | 72 | 112 | 2.0 | 7.0 | 0.00 | 0.27 | 0.01 | 91 | 1017.0 |
| 20260902163520 | 72 | 112 | 3.0 | 7.0 | 0.00 | 0.27 | 0.01 | 91 | 1017.1 |
| 20260902163412 | 72 | 72 | 2.0 | 7.0 | 0.00 | 0.27 | 0.01 | 92 | 1017.0 |
| 20260902163337 | 72 | 76 | 2.0 | 6.0 | 0.00 | 0.27 | 0.01 | 92 | 1017.1 |
| 20260902163237 | 72 | 59 | 2.0 | 6.0 | 0.00 | 0.27 | 0.01 | 92 | 1017.1 |
| 20260902163135 | 72 | 69 | 2.0 | 6.0 | 0.00 | 0.27 | 0.01 | 92 | 1017.1 |
| 20260902163035 | 72 | 78 | 2.0 | 6.0 | 0.00 | 0.27 | 0.01 | 92 | 1017.1 |
| 20260902163020 | 72 | 78 | 1.0 | 5.0 | 0.00 | 0.27 | 0.01 | 92 | 1017.2 |
| 20260902162951 | 72 | 78 | 2.0 | 6.0 | 0.00 | 0.27 | 0.01 | 92 | 1017.1 |
| 20260902162947 | 72 | 78 | 2.0 | 6.0 | 0.00 | 0.27 | 0.01 | 92 | 1017.1 |
| 20260902162939 | 72 | 78 | 2.0 | 6.0 | 0.00 | 0.27 | 0.01 | 92 | 1017.1 |
| 20260902162734 | 72 | 89 | 2.0 | 6.0 | 0.00 | 0.27 | 0.01 | 92 | 1017.1 |
| 20260902162632 | 72 | 89 | 1.0 | 6.0 | 0.00 | 0.27 | 0.01 | 92 | 1017.1 |
| 20260902162613 | 72 | 88 | 1.0 | 6.0 | 0.00 | 0.27 | 0.01 | 92 | 1017.1 |
| 20260902162520 | 72 | 88 | 1.0 | 5.0 | 0.00 | 0.27 | 0.01 | 92 | 1017.2 |
| 20260902162500 | 71 | 88 | 2.0 | 6.0 | 0.00 | 0.27 | 0.01 | 92 | 1017.1 |
| 20260902162455 | 71 | 88 | 2.0 | 6.0 | 0.00 | 0.27 | 0.01 | 92 | 1017.1 |
| 20260902162447 | 71 | 88 | 2.0 | 6.0 | 0.00 | 0.27 | 0.01 | 92 | 1017.1 |
| 20260902162131 | 71 | 88 | 2.0 | 6.0 | 0.00 | 0.27 | 0.01 | 92 | 1017.2 |
| 20260902162029 | 71 | 88 | 2.0 | 6.0 | 0.00 | 0.27 | 0.01 | 92 | 1017.2 |
| 20260902162020 | 72 | 84 | 4.0 | 5.0 | 0.00 | 0.27 | 0.01 | 92 | 1017.3 |
| 20260902161929 | 71 | 88 | 2.0 | 5.0 | 0.00 | 0.27 | 0.01 | 92 | 1017.2 |
| 20260902161910 | 71 | 87 | 2.0 | 5.0 | 0.00 | 0.27 | 0.01 | 92 | 1017.2 |
| 20260902161828 | 71 | 87 | 2.0 | 5.0 | 0.00 | 0.27 | 0.01 | 93 | 1017.3 |
| 20260902161728 | 71 | 88 | 2.0 | 5.0 | 0.00 | 0.27 | 0.01 | 92 | 1017.2 |
| 20260902161649 | 71 | 88 | 2.0 | 5.0 | 0.00 | 0.27 | 0.01 | 92 | 1017.2 |
| 20260902161536 | 71 | 88 | 2.0 | 5.0 | 0.00 | 0.27 | 0.01 | 92 | 1017.2 |
| 20260902161520 | 71 | 88 | 2.0 | 5.0 | 0.00 | 0.27 | 0.01 | 92 | 1017.4 |
| 20260902161410 | 71 | 90 | 2.0 | 5.0 | 0.00 | 0.27 | 0.01 | 92 | 1017.3 |
| 20260902161326 | 71 | 90 | 2.0 | 5.0 | 0.00 | 0.27 | 0.01 | 92 | 1017.2 |
| 20260902161226 | 71 | 90 | 2.0 | 5.0 | 0.00 | 0.27 | 0.01 | 92 | 1017.2 |
| 20260902161124 | 71 | 90 | 2.0 | 5.0 | 0.00 | 0.27 | 0.01 | 92 | 1017.3 |
| 20260902161023 | 71 | 55 | 2.0 | 5.0 | 0.00 | 0.27 | 0.01 | 92 | 1017.3 |
| 20260902161020 | 71 | 61 | 3.0 | 4.0 | 0.00 | 0.27 | 0.01 | 93 | 1017.4 |
| 20260902160924 | 71 | 61 | 2.0 | 4.0 | 0.00 | 0.27 | 0.01 | 92 | 1017.3 |
| 20260902160909 | 71 | 84 | 2.0 | 4.0 | 0.00 | 0.27 | 0.01 | 92 | 1017.3 |
| 20260902160822 | 71 | 85 | 2.0 | 4.0 | 0.00 | 0.27 | 0.01 | 92 | 1017.3 |
| 20260902160722 | 71 | 85 | 2.0 | 4.0 | 0.00 | 0.27 | 0.01 | 92 | 1017.3 |
| 20260902160620 | 71 | 85 | 2.0 | 4.0 | 0.00 | 0.27 | 0.01 | 92 | 1017.2 |
| 20260902160520 | 71 | 84 | 3.0 | 4.0 | 0.00 | 0.27 | 0.01 | 93 | 1017.2 |
| 20260902160410 | 71 | 82 | 1.0 | 4.0 | 0.00 | 0.27 | 0.01 | 93 | 1017.1 |
| 20260902160331 | 71 | 109 | 1.0 | 4.0 | 0.00 | 0.27 | 0.01 | 93 | 1017.0 |
| 20260902160327 | 71 | 109 | 1.0 | 4.0 | 0.00 | 0.27 | 0.01 | 93 | 1017.0 |
| 20260902160135 | 71 | 109 | 1.0 | 4.0 | 0.00 | 0.27 | 0.01 | 93 | 1017.1 |
| 20260902160118 | 71 | 107 | 1.0 | 4.0 | 0.00 | 0.27 | 0.01 | 93 | 1017.1 |
| 20260902160024 | 71 | 107 | 1.0 | 4.0 | 0.00 | 0.27 | 0.01 | 93 | 1017.1 |
| 20260902160020 | 71 | 107 | 1.0 | 4.0 | 0.00 | 0.27 | 0.01 | 93 | 1017.2 |
| 20260902160015 | 71 | 107 | 1.0 | 4.0 | 0.00 | 0.27 | 0.01 | 93 | 1017.1 |
| 20260902155829 | 71 | 109 | 1.0 | 4.0 | 0.00 | 0.27 | 0.01 | 93 | 1017.1 |
| 20260902155825 | 71 | 109 | 1.0 | 4.0 | 0.00 | 0.27 | 0.01 | 93 | 1017.1 |
| 20260902155614 | 71 | 109 | 2.0 | 4.0 | 0.00 | 0.27 | 0.01 | 93 | 1017.2 |
| 20260902155520 | 71 | 109 | 1.0 | 7.0 | 0.00 | 0.27 | 0.01 | 93 | 1017.3 |
| 20260902155514 | 71 | 109 | 2.0 | 7.0 | 0.00 | 0.27 | 0.01 | 93 | 1017.1 |
| 20260902155414 | 71 | 107 | 2.0 | 8.0 | 0.00 | 0.27 | 0.01 | 93 | 1017.2 |
| 20260902155406 | 71 | 103 | 2.0 | 8.0 | 0.00 | 0.27 | 0.01 | 93 | 1017.2 |
| 20260902155312 | 71 | 100 | 2.0 | 8.0 | 0.00 | 0.27 | 0.01 | 93 | 1017.2 |
| 20260902155212 | 71 | 100 | 2.0 | 8.0 | 0.00 | 0.27 | 0.01 | 93 | 1017.2 |
| 20260902155111 | 71 | 100 | 3.0 | 8.0 | 0.00 | 0.27 | 0.01 | 93 | 1017.1 |
| 20260902155026 | 71 | 101 | 3.0 | 8.0 | 0.00 | 0.27 | 0.01 | 93 | 1017.0 |
| 20260902155022 | 71 | 101 | 3.0 | 8.0 | 0.00 | 0.27 | 0.01 | 93 | 1017.1 |
| 20260902155020 | 71 | 101 | 0.0 | 8.0 | 0.00 | 0.27 | 0.01 | 93 | 1017.1 |
| 20260902154905 | 71 | 101 | 3.0 | 8.0 | 0.00 | 0.27 | 0.01 | 93 | 1017.0 |
| 20260902154810 | 71 | 106 | 3.0 | 8.0 | 0.00 | 0.27 | 0.01 | 93 | 1017.0 |
| 20260902154710 | 71 | 95 | 3.0 | 8.0 | 0.00 | 0.27 | 0.01 | 93 | 1017.0 |
| 20260902154610 | 71 | 86 | 3.0 | 8.0 | 0.00 | 0.27 | 0.01 | 93 | 1016.9 |
| 20260902154521 | 71 | 94 | 4.0 | 8.0 | 0.00 | 0.27 | 0.01 | 93 | 1017.1 |
| 20260902154510 | 71 | 98 | 3.0 | 8.0 | 0.00 | 0.27 | 0.01 | 93 | 1017.0 |
| 20260902154412 | 71 | 57 | 3.0 | 8.0 | 0.00 | 0.27 | 0.01 | 93 | 1017.0 |
| 20260902154406 | 71 | 57 | 3.0 | 8.0 | 0.00 | 0.27 | 0.01 | 93 | 1016.9 |
| 20260902154308 | 71 | 97 | 3.0 | 8.0 | 0.00 | 0.27 | 0.01 | 93 | 1016.9 |
| 20260902154207 | 71 | 52 | 3.0 | 8.0 | 0.00 | 0.27 | 0.01 | 93 | 1016.9 |
| 20260902154152 | 71 | 127 | 2.0 | 8.0 | 0.00 | 0.27 | 0.01 | 94 | 1016.9 |
| 20260902154148 | 71 | 96 | 2.0 | 8.0 | 0.00 | 0.27 | 0.01 | 94 | 1016.9 |
| 20260902154144 | 71 | 96 | 3.0 | 8.0 | 0.00 | 0.27 | 0.01 | 94 | 1016.8 |
| 20260902154138 | 71 | 89 | 2.0 | 8.0 | 0.00 | 0.27 | 0.01 | 93 | 1016.9 |
| 20260902154021 | 71 | 109 | 4.0 | 8.0 | 0.00 | 0.27 | 0.01 | 94 | 1017.0 |
| 20260902153718 | 71 | 96 | 2.0 | 8.0 | 0.00 | 0.27 | 0.01 | 94 | 1016.7 |
| 20260902153713 | 71 | 96 | 3.0 | 8.0 | 0.00 | 0.27 | 0.01 | 94 | 1016.8 |
| 20260902153520 | 71 | 83 | 2.0 | 5.0 | 0.00 | 0.27 | 0.01 | 94 | 1016.8 |
| 20260902153504 | 71 | 83 | 2.0 | 5.0 | 0.00 | 0.27 | 0.01 | 94 | 1016.7 |
| 20260902153403 | 71 | 65 | 2.0 | 6.0 | 0.00 | 0.27 | 0.01 | 94 | 1016.7 |
| 20260902153304 | 71 | 92 | 2.0 | 6.0 | 0.00 | 0.27 | 0.01 | 94 | 1016.7 |
| 20260902153203 | 71 | 84 | 3.0 | 6.0 | 0.00 | 0.27 | 0.01 | 94 | 1016.8 |
| 20260902153102 | 71 | 84 | 3.0 | 6.0 | 0.00 | 0.27 | 0.01 | 94 | 1016.8 |
| 20260902153021 | 71 | 85 | 4.0 | 6.0 | 0.00 | 0.27 | 0.01 | 94 | 1016.9 |
| 20260902153002 | 71 | 86 | 3.0 | 6.0 | 0.00 | 0.27 | 0.01 | 94 | 1016.8 |
| 20260902152907 | 71 | 111 | 3.0 | 6.0 | 0.00 | 0.27 | 0.01 | 94 | 1016.7 |
| 20260902152901 | 71 | 111 | 3.0 | 6.0 | 0.00 | 0.27 | 0.01 | 94 | 1016.7 |
| 20260902152800 | 71 | 111 | 3.0 | 6.0 | 0.00 | 0.27 | 0.01 | 94 | 1016.7 |
| 20260902152700 | 71 | 111 | 3.0 | 6.0 | 0.00 | 0.27 | 0.01 | 94 | 1016.7 |
| 20260902152600 | 71 | 69 | 2.0 | 6.0 | 0.00 | 0.27 | 0.01 | 94 | 1016.7 |
| 20260902152520 | 71 | 106 | 3.0 | 6.0 | 0.00 | 0.27 | 0.01 | 94 | 1016.9 |
| 20260902152459 | 70 | 106 | 2.0 | 6.0 | 0.00 | 0.27 | 0.01 | 94 | 1016.8 |
| 20260902152403 | 70 | 72 | 3.0 | 6.0 | 0.00 | 0.27 | 0.01 | 94 | 1016.8 |
| 20260902152358 | 70 | 72 | 3.0 | 6.0 | 0.00 | 0.27 | 0.01 | 94 | 1016.8 |
| 20260902152257 | 71 | 71 | 3.0 | 6.0 | 0.00 | 0.27 | 0.01 | 94 | 1016.8 |
| 20260902152157 | 70 | 80 | 2.0 | 7.0 | 0.00 | 0.27 | 0.01 | 94 | 1016.7 |
| 20260902152057 | 70 | 88 | 3.0 | 7.0 | 0.00 | 0.27 | 0.01 | 94 | 1016.7 |
| 20260902152021 | 70 | 34 | 2.0 | 7.0 | 0.00 | 0.27 | 0.01 | 94 | 1016.8 |
| 20260902151956 | 70 | 34 | 2.0 | 7.0 | 0.00 | 0.27 | 0.01 | 94 | 1016.7 |
| 20260902151903 | 70 | 72 | 2.0 | 7.0 | 0.00 | 0.27 | 0.01 | 94 | 1016.7 |
| 20260902151855 | 70 | 95 | 2.0 | 7.0 | 0.00 | 0.27 | 0.01 | 94 | 1016.7 |
| 20260902151755 | 70 | 115 | 3.0 | 7.0 | 0.00 | 0.27 | 0.01 | 94 | 1016.7 |
| 20260902151654 | 70 | 115 | 3.0 | 7.0 | 0.00 | 0.27 | 0.01 | 94 | 1016.8 |
| 20260902151607 | 70 | 96 | 3.0 | 7.0 | 0.00 | 0.27 | 0.01 | 94 | 1016.9 |
| 20260902151603 | 70 | 115 | 3.0 | 7.0 | 0.00 | 0.27 | 0.01 | 94 | 1016.9 |
| 20260902151550 | 70 | 96 | 3.0 | 7.0 | 0.00 | 0.27 | 0.01 | 94 | 1017.0 |
| 20260902151410 | 70 | 115 | 3.0 | 7.0 | 0.00 | 0.27 | 0.01 | 94 | 1016.8 |
| 20260902151406 | 70 | 98 | 3.0 | 7.0 | 0.00 | 0.27 | 0.01 | 94 | 1016.8 |
| 20260902151401 | 70 | 81 | 3.0 | 7.0 | 0.00 | 0.27 | 0.01 | 94 | 1016.8 |
| 20260902151230 | 70 | 70 | 3.0 | 6.0 | 0.00 | 0.27 | 0.01 | 94 | 1016.9 |
| 20260902151050 | 70 | 67 | 2.0 | 6.0 | 0.00 | 0.27 | 0.01 | 94 | 1016.9 |
| 20260902151021 | 70 | 71 | 3.0 | 6.0 | 0.00 | 0.27 | 0.01 | 95 | 1017.0 |
| 20260902151013 | 70 | 59 | 2.0 | 6.0 | 0.00 | 0.27 | 0.01 | 95 | 1016.9 |
| 20260902150849 | 70 | 59 | 2.0 | 6.0 | 0.00 | 0.27 | 0.01 | 95 | 1016.9 |
| 20260902150749 | 70 | 107 | 2.0 | 6.0 | 0.00 | 0.27 | 0.01 | 95 | 1016.9 |
| 20260902150700 | 70 | 104 | 2.0 | 6.0 | 0.00 | 0.27 | 0.01 | 95 | 1016.9 |
| 20260902150656 | 70 | 326 | 2.0 | 6.0 | 0.00 | 0.27 | 0.01 | 95 | 1016.9 |
| 20260902150521 | 70 | 90 | 2.0 | 7.0 | 0.00 | 0.27 | 0.01 | 95 | 1017.1 |
| 20260902150446 | 70 | 90 | 2.0 | 7.0 | 0.00 | 0.27 | 0.01 | 95 | 1017.0 |
| 20260902150403 | 70 | 90 | 2.0 | 7.0 | 0.00 | 0.27 | 0.01 | 95 | 1016.9 |
| 20260902150346 | 70 | 90 | 2.0 | 7.0 | 0.00 | 0.27 | 0.01 | 95 | 1016.9 |
| 20260902150247 | 70 | 83 | 2.0 | 7.0 | 0.00 | 0.27 | 0.01 | 95 | 1017.0 |
| 20260902150156 | 70 | 80 | 2.0 | 7.0 | 0.00 | 0.27 | 0.01 | 95 | 1017.0 |
| 20260902150152 | 70 | 83 | 2.0 | 7.0 | 0.00 | 0.27 | 0.01 | 95 | 1017.0 |
| 20260902150021 | 70 | 80 | 2.0 | 7.0 | 0.00 | 0.27 | 0.01 | 95 | 1017.1 |
| 20260902145959 | 70 | 80 | 2.0 | 7.0 | 0.00 | 0.27 | 0.01 | 95 | 1017.0 |
| 20260902145849 | 70 | 80 | 2.0 | 7.0 | 0.00 | 0.27 | 0.01 | 95 | 1017.0 |
| 20260902145840 | 70 | 76 | 2.0 | 7.0 | 0.00 | 0.27 | 0.01 | 95 | 1017.1 |
| 20260902145727 | 70 | 62 | 2.0 | 7.0 | 0.00 | 0.27 | 0.01 | 95 | 1017.0 |
| 20260902145520 | 70 | 92 | 3.0 | 6.0 | 0.00 | 0.27 | 0.01 | 95 | 1017.1 |
| 20260902145504 | 70 | 90 | 2.0 | 6.0 | 0.00 | 0.27 | 0.01 | 95 | 1017.0 |
| 20260902145455 | 70 | 88 | 2.0 | 6.0 | 0.00 | 0.27 | 0.01 | 95 | 1017.1 |
| 20260902145140 | 70 | 86 | 2.0 | 6.0 | 0.00 | 0.27 | 0.01 | 95 | 1017.1 |
| 20260902145107 | 70 | 78 | 2.0 | 6.0 | 0.00 | 0.27 | 0.01 | 95 | 1017.2 |
| 20260902145020 | 70 | 78 | 0.0 | 6.0 | 0.00 | 0.27 | 0.01 | 95 | 1017.2 |
| 20260902144954 | 70 | 77 | 2.0 | 6.0 | 0.00 | 0.27 | 0.01 | 95 | 1017.1 |
| 20260902144945 | 70 | 76 | 3.0 | 6.0 | 0.00 | 0.27 | 0.01 | 95 | 1017.2 |
| 20260902144738 | 70 | 77 | 2.0 | 6.0 | 0.00 | 0.27 | 0.01 | 96 | 1017.1 |
| 20260902144700 | 70 | 44 | 2.0 | 6.0 | 0.00 | 0.27 | 0.01 | 96 | 1017.0 |
| 20260902144546 | 70 | 105 | 2.0 | 6.0 | 0.00 | 0.27 | 0.01 | 96 | 1017.0 |
| 20260902144521 | 70 | 105 | 2.0 | 6.0 | 0.00 | 0.27 | 0.01 | 96 | 1017.1 |
| 20260902144400 | 70 | 108 | 3.0 | 6.0 | 0.00 | 0.27 | 0.01 | 96 | 1017.0 |
| 20260902144349 | 70 | 108 | 3.0 | 7.0 | 0.00 | 0.27 | 0.01 | 96 | 1017.0 |
| 20260902144345 | 70 | 108 | 3.0 | 7.0 | 0.00 | 0.27 | 0.01 | 96 | 1017.0 |
| 20260902144135 | 70 | 92 | 3.0 | 7.0 | 0.00 | 0.27 | 0.01 | 96 | 1017.0 |
| 20260902144034 | 70 | 92 | 3.0 | 7.0 | 0.00 | 0.27 | 0.01 | 96 | 1017.0 |
| 20260902144020 | 70 | 92 | 3.0 | 7.0 | 0.00 | 0.27 | 0.01 | 96 | 1017.1 |
| 20260902143934 | 70 | 77 | 3.0 | 7.0 | 0.00 | 0.27 | 0.01 | 96 | 1017.0 |
| 20260902143859 | 70 | 84 | 3.0 | 7.0 | 0.00 | 0.27 | 0.01 | 96 | 1017.0 |
| 20260902143833 | 70 | 83 | 3.0 | 7.0 | 0.00 | 0.27 | 0.01 | 96 | 1017.0 |
| 20260902143733 | 70 | 82 | 3.0 | 7.0 | 0.00 | 0.27 | 0.01 | 96 | 1017.0 |
| 20260902143632 | 70 | 85 | 3.0 | 7.0 | 0.00 | 0.27 | 0.01 | 96 | 1017.0 |
| 20260902143531 | 70 | 80 | 3.0 | 7.0 | 0.00 | 0.27 | 0.01 | 96 | 1017.0 |
| 20260902143520 | 70 | 83 | 4.0 | 7.0 | 0.00 | 0.27 | 0.01 | 96 | 1017.1 |
| 20260902143431 | 70 | 71 | 3.0 | 7.0 | 0.00 | 0.27 | 0.01 | 96 | 1017.0 |
| 20260902143359 | 70 | 104 | 2.0 | 7.0 | 0.00 | 0.27 | 0.01 | 96 | 1017.0 |
| 20260902143329 | 70 | 80 | 2.0 | 7.0 | 0.00 | 0.27 | 0.01 | 96 | 1017.0 |
| 20260902143242 | 70 | 14 | 2.0 | 6.0 | 0.00 | 0.27 | 0.01 | 96 | 1017.0 |
| 20260902143238 | 70 | 77 | 2.0 | 6.0 | 0.00 | 0.27 | 0.01 | 96 | 1017.0 |
| 20260902143028 | 70 | 13 | 1.0 | 6.0 | 0.00 | 0.27 | 0.01 | 96 | 1017.1 |
| 20260902143020 | 70 | 117 | 3.0 | 6.0 | 0.00 | 0.27 | 0.01 | 96 | 1017.2 |
| 20260902142928 | 70 | 60 | 1.0 | 6.0 | 0.00 | 0.27 | 0.01 | 96 | 1017.1 |
| 20260902142859 | 70 | 71 | 1.0 | 5.0 | 0.00 | 0.27 | 0.01 | 96 | 1017.1 |
| 20260902142828 | 70 | 76 | 1.0 | 5.0 | 0.00 | 0.27 | 0.01 | 96 | 1017.1 |
| 20260902142726 | 70 | 100 | 1.0 | 4.0 | 0.00 | 0.27 | 0.01 | 96 | 1017.2 |
| 20260902142633 | 70 | 78 | 1.0 | 4.0 | 0.00 | 0.27 | 0.01 | 97 | 1017.1 |
| 20260902142629 | 70 | 49 | 1.0 | 4.0 | 0.00 | 0.27 | 0.01 | 96 | 1017.1 |
| 20260902142625 | 70 | 98 | 1.0 | 4.0 | 0.00 | 0.27 | 0.01 | 96 | 1017.2 |
| 20260902142616 | 70 | 49 | 1.0 | 4.0 | 0.00 | 0.27 | 0.01 | 96 | 1017.2 |
| 20260902142521 | 70 | 49 | 0.0 | 4.0 | 0.00 | 0.27 | 0.01 | 96 | 1017.2 |
| 20260902142337 | 70 | 95 | 1.0 | 4.0 | 0.00 | 0.27 | 0.01 | 97 | 1017.1 |
| 20260902142333 | 70 | 71 | 1.0 | 4.0 | 0.00 | 0.27 | 0.01 | 97 | 1017.1 |
| 20260902142123 | 70 | 95 | 1.0 | 8.0 | 0.00 | 0.27 | 0.01 | 97 | 1017.0 |
| 20260902142035 | 70 | 95 | 0.0 | 8.0 | 0.00 | 0.27 | 0.01 | 97 | 1017.1 |
| 20260902142022 | 70 | 95 | 1.0 | 8.0 | 0.00 | 0.27 | 0.01 | 97 | 1017.1 |
| 20260902141922 | 70 | 85 | 1.0 | 8.0 | 0.00 | 0.27 | 0.01 | 97 | 1017.0 |
| 20260902141859 | 70 | 77 | 1.0 | 8.0 | 0.00 | 0.27 | 0.01 | 97 | 1016.9 |
| 20260902141821 | 70 | 83 | 1.0 | 8.0 | 0.00 | 0.27 | 0.01 | 97 | 1016.9 |
| 20260902141810 | 70 | 83 | 1.0 | 8.0 | 0.00 | 0.27 | 0.01 | 97 | 1016.9 |
| 20260902141658 | 69 | 87 | 1.0 | 8.0 | 0.00 | 0.27 | 0.01 | 97 | 1016.7 |
| 20260902141654 | 69 | 87 | 1.0 | 8.0 | 0.00 | 0.27 | 0.01 | 97 | 1016.7 |
| 20260902141648 | 69 | 83 | 1.0 | 8.0 | 0.00 | 0.27 | 0.01 | 97 | 1016.9 |
| 20260902141639 | 69 | 87 | 1.0 | 8.0 | 0.00 | 0.27 | 0.01 | 97 | 1016.9 |
| 20260902141550 | 70 | 87 | 0.0 | 8.0 | 0.00 | 0.27 | 0.01 | 97 | 1016.9 |
| 20260902141215 | 69 | 60 | 2.0 | 8.0 | 0.00 | 0.27 | 0.01 | 97 | 1016.7 |
| 20260902141113 | 69 | 65 | 1.0 | 7.0 | 0.00 | 0.27 | 0.01 | 97 | 1016.7 |
| 20260902141036 | 69 | 142 | 0.0 | 7.0 | 0.00 | 0.27 | 0.01 | 97 | 1016.9 |
| 20260902141013 | 69 | 142 | 1.0 | 7.0 | 0.00 | 0.27 | 0.01 | 97 | 1016.7 |
| 20260902140913 | 69 | 142 | 1.0 | 7.0 | 0.00 | 0.27 | 0.01 | 97 | 1016.8 |
| 20260902140900 | 69 | 145 | 1.0 | 7.0 | 0.00 | 0.27 | 0.01 | 97 | 1016.9 |
| 20260902140812 | 69 | 123 | 1.0 | 7.0 | 0.00 | 0.27 | 0.01 | 97 | 1016.9 |
| 20260902140711 | 69 | 112 | 1.0 | 7.0 | 0.00 | 0.27 | 0.01 | 97 | 1016.7 |
| 20260902140620 | 69 | 67 | 1.0 | 7.0 | 0.00 | 0.27 | 0.01 | 97 | 1016.8 |
| 20260902140611 | 69 | 112 | 1.0 | 7.0 | 0.00 | 0.27 | 0.01 | 97 | 1016.8 |
| 20260902140520 | 69 | 82 | 2.0 | 7.0 | 0.00 | 0.27 | 0.01 | 97 | 1016.8 |
| 20260902140517 | 69 | 86 | 1.0 | 7.0 | 0.00 | 0.27 | 0.01 | 97 | 1016.7 |
| 20260902140508 | 69 | 67 | 1.0 | 7.0 | 0.00 | 0.27 | 0.01 | 97 | 1016.7 |
| 20260902140309 | 69 | 93 | 1.0 | 7.0 | 0.00 | 0.27 | 0.01 | 97 | 1016.8 |
| 20260902140209 | 69 | 90 | 1.0 | 7.0 | 0.00 | 0.27 | 0.01 | 97 | 1016.8 |
| 20260902140108 | 69 | 92 | 1.0 | 4.0 | 0.00 | 0.27 | 0.01 | 97 | 1016.8 |
| 20260902140021 | 69 | 94 | 2.0 | 4.0 | 0.00 | 0.27 | 0.01 | 97 | 1017.0 |
| 20260902140009 | 69 | 94 | 1.0 | 4.0 | 0.00 | 0.27 | 0.01 | 97 | 1016.8 |
| 20260902135908 | 69 | 63 | 1.0 | 6.0 | 0.00 | 0.27 | 0.01 | 97 | 1016.9 |
| 20260902135859 | 69 | 78 | 1.0 | 6.0 | 0.00 | 0.27 | 0.01 | 97 | 1016.9 |
| 20260902135822 | 69 | 104 | 1.0 | 6.0 | 0.00 | 0.27 | 0.01 | 97 | 1016.9 |
| 20260902135818 | 69 | 80 | 1.0 | 6.0 | 0.00 | 0.27 | 0.01 | 97 | 1016.9 |
| 20260902135607 | 69 | 104 | 1.0 | 6.0 | 0.00 | 0.27 | 0.01 | 97 | 1016.8 |
| 20260902135520 | 69 | 82 | 0.0 | 6.0 | 0.00 | 0.27 | 0.01 | 97 | 1016.8 |
| 20260902135506 | 69 | 82 | 1.0 | 6.0 | 0.00 | 0.27 | 0.01 | 97 | 1016.8 |
| 20260902135406 | 69 | 106 | 1.0 | 6.0 | 0.00 | 0.27 | 0.01 | 97 | 1016.8 |
| 20260902135357 | 69 | 91 | 1.0 | 6.0 | 0.00 | 0.27 | 0.01 | 97 | 1016.8 |
| 20260902135307 | 69 | 86 | 1.0 | 6.0 | 0.00 | 0.27 | 0.01 | 97 | 1016.8 |
| 20260902135205 | 69 | 103 | 1.0 | 6.0 | 0.00 | 0.27 | 0.01 | 97 | 1016.9 |
| 20260902135104 | 69 | 98 | 1.0 | 6.0 | 0.00 | 0.27 | 0.01 | 97 | 1016.8 |
| 20260902135020 | 69 | 79 | 2.0 | 6.0 | 0.00 | 0.27 | 0.01 | 97 | 1016.9 |
| 20260902135005 | 69 | 91 | 1.0 | 6.0 | 0.00 | 0.27 | 0.01 | 97 | 1016.8 |
| 20260902134950 | 69 | 109 | 1.0 | 6.0 | 0.00 | 0.27 | 0.01 | 97 | 1016.8 |
| 20260902134945 | 69 | 89 | 1.0 | 6.0 | 0.00 | 0.27 | 0.01 | 97 | 1016.8 |
| 20260902134938 | 69 | 107 | 1.0 | 6.0 | 0.00 | 0.27 | 0.01 | 97 | 1016.8 |
| 20260902134827 | 69 | 112 | 1.0 | 4.0 | 0.00 | 0.27 | 0.01 | 97 | 1016.9 |
| 20260902134821 | 69 | 112 | 1.0 | 6.0 | 0.00 | 0.27 | 0.01 | 97 | 1016.8 |
| 20260902134521 | 69 | 93 | 0.0 | 4.0 | 0.00 | 0.27 | 0.01 | 97 | 1017.0 |
| 20260902134510 | 69 | 93 | 1.0 | 6.0 | 0.00 | 0.27 | 0.01 | 97 | 1016.9 |
| 20260902134500 | 69 | 116 | 1.0 | 6.0 | 0.00 | 0.27 | 0.01 | 97 | 1016.9 |
| 20260902134301 | 69 | 71 | 1.0 | 4.0 | 0.00 | 0.27 | 0.01 | 97 | 1016.9 |
| 20260902134201 | 69 | 105 | 1.0 | 4.0 | 0.00 | 0.27 | 0.01 | 97 | 1016.9 |
| 20260902134100 | 69 | 87 | 0.0 | 4.0 | 0.00 | 0.27 | 0.01 | 97 | 1017.0 |
| 20260902134050 | 69 | 127 | 3.0 | 4.0 | 0.00 | 0.27 | 0.01 | 97 | 1017.1 |
| 20260902134000 | 69 | 107 | 0.0 | 4.0 | 0.00 | 0.27 | 0.01 | 97 | 1017.0 |
| 20260902133901 | 69 | 79 | 1.0 | 4.0 | 0.00 | 0.27 | 0.01 | 97 | 1017.0 |
| 20260902133855 | 69 | 78 | 1.0 | 4.0 | 0.00 | 0.27 | 0.01 | 97 | 1017.0 |
| 20260902133759 | 69 | 78 | 1.0 | 4.0 | 0.00 | 0.27 | 0.01 | 97 | 1017.0 |
| 20260902133658 | 69 | 76 | 1.0 | 4.0 | 0.00 | 0.27 | 0.01 | 97 | 1017.0 |
| 20260902133558 | 69 | 70 | 1.0 | 4.0 | 0.00 | 0.27 | 0.01 | 97 | 1017.0 |
| 20260902133535 | 69 | 69 | 0.0 | 4.0 | 0.00 | 0.27 | 0.01 | 97 | 1017.1 |
| 20260902133457 | 69 | 69 | 1.0 | 4.0 | 0.00 | 0.27 | 0.01 | 97 | 1017.0 |
| 20260902133359 | 69 | 92 | 1.0 | 4.0 | 0.00 | 0.27 | 0.01 | 97 | 1016.9 |
| 20260902133352 | 69 | 93 | 1.0 | 4.0 | 0.00 | 0.27 | 0.01 | 97 | 1016.9 |
| 20260902133256 | 69 | 63 | 0.0 | 4.0 | 0.00 | 0.27 | 0.01 | 97 | 1016.9 |
| 20260902133156 | 69 | 61 | 0.0 | 4.0 | 0.00 | 0.27 | 0.01 | 97 | 1016.8 |
| 20260902133055 | 69 | 60 | 0.0 | 4.0 | 0.00 | 0.27 | 0.01 | 97 | 1016.8 |
| 20260902133021 | 69 | 67 | 0.0 | 3.0 | 0.00 | 0.27 | 0.01 | 97 | 1016.9 |
| 20260902132955 | 69 | 67 | 0.0 | 3.0 | 0.00 | 0.27 | 0.01 | 97 | 1016.8 |
| 20260902132850 | 69 | 77 | 0.0 | 3.0 | 0.00 | 0.27 | 0.01 | 97 | 1016.8 |
| 20260902132816 | 69 | 77 | 0.0 | 3.0 | 0.00 | 0.27 | 0.01 | 97 | 1016.8 |
| 20260902132702 | 69 | 77 | 0.0 | 3.0 | 0.00 | 0.27 | 0.01 | 97 | 1016.7 |
| 20260902132520 | 69 | 79 | 0.0 | 2.0 | 0.00 | 0.27 | 0.01 | 97 | 1016.9 |
| 20260902132453 | 69 | 79 | 0.0 | 2.0 | 0.00 | 0.27 | 0.01 | 97 | 1016.8 |
| 20260902132354 | 69 | 79 | 0.0 | 3.0 | 0.00 | 0.27 | 0.01 | 97 | 1016.7 |
| 20260902132252 | 69 | 57 | 1.0 | 3.0 | 0.00 | 0.27 | 0.01 | 97 | 1016.7 |
| 20260902132151 | 69 | 64 | 1.0 | 3.0 | 0.00 | 0.27 | 0.01 | 97 | 1016.7 |
| 20260902132051 | 69 | 74 | 1.0 | 3.0 | 0.00 | 0.27 | 0.01 | 97 | 1016.7 |
| 20260902132020 | 69 | 74 | 0.0 | 3.0 | 0.00 | 0.27 | 0.01 | 97 | 1016.8 |
| 20260902131951 | 69 | 74 | 1.0 | 3.0 | 0.00 | 0.27 | 0.01 | 97 | 1016.7 |
| 20260902131852 | 69 | 74 | 1.0 | 3.0 | 0.00 | 0.27 | 0.01 | 97 | 1016.7 |
| 20260902131804 | 69 | 72 | 1.0 | 3.0 | 0.00 | 0.27 | 0.01 | 97 | 1016.6 |
| 20260902131759 | 69 | 74 | 1.0 | 3.0 | 0.00 | 0.27 | 0.01 | 97 | 1016.7 |
| 20260902131548 | 69 | 72 | 1.0 | 3.0 | 0.00 | 0.27 | 0.01 | 97 | 1016.7 |
| 20260902131521 | 69 | 72 | 1.0 | 3.0 | 0.00 | 0.27 | 0.01 | 97 | 1016.7 |
| 20260902131448 | 69 | 71 | 1.0 | 3.0 | 0.00 | 0.27 | 0.01 | 97 | 1016.6 |
| 20260902131407 | 69 | 107 | 1.0 | 4.0 | 0.00 | 0.27 | 0.01 | 97 | 1016.6 |
| 20260902131401 | 69 | 60 | 1.0 | 3.0 | 0.00 | 0.27 | 0.01 | 97 | 1016.6 |
| 20260902131356 | 69 | 53 | 1.0 | 3.0 | 0.00 | 0.27 | 0.01 | 97 | 1016.6 |
| 20260902131206 | 69 | 94 | 1.0 | 4.0 | 0.00 | 0.27 | 0.01 | 97 | 1016.4 |
| 20260902131147 | 69 | 101 | 1.0 | 4.0 | 0.00 | 0.27 | 0.01 | 97 | 1016.5 |
| 20260902131114 | 69 | 94 | 1.0 | 4.0 | 0.00 | 0.27 | 0.01 | 97 | 1016.4 |
| 20260902131109 | 69 | 104 | 1.0 | 4.0 | 0.00 | 0.27 | 0.01 | 97 | 1016.5 |
| 20260902131100 | 69 | 107 | 1.0 | 4.0 | 0.00 | 0.27 | 0.01 | 97 | 1016.4 |
| 20260902131020 | 69 | 103 | 1.0 | 4.0 | 0.00 | 0.27 | 0.01 | 97 | 1016.5 |
| 20260902130758 | 69 | 110 | 1.0 | 4.0 | 0.00 | 0.27 | 0.01 | 97 | 1016.4 |
| 20260902130753 | 69 | 92 | 1.0 | 4.0 | 0.00 | 0.27 | 0.01 | 97 | 1016.4 |
| 20260902130544 | 68 | 109 | 1.0 | 4.0 | 0.00 | 0.27 | 0.01 | 97 | 1016.4 |
| 20260902130521 | 68 | 109 | 1.0 | 4.0 | 0.00 | 0.27 | 0.01 | 97 | 1016.6 |
| 20260902130443 | 68 | 109 | 1.0 | 4.0 | 0.00 | 0.27 | 0.01 | 97 | 1016.5 |
| 20260902130341 | 68 | 97 | 1.0 | 4.0 | 0.00 | 0.27 | 0.01 | 97 | 1016.5 |
| 20260902130241 | 68 | 69 | 1.0 | 3.0 | 0.00 | 0.27 | 0.01 | 97 | 1016.5 |
| 20260902130141 | 68 | 57 | 1.0 | 3.0 | 0.00 | 0.27 | 0.01 | 97 | 1016.5 |
| 20260902130040 | 68 | 57 | 0.0 | 3.0 | 0.00 | 0.27 | 0.01 | 97 | 1016.5 |
| 20260902130021 | 68 | 100 | 0.0 | 3.0 | 0.00 | 0.27 | 0.01 | 97 | 1016.6 |
| 20260902125958 | 68 | 73 | 0.0 | 3.0 | 0.00 | 0.27 | 0.01 | 97 | 1016.5 |
| 20260902125953 | 68 | 100 | 0.0 | 3.0 | 0.00 | 0.27 | 0.01 | 97 | 1016.5 |
| 20260902125945 | 68 | 98 | 0.0 | 3.0 | 0.00 | 0.27 | 0.01 | 97 | 1016.5 |
| 20260902125738 | 68 | 84 | 0.0 | 3.0 | 0.00 | 0.27 | 0.01 | 97 | 1016.5 |
| 20260902125636 | 68 | 88 | 0.0 | 2.0 | 0.00 | 0.27 | 0.01 | 97 | 1016.5 |
| 20260902125536 | 68 | 68 | 0.0 | 2.0 | 0.00 | 0.27 | 0.01 | 97 | 1016.5 |
| 20260902125520 | 68 | 62 | 1.0 | 4.0 | 0.00 | 0.27 | 0.01 | 97 | 1016.6 |
| 20260902125450 | 68 | 78 | 0.0 | 4.0 | 0.00 | 0.27 | 0.01 | 97 | 1016.5 |
| 20260902125442 | 68 | 78 | 0.0 | 4.0 | 0.00 | 0.27 | 0.01 | 97 | 1016.5 |
| 20260902125235 | 68 | 78 | 0.0 | 4.0 | 0.00 | 0.27 | 0.01 | 97 | 1016.5 |
| 20260902125135 | 68 | 78 | 0.0 | 4.0 | 0.00 | 0.27 | 0.01 | 97 | 1016.5 |
| 20260902125108 | 68 | 65 | 1.0 | 5.0 | 0.00 | 0.27 | 0.01 | 97 | 1016.6 |
| 20260902125033 | 68 | 78 | 0.0 | 4.0 | 0.00 | 0.27 | 0.01 | 97 | 1016.6 |
| 20260902125021 | 68 | 78 | 0.0 | 4.0 | 0.00 | 0.27 | 0.01 | 97 | 1016.6 |
| 20260902124953 | 68 | 78 | 1.0 | 4.0 | 0.00 | 0.27 | 0.01 | 97 | 1016.5 |
| 20260902124833 | 68 | 65 | 1.0 | 5.0 | 0.00 | 0.27 | 0.01 | 97 | 1016.6 |
| 20260902124732 | 68 | 96 | 1.0 | 5.0 | 0.00 | 0.27 | 0.01 | 97 | 1016.6 |
| 20260902124631 | 68 | 96 | 1.0 | 5.0 | 0.00 | 0.27 | 0.01 | 97 | 1016.5 |
| 20260902124531 | 68 | 90 | 1.0 | 5.0 | 0.00 | 0.27 | 0.01 | 97 | 1016.5 |
| 20260902124520 | 68 | 85 | 2.0 | 7.0 | 0.00 | 0.27 | 0.01 | 97 | 1016.6 |
| 20260902124430 | 68 | 71 | 1.0 | 7.0 | 0.00 | 0.27 | 0.01 | 97 | 1016.5 |
| 20260902124343 | 68 | 91 | 1.0 | 7.0 | 0.00 | 0.27 | 0.01 | 97 | 1016.5 |
| 20260902124331 | 68 | 89 | 1.0 | 7.0 | 0.00 | 0.27 | 0.01 | 97 | 1016.5 |
| 20260902124230 | 68 | 71 | 1.0 | 7.0 | 0.00 | 0.27 | 0.01 | 97 | 1016.5 |
| 20260902124129 | 68 | 71 | 2.0 | 7.0 | 0.00 | 0.27 | 0.01 | 97 | 1016.6 |
| 20260902124044 | 68 | 82 | 2.0 | 7.0 | 0.00 | 0.27 | 0.01 | 97 | 1016.6 |
| 20260902124039 | 68 | 88 | 2.0 | 7.0 | 0.00 | 0.27 | 0.01 | 97 | 1016.6 |
| 20260902124036 | 68 | 89 | 1.0 | 7.0 | 0.00 | 0.27 | 0.01 | 97 | 1016.7 |
| 20260902123857 | 68 | 86 | 2.0 | 7.0 | 0.00 | 0.27 | 0.01 | 97 | 1016.5 |
| 20260902123850 | 68 | 90 | 2.0 | 7.0 | 0.00 | 0.27 | 0.01 | 97 | 1016.5 |
| 20260902123737 | 68 | 85 | 1.0 | 7.0 | 0.00 | 0.27 | 0.01 | 97 | 1016.6 |
| 20260902123527 | 68 | 104 | 1.0 | 7.0 | 0.00 | 0.27 | 0.01 | 97 | 1016.6 |
| 20260902123520 | 68 | 68 | 1.0 | 6.0 | 0.00 | 0.27 | 0.01 | 97 | 1016.6 |
| 20260902123427 | 68 | 89 | 1.0 | 6.0 | 0.00 | 0.27 | 0.01 | 97 | 1016.5 |
| 20260902123342 | 68 | 105 | 1.0 | 6.0 | 0.00 | 0.27 | 0.01 | 97 | 1016.5 |
| 20260902123327 | 68 | 115 | 1.0 | 6.0 | 0.00 | 0.27 | 0.01 | 97 | 1016.5 |
| 20260902123226 | 68 | 98 | 1.0 | 6.0 | 0.00 | 0.27 | 0.01 | 97 | 1016.5 |
| 20260902123126 | 68 | 100 | 1.0 | 6.0 | 0.00 | 0.27 | 0.01 | 97 | 1016.4 |
| 20260902123026 | 68 | 61 | 0.0 | 4.0 | 0.00 | 0.27 | 0.01 | 97 | 1016.4 |
| 20260902123021 | 68 | 72 | 3.0 | 3.0 | 0.00 | 0.27 | 0.01 | 97 | 1016.6 |
| 20260902122925 | 68 | 108 | 0.0 | 2.0 | 0.00 | 0.27 | 0.01 | 97 | 1016.5 |
| 20260902122841 | 68 | 108 | 0.0 | 2.0 | 0.00 | 0.27 | 0.01 | 97 | 1016.5 |
| 20260902122823 | 68 | 108 | 0.0 | 3.0 | 0.00 | 0.27 | 0.01 | 97 | 1016.5 |
| 20260902122723 | 68 | 108 | 1.0 | 4.0 | 0.00 | 0.27 | 0.01 | 97 | 1016.4 |
| 20260902122622 | 68 | 107 | 1.0 | 4.0 | 0.00 | 0.27 | 0.01 | 97 | 1016.5 |
| 20260902122522 | 68 | 79 | 1.0 | 4.0 | 0.00 | 0.27 | 0.01 | 97 | 1016.5 |
| 20260902122440 | 68 | 79 | 1.0 | 4.0 | 0.00 | 0.27 | 0.01 | 97 | 1016.6 |
| 20260902122435 | 68 | 79 | 1.0 | 4.0 | 0.00 | 0.27 | 0.01 | 97 | 1016.6 |
| 20260902122427 | 68 | 79 | 1.0 | 4.0 | 0.00 | 0.27 | 0.01 | 97 | 1016.6 |
| 20260902122220 | 68 | 78 | 1.0 | 4.0 | 0.00 | 0.27 | 0.01 | 97 | 1016.5 |
| 20260902122119 | 68 | 80 | 1.0 | 4.0 | 0.00 | 0.27 | 0.01 | 97 | 1016.6 |
| 20260902122021 | 68 | 86 | 1.0 | 4.0 | 0.00 | 0.27 | 0.01 | 97 | 1016.7 |
| 20260902122019 | 68 | 86 | 1.0 | 4.0 | 0.00 | 0.27 | 0.01 | 97 | 1016.6 |
| 20260902121919 | 68 | 71 | 0.0 | 4.0 | 0.00 | 0.27 | 0.01 | 97 | 1016.6 |
| 20260902121838 | 68 | 66 | 1.0 | 4.0 | 0.00 | 0.27 | 0.01 | 97 | 1016.7 |
| 20260902121818 | 68 | 49 | 1.0 | 4.0 | 0.00 | 0.27 | 0.01 | 97 | 1016.7 |
| 20260902121718 | 68 | 63 | 1.0 | 4.0 | 0.00 | 0.27 | 0.01 | 97 | 1016.6 |
| 20260902121616 | 68 | 119 | 0.0 | 4.0 | 0.00 | 0.27 | 0.01 | 97 | 1016.6 |
| 20260902121520 | 68 | 107 | 0.0 | 3.0 | 0.00 | 0.27 | 0.01 | 97 | 1016.7 |
| 20260902121517 | 68 | 107 | 0.0 | 3.0 | 0.00 | 0.27 | 0.01 | 97 | 1016.6 |
| 20260902121417 | 68 | 107 | 0.0 | 3.0 | 0.00 | 0.27 | 0.01 | 97 | 1016.6 |
| 20260902121339 | 68 | 94 | 0.0 | 3.0 | 0.00 | 0.27 | 0.01 | 97 | 1016.5 |
| 20260902121329 | 68 | 55 | 0.0 | 3.0 | 0.00 | 0.27 | 0.01 | 97 | 1016.5 |
| 20260902121324 | 68 | 89 | 0.0 | 3.0 | 0.00 | 0.27 | 0.01 | 97 | 1016.5 |
| 20260902121114 | 68 | 55 | 0.0 | 3.0 | 0.00 | 0.27 | 0.01 | 97 | 1016.5 |
| 20260902121020 | 68 | 55 | 0.0 | 3.0 | 0.00 | 0.27 | 0.01 | 97 | 1016.5 |
| 20260902121015 | 68 | 55 | 1.0 | 3.0 | 0.00 | 0.27 | 0.01 | 97 | 1016.5 |
| 20260902120913 | 68 | 55 | 1.0 | 4.0 | 0.00 | 0.27 | 0.01 | 97 | 1016.4 |
| 20260902120837 | 68 | 61 | 1.0 | 4.0 | 0.00 | 0.27 | 0.01 | 97 | 1016.4 |
| 20260902120827 | 68 | 67 | 1.0 | 4.0 | 0.00 | 0.27 | 0.01 | 97 | 1016.4 |
| 20260902120822 | 68 | 86 | 1.0 | 4.0 | 0.00 | 0.27 | 0.01 | 97 | 1016.4 |
| 20260902120610 | 68 | 81 | 1.0 | 4.0 | 0.00 | 0.27 | 0.01 | 97 | 1016.4 |
| 20260902120523 | 68 | 81 | 1.0 | 4.0 | 0.00 | 0.27 | 0.01 | 97 | 1016.3 |
| 20260902120521 | 68 | 81 | 0.0 | 4.0 | 0.00 | 0.27 | 0.01 | 97 | 1016.4 |
| 20260902120518 | 68 | 81 | 1.0 | 4.0 | 0.00 | 0.27 | 0.01 | 97 | 1016.4 |
| 20260902120308 | 68 | 81 | 1.0 | 4.0 | 0.00 | 0.27 | 0.01 | 97 | 1016.3 |
| 20260902120221 | 68 | 68 | 1.0 | 4.0 | 0.00 | 0.27 | 0.01 | 97 | 1016.3 |
| 20260902120216 | 68 | 62 | 1.0 | 4.0 | 0.00 | 0.27 | 0.01 | 97 | 1016.3 |
| 20260902120021 | 68 | 110 | 2.0 | 4.0 | 0.00 | 0.27 | 0.01 | 97 | 1016.4 |
| 20260902120006 | 68 | 87 | 1.0 | 4.0 | 0.00 | 0.27 | 0.01 | 97 | 1016.3 |
| 20260902115905 | 68 | 67 | 1.0 | 4.0 | 0.00 | 0.27 | 0.01 | 97 | 1016.2 |
| 20260902115836 | 68 | 69 | 1.0 | 4.0 | 0.00 | 0.27 | 0.01 | 97 | 1016.2 |
| 20260902115813 | 68 | 57 | 1.0 | 4.0 | 0.00 | 0.27 | 0.01 | 97 | 1016.2 |
| 20260902115804 | 68 | 93 | 1.0 | 8.0 | 0.00 | 0.27 | 0.01 | 97 | 1016.2 |
| 20260902115651 | 68 | 88 | 1.0 | 8.0 | 0.00 | 0.27 | 0.01 | 97 | 1016.2 |
| 20260902115540 | 68 | 61 | 1.0 | 8.0 | 0.00 | 0.27 | 0.01 | 97 | 1016.3 |
| 20260902115533 | 68 | 88 | 1.0 | 8.0 | 0.00 | 0.27 | 0.01 | 97 | 1016.3 |
| 20260902115524 | 68 | 88 | 1.0 | 8.0 | 0.00 | 0.27 | 0.01 | 97 | 1016.2 |
| 20260902115521 | 68 | 88 | 1.0 | 8.0 | 0.00 | 0.27 | 0.01 | 97 | 1016.4 |
| 20260902115058 | 68 | 89 | 1.0 | 8.0 | 0.00 | 0.27 | 0.01 | 97 | 1016.3 |
| 20260902115021 | 68 | 78 | 0.0 | 8.0 | 0.00 | 0.27 | 0.01 | 97 | 1016.5 |
| 20260902114958 | 68 | 78 | 1.0 | 8.0 | 0.00 | 0.27 | 0.01 | 97 | 1016.4 |
| 20260902114858 | 68 | 72 | 1.0 | 8.0 | 0.00 | 0.27 | 0.01 | 97 | 1016.3 |
| 20260902114837 | 68 | 55 | 1.0 | 8.0 | 0.00 | 0.27 | 0.01 | 97 | 1016.3 |
| 20260902114811 | 68 | 99 | 0.0 | 4.0 | 0.00 | 0.27 | 0.01 | 97 | 1016.3 |
| 20260902114806 | 68 | 92 | 1.0 | 8.0 | 0.00 | 0.27 | 0.01 | 97 | 1016.3 |
| 20260902114556 | 68 | 88 | 0.0 | 4.0 | 0.00 | 0.27 | 0.01 | 97 | 1016.3 |
| 20260902114520 | 68 | 92 | 0.0 | 4.0 | 0.00 | 0.27 | 0.01 | 97 | 1016.4 |
| 20260902114456 | 68 | 92 | 0.0 | 4.0 | 0.00 | 0.27 | 0.01 | 97 | 1016.3 |
| 20260902114353 | 68 | 93 | 0.0 | 4.0 | 0.00 | 0.27 | 0.01 | 97 | 1016.3 |
| 20260902114334 | 68 | 84 | 0.0 | 4.0 | 0.00 | 0.27 | 0.01 | 97 | 1016.3 |
| 20260902114308 | 68 | 85 | 1.0 | 4.0 | 0.00 | 0.27 | 0.01 | 97 | 1016.3 |
| 20260902114303 | 68 | 85 | 1.0 | 3.0 | 0.00 | 0.27 | 0.01 | 97 | 1016.3 |
| 20260902114116 | 68 | 85 | 1.0 | 4.0 | 0.00 | 0.27 | 0.01 | 97 | 1016.3 |
| 20260902114020 | 68 | 85 | 0.0 | 4.0 | 0.00 | 0.27 | 0.01 | 97 | 1016.4 |
| 20260902114003 | 68 | 85 | 1.0 | 4.0 | 0.00 | 0.27 | 0.01 | 97 | 1016.3 |
| 20260902113833 | 68 | 81 | 1.0 | 4.0 | 0.00 | 0.27 | 0.01 | 97 | 1016.3 |
| 20260902113807 | 68 | 68 | 1.0 | 4.0 | 0.00 | 0.27 | 0.01 | 97 | 1016.3 |
| 20260902113801 | 68 | 82 | 1.0 | 4.0 | 0.00 | 0.27 | 0.01 | 97 | 1016.3 |
| 20260902113552 | 68 | 68 | 1.0 | 4.0 | 0.00 | 0.27 | 0.01 | 97 | 1016.3 |
| 20260902113521 | 68 | 68 | 0.0 | 4.0 | 0.00 | 0.27 | 0.01 | 97 | 1016.4 |
| 20260902113452 | 68 | 68 | 1.0 | 4.0 | 0.00 | 0.27 | 0.01 | 97 | 1016.3 |
| 20260902113351 | 68 | 62 | 1.0 | 4.0 | 0.00 | 0.27 | 0.01 | 97 | 1016.4 |
| 20260902113332 | 68 | 57 | 1.0 | 4.0 | 0.00 | 0.27 | 0.01 | 97 | 1016.4 |
| 20260902113306 | 68 | 101 | 0.0 | 4.0 | 0.00 | 0.27 | 0.01 | 97 | 1016.3 |
| 20260902113300 | 68 | 57 | 1.0 | 4.0 | 0.00 | 0.27 | 0.01 | 97 | 1016.3 |
| 20260902113050 | 68 | 70 | 0.0 | 4.0 | 0.00 | 0.27 | 0.01 | 97 | 1016.3 |
| 20260902113020 | 68 | 66 | 3.0 | 4.0 | 0.00 | 0.27 | 0.01 | 97 | 1016.4 |
| 20260902112950 | 68 | 61 | 0.0 | 4.0 | 0.00 | 0.27 | 0.01 | 97 | 1016.3 |
| 20260902112849 | 68 | 45 | 0.0 | 3.0 | 0.00 | 0.27 | 0.01 | 97 | 1016.3 |
| 20260902112830 | 68 | 44 | 0.0 | 3.0 | 0.00 | 0.27 | 0.01 | 97 | 1016.3 |
| 20260902112749 | 68 | 44 | 0.0 | 3.0 | 0.00 | 0.27 | 0.01 | 97 | 1016.3 |
| 20260902112648 | 68 | 49 | 0.0 | 3.0 | 0.00 | 0.27 | 0.01 | 97 | 1016.2 |
| 20260902112601 | 68 | 92 | 0.0 | 3.0 | 0.00 | 0.27 | 0.01 | 97 | 1016.2 |
| 20260902112556 | 68 | 77 | 0.0 | 3.0 | 0.00 | 0.27 | 0.01 | 97 | 1016.2 |
| 20260902112521 | 68 | 82 | 1.0 | 3.0 | 0.00 | 0.27 | 0.01 | 97 | 1016.3 |
| 20260902112330 | 68 | 109 | 0.0 | 3.0 | 0.00 | 0.27 | 0.01 | 97 | 1016.2 |
| 20260902112246 | 69 | 65 | 0.0 | 3.0 | 0.00 | 0.27 | 0.01 | 97 | 1016.2 |
| 20260902112159 | 69 | 65 | 0.0 | 0.0 | 0.00 | 0.27 | 0.01 | 97 | 1016.2 |
| 20260902112154 | 69 | 69 | 0.0 | 0.0 | 0.00 | 0.27 | 0.01 | 97 | 1016.2 |
| 20260902112020 | 69 | 65 | 0.0 | 0.0 | 0.00 | 0.27 | 0.01 | 97 | 1016.4 |
| 20260902112013 | 69 | 63 | 0.0 | 0.0 | 0.00 | 0.27 | 0.01 | 97 | 1016.2 |
| 20260902112008 | 69 | 65 | 0.0 | 0.0 | 0.00 | 0.27 | 0.01 | 97 | 1016.2 |
| 20260902111852 | 69 | 65 | 0.0 | 0.0 | 0.00 | 0.27 | 0.01 | 97 | 1016.2 |
| 20260902111702 | 69 | 86 | 0.0 | 1.0 | 0.00 | 0.27 | 0.01 | 97 | 1016.2 |
| 20260902111658 | 68 | 84 | 0.0 | 3.0 | 0.00 | 0.27 | 0.01 | 97 | 1016.2 |
| 20260902111653 | 69 | 86 | 0.0 | 0.0 | 0.00 | 0.27 | 0.01 | 97 | 1016.2 |
| 20260902111521 | 68 | 86 | 0.0 | 1.0 | 0.00 | 0.27 | 0.01 | 97 | 1016.2 |
| 20260902111443 | 69 | 86 | 0.0 | 1.0 | 0.00 | 0.27 | 0.01 | 97 | 1016.1 |
| 20260902111433 | 69 | 86 | 0.0 | 3.0 | 0.00 | 0.27 | 0.01 | 97 | 1016.2 |
| 20260902111243 | 68 | 87 | 0.0 | 3.0 | 0.00 | 0.27 | 0.01 | 97 | 1016.2 |
| 20260902111141 | 68 | 89 | 0.0 | 3.0 | 0.00 | 0.27 | 0.01 | 97 | 1016.2 |
| 20260902111041 | 68 | 89 | 1.0 | 4.0 | 0.00 | 0.27 | 0.01 | 97 | 1016.2 |
| 20260902111021 | 68 | 84 | 0.0 | 4.0 | 0.00 | 0.27 | 0.01 | 97 | 1016.3 |
| 20260902110941 | 68 | 84 | 1.0 | 4.0 | 0.00 | 0.27 | 0.01 | 97 | 1016.2 |
| 20260902110824 | 68 | 84 | 1.0 | 4.0 | 0.00 | 0.27 | 0.01 | 97 | 1016.2 |
| 20260902110740 | 68 | 84 | 1.0 | 4.0 | 0.00 | 0.27 | 0.01 | 97 | 1016.3 |
| 20260902110654 | 68 | 80 | 1.0 | 4.0 | 0.00 | 0.27 | 0.01 | 97 | 1016.3 |
| 20260902110649 | 68 | 84 | 1.0 | 4.0 | 0.00 | 0.27 | 0.01 | 97 | 1016.2 |
| 20260902110520 | 68 | 80 | 0.0 | 4.0 | 0.00 | 0.27 | 0.01 | 97 | 1016.4 |
| 20260902110438 | 68 | 80 | 1.0 | 4.0 | 0.00 | 0.27 | 0.01 | 97 | 1016.3 |
| 20260902110324 | 68 | 84 | 1.0 | 4.0 | 0.00 | 0.27 | 0.01 | 97 | 1016.3 |
| 20260902110236 | 68 | 112 | 1.0 | 4.0 | 0.00 | 0.27 | 0.01 | 97 | 1016.3 |
| 20260902110136 | 68 | 72 | 1.0 | 4.0 | 0.00 | 0.27 | 0.01 | 97 | 1016.3 |
| 20260902110034 | 68 | 71 | 1.0 | 4.0 | 0.00 | 0.27 | 0.01 | 97 | 1016.3 |
| 20260902110020 | 69 | 65 | 4.0 | 4.0 | 0.00 | 0.27 | 0.01 | 97 | 1016.5 |
| 20260902105935 | 69 | 74 | 0.0 | 4.0 | 0.00 | 0.27 | 0.01 | 97 | 1016.3 |
| 20260902105823 | 68 | 88 | 0.0 | 2.0 | 0.00 | 0.27 | 0.01 | 97 | 1016.3 |
| 20260902105733 | 68 | 99 | 1.0 | 2.0 | 0.00 | 0.27 | 0.01 | 97 | 1016.3 |
| 20260902105632 | 68 | 99 | 1.0 | 2.0 | 0.00 | 0.27 | 0.01 | 97 | 1016.3 |
| 20260902105546 | 68 | 100 | 0.0 | 2.0 | 0.00 | 0.27 | 0.01 | 97 | 1016.3 |
| 20260902105540 | 68 | 70 | 0.0 | 2.0 | 0.00 | 0.27 | 0.01 | 97 | 1016.4 |
| 20260902105521 | 68 | 68 | 2.0 | 2.0 | 0.00 | 0.27 | 0.01 | 97 | 1016.5 |
| 20260902105331 | 68 | 91 | 0.0 | 2.0 | 0.00 | 0.27 | 0.01 | 97 | 1016.3 |
| 20260902105323 | 68 | 80 | 0.0 | 2.0 | 0.00 | 0.27 | 0.01 | 97 | 1016.3 |
| 20260902105229 | 68 | 83 | 0.0 | 2.0 | 0.00 | 0.27 | 0.01 | 97 | 1016.3 |
| 20260902105129 | 68 | 92 | 0.0 | 2.0 | 0.00 | 0.27 | 0.01 | 97 | 1016.3 |
| 20260902105028 | 68 | 92 | 0.0 | 3.0 | 0.00 | 0.27 | 0.01 | 97 | 1016.2 |
| 20260902105020 | 68 | 92 | 0.0 | 3.0 | 0.00 | 0.27 | 0.01 | 97 | 1016.5 |
| 20260902105000 | 68 | 74 | 0.0 | 3.0 | 0.00 | 0.27 | 0.01 | 97 | 1016.3 |
| 20260902104956 | 68 | 69 | 0.0 | 3.0 | 0.00 | 0.27 | 0.01 | 97 | 1016.3 |
| 20260902104951 | 68 | 92 | 1.0 | 3.0 | 0.00 | 0.27 | 0.01 | 97 | 1016.3 |
| 20260902104835 | 68 | 74 | 0.0 | 3.0 | 0.00 | 0.27 | 0.01 | 97 | 1016.3 |
| 20260902104626 | 68 | 76 | 1.0 | 3.0 | 0.00 | 0.27 | 0.01 | 97 | 1016.3 |
| 20260902104526 | 68 | 71 | 1.0 | 3.0 | 0.00 | 0.27 | 0.01 | 97 | 1016.3 |
| 20260902104521 | 68 | 71 | 1.0 | 3.0 | 0.00 | 0.27 | 0.01 | 97 | 1016.5 |
| 20260902104426 | 68 | 87 | 1.0 | 3.0 | 0.00 | 0.27 | 0.01 | 97 | 1016.3 |
| 20260902104321 | 68 | 86 | 1.0 | 3.0 | 0.00 | 0.27 | 0.01 | 97 | 1016.3 |
| 20260902104224 | 68 | 86 | 1.0 | 3.0 | 0.00 | 0.27 | 0.01 | 97 | 1016.2 |
| 20260902104123 | 68 | 86 | 1.0 | 3.0 | 0.00 | 0.27 | 0.01 | 97 | 1016.2 |
| 20260902104106 | 68 | 53 | 2.0 | 3.0 | 0.00 | 0.27 | 0.01 | 97 | 1016.4 |
| 20260902104021 | 68 | 64 | 1.0 | 3.0 | 0.00 | 0.27 | 0.01 | 97 | 1016.2 |
| 20260902103921 | 68 | 95 | 1.0 | 3.0 | 0.00 | 0.27 | 0.01 | 97 | 1016.2 |
| 20260902103819 | 68 | 92 | 1.0 | 3.0 | 0.00 | 0.27 | 0.01 | 97 | 1016.1 |
| 20260902103721 | 68 | 89 | 1.0 | 3.0 | 0.00 | 0.27 | 0.01 | 97 | 1016.1 |
| 20260902103621 | 68 | 76 | 1.0 | 3.0 | 0.00 | 0.27 | 0.01 | 97 | 1016.1 |
| 20260902103521 | 68 | 61 | 0.0 | 3.0 | 0.00 | 0.27 | 0.01 | 97 | 1016.3 |
| 20260902103420 | 68 | 61 | 1.0 | 3.0 | 0.00 | 0.27 | 0.01 | 97 | 1016.1 |
| 20260902103322 | 68 | 86 | 0.0 | 3.0 | 0.00 | 0.27 | 0.01 | 97 | 1016.1 |
| 20260902103220 | 68 | 89 | 0.0 | 3.0 | 0.00 | 0.27 | 0.01 | 97 | 1016.1 |
| 20260902103120 | 68 | 93 | 1.0 | 3.0 | 0.00 | 0.27 | 0.01 | 97 | 1016.1 |
| 20260902103020 | 68 | 93 | 1.0 | 3.0 | 0.00 | 0.27 | 0.01 | 97 | 1016.3 |
| 20260902102919 | 68 | 93 | 1.0 | 3.0 | 0.00 | 0.27 | 0.01 | 97 | 1016.1 |
| 20260902102820 | 69 | 93 | 1.0 | 3.0 | 0.01 | 0.27 | 0.01 | 97 | 1016.0 |
| 20260902102718 | 68 | 96 | 1.0 | 3.0 | 0.01 | 0.27 | 0.01 | 97 | 1016.0 |
| 20260902102638 | 68 | 103 | 1.0 | 4.0 | 0.01 | 0.27 | 0.01 | 97 | 1015.9 |
| 20260902102618 | 68 | 96 | 1.0 | 3.0 | 0.01 | 0.27 | 0.01 | 97 | 1016.0 |
| 20260902102543 | 68 | 103 | 1.0 | 4.0 | 0.01 | 0.27 | 0.01 | 97 | 1015.9 |
| 20260902102538 | 68 | 101 | 1.0 | 3.0 | 0.01 | 0.27 | 0.01 | 97 | 1016.0 |
| 20260902102528 | 68 | 103 | 1.0 | 3.0 | 0.01 | 0.27 | 0.01 | 97 | 1016.0 |
| 20260902102521 | 68 | 101 | 0.0 | 3.0 | 0.01 | 0.27 | 0.01 | 97 | 1016.2 |
| 20260902102213 | 69 | 87 | 1.0 | 4.0 | 0.01 | 0.27 | 0.01 | 97 | 1015.9 |
| 20260902102125 | 69 | 84 | 1.0 | 4.0 | 0.01 | 0.27 | 0.01 | 97 | 1015.9 |
| 20260902102120 | 68 | 90 | 1.0 | 4.0 | 0.01 | 0.27 | 0.01 | 97 | 1015.9 |
| 20260902102021 | 69 | 84 | 0.0 | 4.0 | 0.01 | 0.27 | 0.01 | 97 | 1016.1 |
| 20260902101911 | 69 | 74 | 1.0 | 4.0 | 0.01 | 0.27 | 0.01 | 97 | 1015.9 |
| 20260902101817 | 69 | 74 | 1.0 | 6.0 | 0.01 | 0.27 | 0.01 | 97 | 1015.9 |
| 20260902101810 | 69 | 76 | 1.0 | 6.0 | 0.01 | 0.27 | 0.01 | 97 | 1015.9 |
| 20260902101710 | 69 | 80 | 1.0 | 6.0 | 0.01 | 0.27 | 0.01 | 97 | 1015.8 |
| 20260902101610 | 69 | 81 | 1.0 | 6.0 | 0.01 | 0.27 | 0.01 | 97 | 1015.9 |
| 20260902101535 | 69 | 81 | 0.0 | 6.0 | 0.01 | 0.27 | 0.01 | 97 | 1016.1 |
| 20260902101509 | 69 | 81 | 1.0 | 6.0 | 0.01 | 0.27 | 0.01 | 97 | 1015.9 |
| 20260902101409 | 69 | 89 | 1.0 | 6.0 | 0.01 | 0.27 | 0.01 | 97 | 1015.9 |
| 20260902101313 | 69 | 96 | 1.0 | 6.0 | 0.01 | 0.27 | 0.01 | 97 | 1015.9 |
| 20260902101306 | 69 | 93 | 1.0 | 6.0 | 0.01 | 0.27 | 0.01 | 97 | 1015.9 |
| 20260902101206 | 69 | 97 | 1.0 | 6.0 | 0.01 | 0.27 | 0.01 | 97 | 1015.9 |
| 20260902101104 | 69 | 73 | 0.0 | 6.0 | 0.01 | 0.27 | 0.01 | 97 | 1015.9 |
| 20260902101022 | 69 | 102 | 0.0 | 3.0 | 0.01 | 0.27 | 0.01 | 97 | 1015.9 |
| 20260902101018 | 69 | 97 | 0.0 | 3.0 | 0.01 | 0.27 | 0.01 | 97 | 1015.9 |
| 20260902101014 | 69 | 96 | 0.0 | 3.0 | 0.01 | 0.27 | 0.01 | 97 | 1016.0 |
| 20260902101009 | 69 | 74 | 0.0 | 6.0 | 0.01 | 0.27 | 0.01 | 97 | 1015.9 |
| 20260902101000 | 69 | 74 | 0.0 | 6.0 | 0.01 | 0.27 | 0.01 | 97 | 1015.9 |
| 20260902100952 | 69 | 100 | 0.0 | 6.0 | 0.01 | 0.27 | 0.01 | 97 | 1015.9 |
| 20260902100622 | 69 | 96 | 0.0 | 3.0 | 0.01 | 0.27 | 0.01 | 97 | 1015.9 |
| 20260902100521 | 69 | 96 | 0.0 | 3.0 | 0.01 | 0.27 | 0.01 | 97 | 1016.2 |
| 20260902100312 | 69 | 90 | 0.0 | 3.0 | 0.01 | 0.27 | 0.01 | 97 | 1015.9 |
| 20260902100302 | 69 | 74 | 0.0 | 3.0 | 0.01 | 0.27 | 0.01 | 97 | 1016.0 |
| 20260902100202 | 69 | 74 | 0.0 | 3.0 | 0.01 | 0.27 | 0.01 | 97 | 1015.9 |
| 20260902100050 | 69 | 73 | 1.0 | 3.0 | 0.01 | 0.27 | 0.01 | 97 | 1016.1 |
| 20260902100004 | 69 | 73 | 0.0 | 3.0 | 0.01 | 0.27 | 0.01 | 97 | 1015.9 |
| 20260902095903 | 69 | 77 | 0.0 | 3.0 | 0.01 | 0.27 | 0.01 | 97 | 1015.9 |
| 20260902095812 | 69 | 94 | 0.0 | 4.0 | 0.01 | 0.27 | 0.01 | 97 | 1015.9 |
| 20260902095802 | 69 | 93 | 1.0 | 4.0 | 0.01 | 0.27 | 0.01 | 97 | 1015.9 |
| 20260902095715 | 69 | 93 | 1.0 | 4.0 | 0.01 | 0.27 | 0.01 | 97 | 1015.9 |
| 20260902095711 | 69 | 93 | 1.0 | 4.0 | 0.01 | 0.27 | 0.01 | 97 | 1015.9 |
| 20260902095521 | 69 | 94 | 3.0 | 4.0 | 0.01 | 0.27 | 0.01 | 97 | 1016.1 |
| 20260902095501 | 69 | 94 | 1.0 | 4.0 | 0.01 | 0.27 | 0.01 | 97 | 1015.9 |
| 20260902095401 | 69 | 59 | 1.0 | 4.0 | 0.01 | 0.27 | 0.01 | 97 | 1015.9 |
| 20260902095312 | 69 | 82 | 1.0 | 4.0 | 0.01 | 0.27 | 0.01 | 97 | 1015.9 |
| 20260902095300 | 69 | 82 | 1.0 | 4.0 | 0.01 | 0.27 | 0.01 | 97 | 1015.9 |
| 20260902095234 | 69 | 82 | 0.0 | 4.0 | 0.01 | 0.27 | 0.01 | 97 | 1015.9 |
| 20260902095121 | 69 | 71 | 0.0 | 4.0 | 0.01 | 0.27 | 0.01 | 97 | 1015.9 |
| 20260902095116 | 69 | 82 | 0.0 | 4.0 | 0.01 | 0.27 | 0.01 | 97 | 1015.9 |
| 20260902095035 | 69 | 84 | 1.0 | 4.0 | 0.01 | 0.27 | 0.01 | 97 | 1016.1 |
| 20260902094810 | 69 | 71 | 0.0 | 4.0 | 0.01 | 0.27 | 0.01 | 97 | 1015.9 |
| 20260902094757 | 69 | 71 | 0.0 | 4.0 | 0.01 | 0.27 | 0.01 | 97 | 1015.9 |
| 20260902094732 | 69 | 65 | 0.0 | 3.0 | 0.01 | 0.27 | 0.01 | 97 | 1015.9 |
| 20260902094727 | 69 | 65 | 0.0 | 3.0 | 0.01 | 0.27 | 0.01 | 97 | 1015.9 |
| 20260902094614 | 69 | 65 | 0.0 | 3.0 | 0.01 | 0.27 | 0.01 | 97 | 1015.9 |
| 20260902094550 | 69 | 65 | 0.0 | 3.0 | 0.01 | 0.27 | 0.01 | 97 | 1016.1 |
| 20260902094311 | 69 | 65 | 0.0 | 4.0 | 0.01 | 0.27 | 0.01 | 97 | 1015.9 |
| 20260902094255 | 69 | 65 | 0.0 | 4.0 | 0.01 | 0.27 | 0.01 | 97 | 1015.9 |
| 20260902094207 | 69 | 70 | 0.0 | 4.0 | 0.01 | 0.27 | 0.01 | 97 | 1015.9 |
| 20260902094203 | 69 | 70 | 0.0 | 4.0 | 0.01 | 0.27 | 0.01 | 97 | 1015.9 |
| 20260902094036 | 69 | 70 | 0.0 | 4.0 | 0.01 | 0.27 | 0.01 | 97 | 1016.1 |
| 20260902094006 | 69 | 70 | 1.0 | 4.0 | 0.01 | 0.27 | 0.01 | 97 | 1015.8 |
| 20260902094000 | 69 | 70 | 1.0 | 4.0 | 0.01 | 0.27 | 0.01 | 97 | 1015.9 |
| 20260902093811 | 69 | 51 | 1.0 | 4.0 | 0.01 | 0.27 | 0.01 | 97 | 1015.8 |
| 20260902093805 | 69 | 86 | 1.0 | 5.0 | 0.01 | 0.27 | 0.01 | 97 | 1015.9 |
| 20260902093801 | 69 | 79 | 1.0 | 4.0 | 0.01 | 0.27 | 0.01 | 97 | 1015.9 |
| 20260902093551 | 69 | 86 | 1.0 | 5.0 | 0.01 | 0.27 | 0.01 | 97 | 1015.9 |
| 20260902093536 | 69 | 85 | 1.0 | 5.0 | 0.01 | 0.27 | 0.01 | 97 | 1016.1 |
| 20260902093504 | 69 | 63 | 1.0 | 5.0 | 0.01 | 0.27 | 0.01 | 97 | 1015.8 |
| 20260902093500 | 69 | 70 | 1.0 | 5.0 | 0.01 | 0.27 | 0.01 | 97 | 1015.9 |
| 20260902093323 | 69 | 63 | 1.0 | 5.0 | 0.01 | 0.27 | 0.01 | 97 | 1015.8 |
| 20260902093319 | 69 | 63 | 1.0 | 5.0 | 0.01 | 0.27 | 0.01 | 97 | 1015.8 |
| 20260902093314 | 69 | 63 | 1.0 | 5.0 | 0.01 | 0.27 | 0.01 | 97 | 1015.8 |
| 20260902093308 | 69 | 63 | 1.0 | 5.0 | 0.01 | 0.27 | 0.01 | 97 | 1015.8 |
| 20260902093051 | 69 | 78 | 1.0 | 5.0 | 0.01 | 0.27 | 0.01 | 97 | 1016.0 |
| 20260902092950 | 69 | 82 | 1.0 | 5.0 | 0.01 | 0.27 | 0.01 | 97 | 1015.8 |
| 20260902092849 | 69 | 79 | 1.0 | 5.0 | 0.01 | 0.27 | 0.01 | 97 | 1015.9 |
| 20260902092810 | 69 | 67 | 1.0 | 5.0 | 0.00 | 0.26 | 0.01 | 97 | 1015.9 |
| 20260902092745 | 69 | 82 | 0.0 | 5.0 | 0.00 | 0.26 | 0.01 | 97 | 1015.8 |
| 20260902092647 | 69 | 79 | 0.0 | 3.0 | 0.00 | 0.26 | 0.00 | 97 | 1015.8 |
| 20260902092546 | 69 | 86 | 1.0 | 3.0 | 0.00 | 0.26 | 0.00 | 97 | 1015.8 |
| 20260902092521 | 69 | 88 | 0.0 | 3.0 | 0.00 | 0.26 | 0.00 | 97 | 1016.0 |
| 20260902092446 | 69 | 88 | 1.0 | 3.0 | 0.00 | 0.26 | 0.00 | 97 | 1015.8 |
| 20260902092345 | 69 | 88 | 1.0 | 4.0 | 0.00 | 0.26 | 0.00 | 97 | 1015.8 |
| 20260902092309 | 69 | 88 | 1.0 | 4.0 | 0.00 | 0.26 | 0.00 | 97 | 1015.8 |
| 20260902092244 | 69 | 88 | 1.0 | 4.0 | 0.00 | 0.26 | 0.00 | 97 | 1015.8 |
| 20260902092144 | 69 | 88 | 1.0 | 4.0 | 0.00 | 0.26 | 0.00 | 97 | 1015.8 |
| 20260902092044 | 69 | 88 | 1.0 | 4.0 | 0.00 | 0.26 | 0.00 | 97 | 1015.8 |
| 20260902092021 | 69 | 82 | 1.0 | 4.0 | 0.00 | 0.26 | 0.00 | 97 | 1016.0 |
| 20260902091942 | 69 | 83 | 1.0 | 4.0 | 0.00 | 0.26 | 0.00 | 97 | 1015.8 |
| 20260902091908 | 69 | 97 | 1.0 | 4.0 | 0.00 | 0.26 | 0.00 | 97 | 1015.9 |
| 20260902091859 | 69 | 96 | 1.0 | 4.0 | 0.00 | 0.26 | 0.00 | 97 | 1015.9 |
| 20260902091749 | 69 | 80 | 1.0 | 4.0 | 0.00 | 0.26 | 0.00 | 97 | 1015.8 |
| 20260902091540 | 69 | 83 | 1.0 | 4.0 | 0.00 | 0.26 | 0.00 | 97 | 1015.8 |
| 20260902091520 | 69 | 71 | 3.0 | 4.0 | 0.00 | 0.26 | 0.00 | 97 | 1015.9 |
| 20260902091439 | 69 | 84 | 1.0 | 4.0 | 0.00 | 0.26 | 0.00 | 97 | 1015.7 |
| 20260902091339 | 69 | 59 | 0.0 | 4.0 | 0.00 | 0.26 | 0.00 | 97 | 1015.7 |
| 20260902091308 | 69 | 121 | 0.0 | 3.0 | 0.00 | 0.26 | 0.00 | 97 | 1015.7 |
| 20260902091239 | 69 | 121 | 1.0 | 3.0 | 0.00 | 0.26 | 0.00 | 97 | 1015.7 |
| 20260902091203 | 69 | 121 | 1.0 | 4.0 | 0.00 | 0.26 | 0.00 | 97 | 1015.7 |
| 20260902091050 | 69 | 82 | 1.0 | 5.0 | 0.00 | 0.26 | 0.00 | 97 | 1015.6 |
| 20260902091045 | 69 | 122 | 1.0 | 4.0 | 0.00 | 0.26 | 0.00 | 97 | 1015.7 |
| 20260902091021 | 69 | 86 | 0.0 | 4.0 | 0.00 | 0.26 | 0.00 | 97 | 1015.9 |
| 20260902090913 | 69 | 82 | 1.0 | 4.0 | 0.00 | 0.26 | 0.00 | 97 | 1015.6 |
| 20260902090735 | 69 | 82 | 1.0 | 5.0 | 0.00 | 0.26 | 0.00 | 97 | 1015.5 |
| 20260902090634 | 69 | 82 | 1.0 | 5.0 | 0.00 | 0.26 | 0.00 | 96 | 1015.6 |
| 20260902090534 | 69 | 83 | 1.0 | 5.0 | 0.00 | 0.26 | 0.00 | 96 | 1015.6 |
| 20260902090521 | 69 | 83 | 0.0 | 5.0 | 0.00 | 0.26 | 0.00 | 96 | 1015.8 |
| 20260902090435 | 69 | 83 | 1.0 | 5.0 | 0.00 | 0.26 | 0.00 | 96 | 1015.6 |
| 20260902090333 | 69 | 83 | 1.0 | 5.0 | 0.00 | 0.26 | 0.00 | 96 | 1015.5 |
| 20260902090305 | 69 | 86 | 1.0 | 5.0 | 0.00 | 0.26 | 0.00 | 96 | 1015.5 |
| 20260902090232 | 69 | 69 | 1.0 | 5.0 | 0.00 | 0.26 | 0.00 | 96 | 1015.5 |
| 20260902090133 | 69 | 96 | 1.0 | 5.0 | 0.00 | 0.26 | 0.00 | 96 | 1015.5 |
| 20260902090033 | 69 | 103 | 1.0 | 5.0 | 0.00 | 0.26 | 0.00 | 97 | 1015.5 |
| 20260902090021 | 69 | 76 | 1.0 | 5.0 | 0.00 | 0.26 | 0.00 | 97 | 1015.7 |
| 20260902085931 | 69 | 96 | 1.0 | 5.0 | 0.00 | 0.26 | 0.00 | 96 | 1015.5 |
| 20260902085830 | 69 | 46 | 1.0 | 5.0 | 0.00 | 0.26 | 0.00 | 97 | 1015.5 |
| 20260902085805 | 69 | 84 | 1.0 | 4.0 | 0.00 | 0.26 | 0.00 | 97 | 1015.5 |
| 20260902085757 | 69 | 68 | 0.0 | 3.0 | 0.00 | 0.26 | 0.00 | 96 | 1015.5 |
| 20260902085752 | 69 | 65 | 0.0 | 3.0 | 0.00 | 0.26 | 0.00 | 96 | 1015.5 |
| 20260902085748 | 69 | 69 | 0.0 | 3.0 | 0.00 | 0.26 | 0.00 | 97 | 1015.5 |
| 20260902085520 | 69 | 65 | 0.0 | 3.0 | 0.00 | 0.26 | 0.00 | 96 | 1015.6 |
| 20260902085429 | 69 | 65 | 0.0 | 3.0 | 0.00 | 0.26 | 0.00 | 97 | 1015.4 |
| 20260902085327 | 69 | 69 | 0.0 | 3.0 | 0.00 | 0.26 | 0.00 | 97 | 1015.4 |
| 20260902085306 | 69 | 84 | 0.0 | 3.0 | 0.00 | 0.26 | 0.00 | 97 | 1015.4 |
| 20260902085227 | 69 | 84 | 0.0 | 3.0 | 0.00 | 0.26 | 0.00 | 97 | 1015.5 |
| 20260902085127 | 69 | 84 | 0.0 | 3.0 | 0.00 | 0.26 | 0.00 | 97 | 1015.5 |
| 20260902085035 | 69 | 92 | 0.0 | 3.0 | 0.00 | 0.26 | 0.00 | 97 | 1015.7 |
| 20260902085026 | 69 | 91 | 0.0 | 3.0 | 0.00 | 0.26 | 0.00 | 97 | 1015.5 |
| 20260902084926 | 69 | 92 | 0.0 | 3.0 | 0.00 | 0.26 | 0.00 | 97 | 1015.5 |
| 20260902084804 | 69 | 91 | 0.0 | 3.0 | 0.00 | 0.26 | 0.00 | 97 | 1015.5 |
| 20260902084725 | 69 | 91 | 0.0 | 3.0 | 0.00 | 0.26 | 0.00 | 97 | 1015.4 |
| 20260902084624 | 69 | 91 | 1.0 | 3.0 | 0.00 | 0.26 | 0.00 | 97 | 1015.4 |
| 20260902084549 | 69 | 91 | 1.0 | 3.0 | 0.00 | 0.26 | 0.00 | 97 | 1015.4 |
| 20260902084544 | 69 | 90 | 0.0 | 3.0 | 0.00 | 0.26 | 0.00 | 97 | 1015.4 |
| 20260902084539 | 69 | 91 | 1.0 | 3.0 | 0.00 | 0.26 | 0.00 | 97 | 1015.4 |
| 20260902084521 | 69 | 91 | 0.0 | 3.0 | 0.00 | 0.26 | 0.00 | 97 | 1015.6 |
| 20260902084304 | 69 | 71 | 0.0 | 3.0 | 0.00 | 0.26 | 0.00 | 97 | 1015.4 |
| 20260902084220 | 69 | 57 | 0.0 | 3.0 | 0.00 | 0.26 | 0.00 | 97 | 1015.4 |
| 20260902084120 | 69 | 57 | 0.0 | 3.0 | 0.00 | 0.26 | 0.00 | 97 | 1015.4 |
| 20260902084021 | 69 | 55 | 0.0 | 3.0 | 0.00 | 0.26 | 0.00 | 97 | 1015.6 |
| 20260902084019 | 69 | 55 | 0.0 | 3.0 | 0.00 | 0.26 | 0.00 | 97 | 1015.4 |
| 20260902083919 | 69 | 55 | 1.0 | 4.0 | 0.00 | 0.26 | 0.00 | 97 | 1015.4 |
| 20260902083803 | 69 | 44 | 1.0 | 4.0 | 0.00 | 0.26 | 0.00 | 97 | 1015.3 |
| 20260902083718 | 69 | 76 | 0.0 | 4.0 | 0.00 | 0.26 | 0.00 | 97 | 1015.3 |
| 20260902083618 | 69 | 105 | 0.0 | 4.0 | 0.00 | 0.26 | 0.00 | 97 | 1015.3 |
| 20260902083521 | 69 | 117 | 1.0 | 4.0 | 0.00 | 0.26 | 0.00 | 97 | 1015.5 |
| 20260902083518 | 69 | 140 | 0.0 | 4.0 | 0.00 | 0.26 | 0.00 | 97 | 1015.2 |
| 20260902083417 | 69 | 117 | 0.0 | 4.0 | 0.00 | 0.26 | 0.00 | 97 | 1015.3 |
| 20260902083303 | 69 | 117 | 1.0 | 4.0 | 0.00 | 0.26 | 0.00 | 97 | 1015.3 |
| 20260902083216 | 69 | 117 | 1.0 | 4.0 | 0.00 | 0.26 | 0.00 | 97 | 1015.3 |
| 20260902083116 | 69 | 117 | 1.0 | 7.0 | 0.00 | 0.26 | 0.00 | 97 | 1015.3 |
| 20260902083021 | 69 | 117 | 1.0 | 7.0 | 0.00 | 0.26 | 0.00 | 97 | 1015.5 |
| 20260902083016 | 69 | 117 | 1.0 | 7.0 | 0.00 | 0.26 | 0.00 | 97 | 1015.3 |
| 20260902082915 | 69 | 107 | 1.0 | 7.0 | 0.00 | 0.26 | 0.00 | 97 | 1015.3 |
| 20260902082814 | 69 | 98 | 1.0 | 7.0 | 0.00 | 0.26 | 0.00 | 97 | 1015.2 |
| 20260902082803 | 69 | 97 | 1.0 | 7.0 | 0.00 | 0.26 | 0.00 | 97 | 1015.2 |
| 20260902082734 | 69 | 97 | 1.0 | 7.0 | 0.00 | 0.26 | 0.00 | 97 | 1015.2 |